[[{"header":{"parameterUnit":"m.s-1","parameterCategory":1,"la1":31.0,"la2":29.5877,"lo1":-88.7671,"lo2":-86.6584,"dy":0.0162,"dx":0.0185,"nx":115,"ny":88,"refTime":"2024-05-25T00:00:00:Z","depth":0,"parameterNumber":2,"parameterNumberName":"U-component_of_WINDS"},"data":[0.0,0.0,0.0,0.0,0.0,0.0,0.0,0.0,0.0,0.0,0.0,0.0,0.0,0.0,0.0,0.0,0.0,0.0,0.0,0.0,0.0,0.0,0.0,0.0,0.0,0.0,0.0,0.0,0.0,0.0,0.0,0.0,0.0,0.0,0.0,0.0,0.0,0.0,0.0,0.0,0.0,0.0,0.0,0.0,0.0,0.0,0.0,0.0,0.0,0.0,0.0,0.0,0.0,0.0,0.0,0.0,0.0,0.0,0.0,0.0,0.0,0.0,0.0,0.0,0.0,0.0,0.0,0.0,0.0,0.0,0.0,0.0,0.0,0.0,0.0,0.0,0.0,0.0,0.0,0.0,0.0,0.0,0.0,0.0,0.0,0.0,0.0,0.0,0.0,0.0,0.0,0.0,0.0,0.0,0.0,0.0,0.0,0.0,0.0,0.0,0.0,0.0,0.0,0.0,0.0,0.0,0.0,0.0,0.0,0.0,0.0,0.0,0.0,0.0,0.0,0.0,0.0,0.0,0.0,0.0,0.0,0.0,0.0,0.0,0.0,0.0,0.0,0.0,0.0,0.0,0.0,0.0,0.0,0.0,0.0,0.0,0.0,0.0,0.0,0.0,0.0,0.0,0.0,0.0,0.0,0.0,0.0,0.0,0.0,0.0,0.0,0.0,0.0,0.0,0.0,0.0,0.0,0.0,0.0,0.0,0.0,0.0,0.0,0.0,0.0,0.0,0.0,0.0,0.0,0.0,0.0,0.0,0.0,0.0,0.0,0.0,0.0,0.0,0.0,0.0,0.0,0.0,0.0,0.0,0.0,0.0,0.0,0.0,0.0,0.0,0.0,0.0,0.0,0.0,0.0,0.0,0.0,0.0,0.0,0.0,0.0,0.0,0.0,0.0,0.0,0.0,0.0,0.0,0.0,0.0,0.0,0.0,0.0,0.0,0.0,0.0,0.0,0.0,0.0,0.0,0.0,0.0,0.0,0.0,0.0,0.0,0.0,0.0,0.0,0.0,0.0,0.0,0.0,0.0,0.0,0.0,0.0,0.0,0.0,0.0,0.0,0.0,0.0,0.0,0.0,0.0,0.0,0.0,0.0,0.0,0.0,0.0,0.0,0.0,0.0,0.0,0.0,0.0,0.0,0.0,0.0,0.0,0.0,0.0,0.0,0.0,0.0,0.0,0.0,0.0,0.0,0.0,0.0,0.0,0.0,0.0,0.0,0.0,0.0,0.0,0.0,0.0,0.0,0.0,0.0,0.0,0.0,0.0,0.0,0.0,0.0,0.0,0.0,0.0,0.0,0.0,0.0,0.0,0.0,0.0,0.0,0.0,0.0,0.0,0.0,0.0,0.0,0.0,0.0,0.0,0.0,0.0,0.0,0.0,0.0,0.0,0.0,0.0,0.0,0.0,0.0,0.0,0.0,0.0,0.0,0.0,0.0,0.0,0.0,0.0,0.0,0.0,0.0,0.0,0.0,0.0,0.0,0.0,0.0,0.0,0.0,0.0,0.0,0.0,0.0,0.0,0.0,0.0,0.0,0.0,0.0,0.0,0.0,0.0,0.0,0.0,0.0,0.0,0.0,0.0,0.0,0.0,0.0,0.0,0.0,0.0,0.0,0.0,0.0,0.0,0.0,0.0,0.0,0.0,0.0,0.0,0.0,0.0,0.0,0.0,0.0,0.0,0.0,0.0,0.0,0.0,0.0,0.0,0.0,0.0,0.0,0.0,0.0,0.0,0.0,0.0,0.0,0.0,0.0,0.0,0.0,0.0,0.0,0.0,0.0,0.0,0.0,0.0,0.0,0.0,0.0,0.0,0.0,0.0,0.0,0.0,0.0,0.0,0.0,0.0,0.0,0.0,0.0,0.0,0.0,0.0,0.0,0.0,0.0,0.0,0.0,0.0,0.0,0.0,0.0,0.0,0.0,0.0,0.0,0.0,0.0,0.0,0.0,0.0,0.0,0.0,0.0,0.0,0.0,0.0,0.0,0.0,0.0,0.0,0.0,0.0,0.0,0.0,0.0,0.0,0.0,0.0,0.0,0.0,0.0,0.0,0.0,0.0,0.0,0.0,0.0,0.0,0.0,0.0,0.0,0.0,0.0,0.0,0.0,0.0,0.0,0.0,0.0,0.0,0.0,0.0,0.0,0.0,0.0,0.0,0.0,0.0,0.0,0.0,0.0,0.0,0.0,0.0,0.0,0.0,0.0,0.0,0.0,0.0,0.0,0.0,0.0,0.0,0.0,0.0,0.0,0.0,0.0,0.0,0.0,0.0,0.0,0.0,0.0,0.0,0.0,0.0,0.0,0.0,0.0,0.0,0.0,0.0,0.0,0.0,0.0,0.0,0.0,0.0,0.0,0.0,0.0,0.0,0.0,0.0,0.0,0.0,0.0,0.0,0.0,0.0,0.0,0.0,0.0,0.0,0.0,0.0,0.0,0.0,0.0,0.0,0.0,0.0,0.0,0.0,0.0,0.0,0.0,0.0,0.0,0.0,0.0,0.0,0.0,0.0,0.0,0.0,0.0,0.0,0.0,0.0,0.0,0.0,0.0,0.0,0.0,0.0,0.0,0.0,0.0,0.0,0.0,0.0,0.0,0.0,0.0,0.0,0.0,0.0,0.0,0.0,0.0,0.0,0.0,0.0,0.0,0.0,0.0,0.0,0.0,0.0,0.0,0.0,0.0,0.0,0.0,0.0,0.0,0.0,0.0,0.0,0.0,0.0,0.0,0.0,0.0,0.0,0.0,0.0,0.0,0.0,0.0,0.0,0.0,0.0,0.0,0.0,0.0,0.0,0.0,0.0,0.0,0.0,0.0,0.0,0.0,0.0,0.0,0.0,0.0,0.0,0.0,0.0,0.0,0.0,0.0,0.0,0.0,0.0,0.0,0.0,0.0,0.0,0.0,0.0,0.0,0.0,0.0,0.0,0.0,0.0,0.0,0.0,0.0,0.0,0.0,0.0,0.0,0.0,0.0,0.0,0.0,0.0,0.0,0.0,0.0,0.0,0.0,0.0,0.0,0.0,0.0,0.0,0.0,0.0,0.0,0.0,0.0,0.0,0.0,0.0,0.0,0.0,0.0,0.0,0.0,0.0,0.0,0.0,0.0,0.0,0.0,0.0,0.0,0.0,0.0,0.0,0.0,0.0,0.0,0.0,0.0,0.0,0.0,0.0,0.0,0.0,0.0,0.0,0.0,0.0,0.0,0.0,0.0,0.0,0.0,0.0,0.0,0.0,0.0,0.0,0.0,0.0,0.0,0.0,0.0,0.0,0.0,0.0,0.0,0.0,0.0,0.0,0.0,0.0,0.0,0.0,0.0,0.0,0.0,0.0,0.0,0.0,0.0,0.0,0.0,0.0,0.0,0.0,0.0,0.0,0.0,0.0,0.0,0.0,0.0,0.0,0.0,0.0,0.0,0.0,0.0,0.0,0.0,0.0,0.0,0.0,0.0,0.0,0.0,0.0,0.0,0.0,0.0,0.0,0.0,0.0,0.0,0.0,0.0,0.0,0.0,0.0,0.0,0.0,0.0,0.0,0.0,0.0,0.0,0.0,0.0,0.0,0.0,0.0,0.0,0.0,0.0,0.0,0.0,0.0,0.0,0.0,0.0,0.0,0.0,0.0,0.0,0.0,0.0,0.0,0.0,0.0,0.0,0.0,0.0,0.0,0.0,0.0,0.0,0.0,0.0,0.0,0.0,0.0,0.0,0.0,0.0,0.0,0.0,0.0,0.0,0.0,0.0,0.0,0.0,0.0,0.0,0.0,0.0,0.0,0.0,0.0,0.0,0.0,0.0,0.0,0.0,0.0,0.0,0.0,0.0,0.0,0.0,0.0,0.0,0.0,0.0,0.0,0.0,0.0,0.0,0.0,0.0,0.0,0.0,0.0,0.0,0.0,0.0,0.0,0.0,0.0,0.0,0.0,0.0,0.0,0.0,0.0,0.0,0.0,0.0,0.0,0.0,0.0,0.0,0.0,0.0,0.0,0.0,0.0,0.0,0.0,0.0,0.0,0.0,0.0,0.0,0.0,0.0,0.0,0.0,0.0,0.0,0.0,0.0,0.0,0.0,0.0,0.0,0.0,0.0,0.0,0.0,0.0,0.0,0.0,0.0,0.0,0.0,0.0,0.0,0.0,0.0,0.0,0.0,0.0,0.0,0.0,0.0,0.0,0.0,0.0,0.0,0.0,0.0,0.0,0.0,0.0,0.0,0.0,0.0,0.0,0.0,0.0,0.0,0.0,0.0,0.0,0.0,0.0,-2.0835,0.0,0.0,0.0,0.0,0.0,0.0,0.0,0.0,0.0,0.0,0.0,0.0,0.0,0.0,0.0,0.0,0.0,0.0,0.0,0.0,0.0,0.0,0.0,0.0,0.0,0.0,0.0,0.0,0.0,0.0,0.0,0.0,0.0,0.0,0.0,0.0,0.0,0.0,0.0,0.0,0.0,0.0,0.0,0.0,0.0,0.0,0.0,0.0,0.0,0.0,0.0,0.0,0.0,0.0,0.0,0.0,0.0,0.0,0.0,0.0,0.0,0.0,0.0,0.0,0.0,0.0,0.0,0.0,0.0,0.0,0.0,0.0,0.0,0.0,0.0,0.0,0.0,0.0,0.0,0.0,0.0,0.0,0.0,0.0,0.0,0.0,0.0,0.0,0.0,0.0,0.0,0.0,0.0,0.0,0.0,0.0,0.0,0.0,0.0,0.0,0.0,0.0,0.0,0.0,0.0,0.0,0.0,0.0,0.0,0.0,-2.2925,-2.1944,-2.1272,-2.0376,-1.9247,0.0,0.0,0.0,0.0,0.0,0.0,0.0,0.0,0.0,0.0,0.0,0.0,0.0,0.0,0.0,0.0,0.0,0.0,0.0,0.0,0.0,0.0,0.0,0.0,0.0,0.0,0.0,0.0,0.0,0.0,0.0,0.0,0.0,0.0,0.0,0.0,0.0,0.0,0.0,0.0,0.0,0.0,0.0,0.0,0.0,0.0,0.0,0.0,0.0,0.0,0.0,0.0,0.0,0.0,0.0,0.0,0.0,0.0,0.0,0.0,0.0,0.0,0.0,0.0,0.0,0.0,0.0,0.0,0.0,0.0,0.0,0.0,0.0,0.0,0.0,0.0,0.0,0.0,0.0,0.0,0.0,0.0,0.0,0.0,0.0,0.0,0.0,0.0,0.0,0.0,0.0,0.0,0.0,0.0,0.0,0.0,0.0,0.0,0.0,0.0,0.0,0.0,0.0,0.0,0.0,0.0,0.0,0.0,0.0,0.0,0.0,0.0,-2.1904,-2.1325,-1.996,0.0,0.0,0.0,0.0,0.0,0.0,0.0,0.0,0.0,0.0,0.0,0.0,0.0,0.0,0.0,0.0,0.0,0.0,0.0,0.0,0.0,0.0,0.0,0.0,0.0,0.0,0.0,0.0,0.0,0.0,0.0,0.0,0.0,0.0,0.0,0.0,0.0,0.0,0.0,0.0,0.0,0.0,0.0,0.0,0.0,0.0,0.0,0.0,0.0,0.0,0.0,0.0,0.0,0.0,0.0,0.0,0.0,0.0,0.0,0.0,0.0,0.0,0.0,0.0,0.0,0.0,0.0,0.0,0.0,0.0,0.0,0.0,0.0,0.0,0.0,0.0,0.0,0.0,0.0,0.0,0.0,0.0,0.0,0.0,0.0,0.0,0.0,0.0,0.0,0.0,0.0,0.0,0.0,0.0,0.0,0.0,0.0,0.0,0.0,0.0,0.0,0.0,0.0,0.0,0.0,0.0,0.0,0.0,0.0,0.0,-2.1548,-2.6626,-2.5923,0.0,-2.5878,0.0,0.0,0.0,0.0,0.0,0.0,0.0,0.0,0.0,0.0,0.0,0.0,0.0,0.0,0.0,0.0,0.0,0.0,0.0,0.0,0.0,0.0,0.0,0.0,0.0,0.0,0.0,0.0,0.0,0.0,0.0,0.0,0.0,0.0,0.0,0.0,0.0,0.0,0.0,0.0,0.0,0.0,0.0,0.0,0.0,0.0,0.0,0.0,0.0,0.0,0.0,0.0,0.0,0.0,0.0,0.0,0.0,0.0,0.0,0.0,0.0,0.0,0.0,0.0,0.0,0.0,0.0,0.0,0.0,0.0,0.0,0.0,0.0,0.0,0.0,0.0,0.0,0.0,0.0,0.0,0.0,0.0,0.0,0.0,0.0,0.0,0.0,0.0,0.0,0.0,0.0,0.0,0.0,0.0,0.0,0.0,0.0,0.0,0.0,0.0,0.0,0.0,0.0,0.0,0.0,0.0,0.0,0.0,0.0,0.0,0.0,-2.5923,-2.4983,-2.4825,0.0,0.0,0.0,0.0,0.0,0.0,0.0,0.0,0.0,0.0,0.0,0.0,0.0,0.0,0.0,0.0,0.0,0.0,0.0,0.0,0.0,0.0,0.0,0.0,0.0,0.0,0.0,0.0,0.0,0.0,0.0,0.0,0.0,0.0,0.0,0.0,0.0,0.0,0.0,0.0,0.0,0.0,0.0,0.0,0.0,0.0,0.0,0.0,0.0,0.0,0.0,0.0,0.0,0.0,0.0,0.0,0.0,0.0,0.0,0.0,0.0,0.0,0.0,0.0,0.0,0.0,0.0,0.0,0.0,0.0,0.0,0.0,0.0,0.0,0.0,0.0,0.0,0.0,0.0,0.0,0.0,0.0,0.0,0.0,0.0,0.0,0.0,0.0,0.0,0.0,0.0,0.0,0.0,0.0,0.0,0.0,0.0,0.0,0.0,0.0,0.0,0.0,0.0,0.0,0.0,0.0,0.0,0.0,0.0,0.0,-2.4156,0.0,-2.6738,-2.6095,-2.5189,-2.4096,0.0,0.0,0.0,0.0,0.0,0.0,0.0,0.0,0.0,0.0,0.0,0.0,0.0,0.0,0.0,0.0,0.0,0.0,0.0,0.0,0.0,0.0,0.0,0.0,0.0,0.0,0.0,0.0,0.0,0.0,0.0,0.0,0.0,0.0,0.0,0.0,0.0,0.0,0.0,0.0,0.0,0.0,0.0,0.0,0.0,0.0,0.0,0.0,0.0,0.0,0.0,0.0,0.0,0.0,0.0,0.0,0.0,0.0,0.0,0.0,0.0,0.0,0.0,0.0,0.0,0.0,0.0,0.0,0.0,0.0,0.0,0.0,0.0,0.0,0.0,0.0,0.0,0.0,0.0,0.0,0.0,0.0,0.0,0.0,0.0,0.0,0.0,0.0,0.0,0.0,0.0,0.0,0.0,0.0,0.0,0.0,0.0,0.0,0.0,0.0,0.0,0.0,0.0,0.0,0.0,0.0,0.0,0.0,0.0,-2.6366,-2.6269,-3.1437,-3.14,-2.8475,0.0,0.0,0.0,0.0,0.0,0.0,0.0,0.0,0.0,0.0,0.0,0.0,0.0,0.0,0.0,0.0,0.0,0.0,0.0,0.0,0.0,0.0,0.0,0.0,0.0,0.0,0.0,0.0,0.0,0.0,0.0,0.0,0.0,0.0,0.0,0.0,0.0,0.0,0.0,0.0,0.0,0.0,0.0,0.0,0.0,0.0,0.0,0.0,0.0,0.0,0.0,0.0,0.0,0.0,0.0,0.0,0.0,0.0,0.0,0.0,0.0,0.0,0.0,0.0,0.0,0.0,0.0,0.0,0.0,0.0,0.0,0.0,0.0,0.0,0.0,0.0,0.0,0.0,0.0,0.0,0.0,0.0,0.0,0.0,0.0,0.0,0.0,0.0,0.0,0.0,0.0,0.0,0.0,0.0,0.0,0.0,0.0,0.0,0.0,0.0,0.0,0.0,0.0,0.0,0.0,0.0,0.0,0.0,0.0,-2.2198,-2.4232,-2.9641,0.0,-3.0859,-2.6944,0.0,0.0,0.0,0.0,0.0,0.0,0.0,0.0,0.0,0.0,0.0,0.0,0.0,0.0,0.0,0.0,0.0,0.0,0.0,0.0,0.0,0.0,0.0,0.0,0.0,0.0,0.0,0.0,0.0,0.0,0.0,0.0,0.0,0.0,0.0,0.0,0.0,0.0,0.0,0.0,0.0,0.0,0.0,0.0,0.0,0.0,0.0,0.0,0.0,0.0,0.0,0.0,0.0,0.0,0.0,0.0,0.0,0.0,0.0,0.0,0.0,0.0,0.0,0.0,0.0,0.0,0.0,0.0,0.0,0.0,0.0,0.0,0.0,0.0,0.0,0.0,0.0,0.0,0.0,0.0,0.0,0.0,0.0,0.0,0.0,0.0,0.0,0.0,0.0,0.0,0.0,0.0,0.0,0.0,0.0,0.0,0.0,0.0,0.0,0.0,0.0,0.0,0.0,0.0,0.0,0.0,0.0,0.0,0.0,-2.2311,0.0,-3.3797,0.0,-3.0845,-2.6007,0.0,0.0,0.0,0.0,0.0,0.0,0.0,0.0,0.0,0.0,0.0,0.0,0.0,0.0,0.0,0.0,0.0,0.0,0.0,0.0,0.0,0.0,0.0,0.0,0.0,0.0,0.0,0.0,0.0,0.0,0.0,0.0,0.0,0.0,0.0,0.0,0.0,0.0,0.0,0.0,0.0,0.0,0.0,0.0,0.0,0.0,0.0,0.0,0.0,0.0,0.0,0.0,0.0,0.0,0.0,0.0,0.0,0.0,0.0,0.0,0.0,0.0,0.0,0.0,0.0,0.0,0.0,0.0,0.0,0.0,0.0,0.0,0.0,0.0,0.0,0.0,0.0,0.0,0.0,0.0,0.0,0.0,0.0,0.0,0.0,0.0,0.0,0.0,0.0,0.0,0.0,0.0,0.0,0.0,0.0,0.0,0.0,0.0,0.0,0.0,0.0,0.0,0.0,0.0,0.0,0.0,0.0,0.0,-2.2381,-3.2989,-3.7885,-3.8024,-3.334,-3.1867,-2.604,0.0,0.0,0.0,0.0,0.0,0.0,0.0,0.0,0.0,0.0,0.0,0.0,0.0,0.0,0.0,0.0,0.0,0.0,0.0,0.0,0.0,0.0,0.0,0.0,0.0,0.0,0.0,0.0,0.0,0.0,0.0,0.0,0.0,0.0,0.0,0.0,0.0,0.0,0.0,0.0,0.0,0.0,0.0,0.0,0.0,0.0,0.0,0.0,0.0,0.0,0.0,0.0,0.0,0.0,0.0,0.0,0.0,0.0,0.0,0.0,0.0,0.0,0.0,0.0,0.0,0.0,0.0,0.0,0.0,0.0,0.0,0.0,0.0,0.0,0.0,0.0,0.0,0.0,0.0,0.0,0.0,0.0,0.0,0.0,0.0,0.0,0.0,0.0,0.0,0.0,0.0,0.0,0.0,0.0,0.0,0.0,0.0,0.0,0.0,0.0,0.0,0.0,0.0,0.0,0.0,0.0,0.0,0.0,0.0,-2.9589,-3.3826,-3.7817,-4.0938,-3.2199,-2.7746,0.0,0.0,0.0,0.0,0.0,0.0,0.0,0.0,0.0,0.0,0.0,0.0,0.0,0.0,0.0,0.0,0.0,0.0,0.0,0.0,0.0,0.0,0.0,0.0,0.0,0.0,0.0,0.0,0.0,0.0,0.0,0.0,0.0,0.0,0.0,0.0,0.0,0.0,0.0,0.0,0.0,0.0,0.0,0.0,0.0,0.0,0.0,0.0,0.0,0.0,0.0,0.0,0.0,0.0,0.0,0.0,0.0,0.0,0.0,0.0,0.0,0.0,0.0,0.0,0.0,0.0,0.0,0.0,0.0,0.0,0.0,0.0,0.0,0.0,0.0,0.0,0.0,0.0,0.0,0.0,0.0,0.0,0.0,0.0,0.0,0.0,0.0,0.0,0.0,0.0,0.0,0.0,0.0,0.0,0.0,0.0,0.0,0.0,0.0,0.0,0.0,0.0,0.0,0.0,0.0,0.0,0.0,0.0,0.0,-3.3506,-3.7695,-4.1332,-4.4237,-3.4507,-2.9712,-3.0497,0.0,0.0,0.0,0.0,0.0,0.0,0.0,0.0,0.0,0.0,0.0,0.0,0.0,0.0,0.0,0.0,0.0,0.0,0.0,0.0,0.0,0.0,0.0,0.0,0.0,0.0,0.0,0.0,0.0,0.0,0.0,0.0,0.0,0.0,0.0,0.0,0.0,0.0,0.0,0.0,0.0,0.0,0.0,0.0,0.0,0.0,0.0,0.0,0.0,0.0,0.0,0.0,0.0,0.0,0.0,0.0,0.0,0.0,0.0,0.0,0.0,0.0,0.0,0.0,0.0,0.0,0.0,0.0,0.0,0.0,0.0,0.0,0.0,0.0,0.0,0.0,0.0,0.0,0.0,0.0,0.0,0.0,0.0,0.0,0.0,0.0,0.0,0.0,0.0,0.0,0.0,0.0,0.0,0.0,0.0,0.0,0.0,0.0,0.0,0.0,0.0,0.0,0.0,0.0,0.0,0.0,0.0,0.0,-4.2986,-4.7862,-4.8124,-4.3595,-3.862,-3.2226,0.0,0.0,0.0,0.0,0.0,0.0,0.0,0.0,0.0,0.0,0.0,0.0,0.0,0.0,0.0,0.0,0.0,0.0,0.0,0.0,0.0,0.0,0.0,0.0,0.0,0.0,0.0,0.0,0.0,0.0,0.0,0.0,0.0,0.0,0.0,0.0,0.0,0.0,0.0,0.0,0.0,0.0,0.0,0.0,0.0,0.0,0.0,0.0,0.0,0.0,0.0,0.0,0.0,0.0,0.0,0.0,0.0,0.0,0.0,0.0,0.0,0.0,0.0,0.0,0.0,0.0,0.0,0.0,0.0,0.0,0.0,0.0,0.0,0.0,0.0,0.0,0.0,0.0,0.0,0.0,0.0,0.0,0.0,0.0,0.0,0.0,0.0,0.0,0.0,0.0,0.0,0.0,0.0,0.0,0.0,0.0,0.0,0.0,0.0,0.0,0.0,0.0,0.0,0.0,0.0,0.0,0.0,0.0,0.0,-4.6154,-5.0756,-5.2759,-5.1884,-4.3573,-3.7331,0.0,0.0,0.0,0.0,0.0,0.0,0.0,0.0,0.0,0.0,0.0,0.0,0.0,0.0,0.0,0.0,0.0,0.0,0.0,0.0,0.0,0.0,0.0,0.0,0.0,0.0,0.0,0.0,0.0,0.0,0.0,0.0,0.0,0.0,0.0,0.0,0.0,0.0,0.0,0.0,0.0,0.0,0.0,0.0,0.0,0.0,0.0,0.0,0.0,0.0,0.0,0.0,0.0,0.0,0.0,0.0,0.0,0.0,0.0,0.0,0.0,0.0,0.0,0.0,0.0,0.0,0.0,0.0,0.0,0.0,0.0,0.0,0.0,0.0,0.0,0.0,0.0,0.0,0.0,0.0,0.0,0.0,0.0,0.0,0.0,0.0,0.0,0.0,0.0,0.0,0.0,0.0,0.0,0.0,0.0,0.0,0.0,0.0,0.0,0.0,0.0,0.0,0.0,0.0,0.0,0.0,0.0,0.0,-4.2502,-4.9217,-5.3842,-5.6346,-5.652,-4.872,-4.2153,0.0,0.0,0.0,0.0,0.0,0.0,0.0,0.0,0.0,0.0,0.0,0.0,0.0,0.0,0.0,0.0,0.0,0.0,0.0,0.0,0.0,0.0,0.0,0.0,0.0,0.0,0.0,0.0,0.0,0.0,0.0,0.0,0.0,0.0,0.0,0.0,0.0,0.0,0.0,0.0,0.0,0.0,0.0,0.0,0.0,0.0,0.0,0.0,0.0,0.0,0.0,0.0,0.0,0.0,0.0,0.0,0.0,0.0,0.0,0.0,0.0,0.0,0.0,0.0,0.0,0.0,0.0,0.0,0.0,0.0,0.0,0.0,0.0,0.0,0.0,0.0,0.0,0.0,0.0,0.0,0.0,0.0,0.0,0.0,0.0,0.0,0.0,0.0,0.0,0.0,0.0,0.0,0.0,0.0,0.0,0.0,0.0,0.0,0.0,0.0,0.0,0.0,0.0,0.0,0.0,0.0,0.0,0.0,-4.611,-5.1955,-5.6722,-5.8949,-5.8242,-5.3279,-4.6323,0.0,0.0,0.0,0.0,0.0,0.0,0.0,0.0,0.0,0.0,0.0,0.0,0.0,0.0,0.0,0.0,0.0,0.0,0.0,0.0,0.0,0.0,0.0,0.0,0.0,0.0,0.0,0.0,0.0,0.0,0.0,0.0,0.0,0.0,0.0,0.0,0.0,0.0,0.0,0.0,0.0,0.0,0.0,0.0,0.0,0.0,0.0,0.0,0.0,0.0,0.0,0.0,0.0,0.0,0.0,0.0,0.0,0.0,0.0,0.0,0.0,0.0,0.0,0.0,0.0,0.0,0.0,0.0,0.0,0.0,0.0,0.0,0.0,0.0,0.0,0.0,0.0,0.0,0.0,0.0,0.0,0.0,0.0,0.0,0.0,0.0,0.0,0.0,0.0,0.0,0.0,0.0,0.0,0.0,0.0,0.0,0.0,0.0,0.0,0.0,0.0,0.0,0.0,0.0,0.0,0.0,0.0,0.0,-4.8068,-5.4358,-5.7634,-5.9549,-6.0092,-5.4033,-4.7319,0.0,0.0,0.0,0.0,0.0,0.0,0.0,0.0,0.0,0.0,0.0,0.0,0.0,0.0,0.0,0.0,0.0,0.0,0.0,0.0,0.0,0.0,0.0,0.0,0.0,0.0,0.0,0.0,0.0,0.0,0.0,0.0,0.0,0.0,0.0,0.0,0.0,0.0,0.0,0.0,0.0,0.0,0.0,0.0,0.0,0.0,0.0,0.0,-1.9098,0.0,0.0,0.0,0.0,0.0,0.0,0.0,0.0,0.0,0.0,0.0,0.0,0.0,0.0,0.0,0.0,0.0,0.0,0.0,0.0,0.0,0.0,0.0,0.0,0.0,0.0,0.0,0.0,0.0,0.0,0.0,0.0,0.0,0.0,0.0,0.0,0.0,0.0,0.0,0.0,0.0,0.0,0.0,0.0,0.0,0.0,0.0,0.0,0.0,0.0,0.0,0.0,0.0,0.0,0.0,0.0,0.0,0.0,0.0,-5.0212,-5.5926,-5.8657,-6.025,-6.0602,-5.6333,-5.0376,0.0,0.0,0.0,0.0,0.0,0.0,0.0,0.0,0.0,0.0,0.0,0.0,0.0,0.0,0.0,0.0,0.0,0.0,0.0,0.0,0.0,0.0,0.0,0.0,0.0,0.0,0.0,0.0,0.0,0.0,0.0,0.0,0.0,0.0,0.0,0.0,0.0,0.0,0.0,0.0,0.0,0.0,0.0,0.0,0.0,0.0,0.0,0.0,0.0,0.0,0.0,0.0,0.0,0.0,0.0,0.0,0.0,0.0,0.0,0.0,0.0,0.0,0.0,0.0,0.0,0.0,0.0,0.0,0.0,0.0,0.0,0.0,0.0,0.0,0.0,0.0,0.0,0.0,0.0,0.0,0.0,0.0,0.0,0.0,0.0,0.0,0.0,0.0,0.0,0.0,0.0,0.0,0.0,0.0,0.0,0.0,0.0,0.0,0.0,0.0,0.0,0.0,0.0,0.0,0.0,0.0,0.0,-4.5121,-5.1606,-5.7003,-5.9579,-6.0858,-6.0904,-5.8719,-5.3489,-4.5053,0.0,0.0,0.0,0.0,0.0,0.0,0.0,0.0,0.0,0.0,0.0,0.0,0.0,0.0,0.0,0.0,0.0,0.0,0.0,0.0,0.0,0.0,0.0,0.0,0.0,0.0,0.0,0.0,0.0,0.0,0.0,0.0,0.0,0.0,0.0,0.0,0.0,0.0,-2.3205,-2.4604,0.0,0.0,0.0,0.0,0.0,0.0,0.0,0.0,-2.3406,0.0,0.0,0.0,0.0,0.0,0.0,0.0,0.0,0.0,0.0,0.0,0.0,0.0,0.0,0.0,0.0,0.0,0.0,0.0,0.0,0.0,0.0,0.0,0.0,0.0,0.0,0.0,0.0,0.0,0.0,0.0,0.0,0.0,0.0,0.0,0.0,0.0,0.0,0.0,0.0,0.0,0.0,0.0,0.0,0.0,0.0,0.0,0.0,0.0,0.0,0.0,0.0,0.0,0.0,0.0,0.0,-4.1873,-4.4828,-5.0084,-5.7879,-5.9922,-6.0982,-6.1068,-5.8828,-5.3546,-4.5187,0.0,0.0,0.0,0.0,0.0,0.0,0.0,0.0,0.0,0.0,0.0,0.0,0.0,0.0,0.0,0.0,0.0,0.0,0.0,0.0,0.0,0.0,0.0,0.0,0.0,0.0,0.0,0.0,0.0,0.0,0.0,0.0,0.0,0.0,0.0,0.0,0.0,0.0,0.0,-2.7798,-2.9367,0.0,0.0,0.0,0.0,0.0,0.0,0.0,0.0,-2.5191,0.0,0.0,0.0,0.0,0.0,0.0,0.0,0.0,0.0,0.0,0.0,0.0,0.0,0.0,0.0,0.0,0.0,0.0,0.0,0.0,0.0,0.0,0.0,0.0,0.0,0.0,0.0,0.0,0.0,0.0,0.0,0.0,0.0,0.0,0.0,0.0,0.0,0.0,0.0,0.0,0.0,0.0,0.0,0.0,0.0,0.0,0.0,0.0,0.0,0.0,0.0,0.0,0.0,0.0,0.0,-4.01,-4.5163,-5.0874,-5.7483,-5.9012,-5.9781,-5.9856,-5.5878,-5.0672,0.0,0.0,0.0,0.0,0.0,0.0,0.0,0.0,0.0,0.0,0.0,0.0,0.0,0.0,0.0,0.0,0.0,0.0,0.0,0.0,0.0,0.0,0.0,0.0,0.0,0.0,0.0,0.0,0.0,0.0,0.0,0.0,0.0,0.0,0.0,0.0,0.0,0.0,0.0,0.0,-2.922,-3.1364,-3.3208,0.0,0.0,0.0,0.0,0.0,0.0,-2.834,-2.7762,0.0,0.0,0.0,0.0,0.0,0.0,0.0,0.0,0.0,0.0,0.0,0.0,0.0,0.0,0.0,0.0,0.0,0.0,0.0,0.0,0.0,0.0,0.0,0.0,0.0,0.0,0.0,0.0,0.0,0.0,0.0,0.0,0.0,0.0,0.0,0.0,0.0,0.0,0.0,0.0,0.0,0.0,0.0,0.0,0.0,0.0,0.0,0.0,0.0,0.0,0.0,0.0,0.0,0.0,0.0,-3.7943,-4.4877,-5.1222,-5.6888,-5.8101,-5.8669,-5.872,-5.3924,-4.8825,0.0,0.0,0.0,0.0,0.0,0.0,0.0,0.0,0.0,0.0,0.0,0.0,0.0,0.0,0.0,0.0,0.0,0.0,0.0,0.0,0.0,0.0,0.0,0.0,0.0,0.0,0.0,0.0,0.0,0.0,0.0,0.0,0.0,0.0,0.0,0.0,0.0,0.0,0.0,0.0,0.0,-3.3064,-3.6422,-3.3548,0.0,0.0,0.0,0.0,-3.0946,-3.1339,0.0,0.0,0.0,0.0,0.0,0.0,0.0,0.0,0.0,0.0,0.0,0.0,0.0,0.0,0.0,0.0,0.0,0.0,0.0,0.0,0.0,0.0,0.0,0.0,0.0,0.0,0.0,0.0,0.0,0.0,0.0,0.0,0.0,0.0,0.0,0.0,0.0,0.0,0.0,0.0,0.0,0.0,0.0,0.0,0.0,0.0,0.0,0.0,0.0,0.0,0.0,0.0,0.0,0.0,0.0,0.0,-3.7647,-4.251,-4.8853,-5.6578,-5.8044,-5.8692,-5.8859,-5.6842,-5.1586,0.0,0.0,0.0,0.0,0.0,0.0,0.0,0.0,0.0,0.0,0.0,0.0,0.0,0.0,0.0,0.0,0.0,0.0,0.0,0.0,0.0,0.0,0.0,0.0,0.0,0.0,0.0,0.0,0.0,0.0,0.0,0.0,0.0,0.0,0.0,0.0,0.0,0.0,0.0,0.0,0.0,-3.5411,-3.4317,-3.5103,-3.5339,0.0,0.0,0.0,-3.5027,-3.4755,0.0,0.0,0.0,0.0,0.0,0.0,0.0,0.0,0.0,0.0,0.0,0.0,0.0,0.0,0.0,0.0,0.0,0.0,0.0,0.0,0.0,0.0,0.0,0.0,0.0,0.0,0.0,0.0,0.0,0.0,0.0,0.0,0.0,0.0,0.0,0.0,0.0,0.0,0.0,0.0,0.0,0.0,0.0,0.0,0.0,0.0,0.0,0.0,0.0,0.0,0.0,0.0,0.0,0.0,0.0,-3.0048,-3.7779,-4.3967,-5.0067,-5.5989,-5.636,-5.6504,-5.6734,-5.2813,-4.7608,0.0,0.0,0.0,0.0,0.0,0.0,0.0,0.0,0.0,0.0,0.0,0.0,0.0,0.0,0.0,0.0,0.0,0.0,0.0,0.0,0.0,0.0,0.0,0.0,0.0,0.0,0.0,0.0,0.0,0.0,0.0,0.0,0.0,0.0,0.0,0.0,0.0,0.0,0.0,0.0,0.0,0.0,-3.6001,-3.7952,0.0,0.0,0.0,-3.7221,-3.721,0.0,0.0,0.0,0.0,0.0,0.0,0.0,0.0,0.0,0.0,0.0,0.0,0.0,0.0,0.0,0.0,0.0,0.0,0.0,0.0,0.0,0.0,0.0,0.0,0.0,0.0,0.0,0.0,0.0,0.0,0.0,0.0,0.0,0.0,0.0,0.0,0.0,0.0,0.0,0.0,0.0,0.0,0.0,0.0,0.0,0.0,0.0,0.0,0.0,0.0,0.0,0.0,0.0,0.0,0.0,0.0,0.0,-3.812,-4.5247,-5.1005,-5.517,-5.4749,-5.4523,-5.4695,-5.0059,0.0,0.0,0.0,0.0,0.0,0.0,0.0,0.0,0.0,0.0,0.0,0.0,0.0,0.0,0.0,0.0,0.0,0.0,0.0,0.0,0.0,0.0,0.0,0.0,0.0,0.0,0.0,-2.1918,0.0,0.0,0.0,0.0,0.0,0.0,0.0,0.0,0.0,0.0,0.0,0.0,0.0,0.0,-3.7006,-3.8615,-4.0851,-4.2202,0.0,0.0,-3.9988,-3.9134,-3.946,-3.7726,0.0,0.0,0.0,0.0,0.0,0.0,0.0,0.0,0.0,0.0,0.0,0.0,0.0,0.0,0.0,0.0,0.0,0.0,0.0,0.0,0.0,0.0,0.0,0.0,0.0,0.0,0.0,0.0,0.0,0.0,0.0,0.0,0.0,0.0,0.0,0.0,0.0,0.0,0.0,0.0,0.0,0.0,0.0,0.0,0.0,0.0,0.0,0.0,0.0,0.0,0.0,0.0,0.0,0.0,0.0,-3.8754,-4.495,-5.0181,-5.4293,-5.3944,-5.377,-5.3938,-5.2077,-4.7871,0.0,0.0,0.0,0.0,0.0,0.0,0.0,0.0,0.0,0.0,0.0,0.0,0.0,0.0,0.0,0.0,0.0,0.0,0.0,0.0,0.0,0.0,0.0,0.0,0.0,0.0,0.0,0.0,0.0,0.0,0.0,0.0,0.0,0.0,0.0,0.0,0.0,0.0,0.0,0.0,0.0,-3.9671,-4.1391,-4.3442,-4.4697,0.0,0.0,-4.1752,-4.1279,-4.0776,-3.8473,-3.2704,0.0,0.0,0.0,0.0,0.0,0.0,0.0,0.0,0.0,0.0,0.0,0.0,0.0,0.0,0.0,0.0,0.0,0.0,0.0,0.0,0.0,0.0,0.0,0.0,0.0,0.0,0.0,0.0,0.0,0.0,0.0,0.0,0.0,0.0,0.0,0.0,0.0,0.0,0.0,0.0,0.0,0.0,0.0,0.0,0.0,0.0,0.0,0.0,0.0,0.0,0.0,0.0,0.0,-3.2755,-3.886,-4.535,-5.0544,-5.4178,-5.3328,-5.2859,-5.3096,-5.1445,-4.7792,0.0,0.0,0.0,0.0,0.0,0.0,0.0,0.0,0.0,0.0,0.0,0.0,0.0,0.0,0.0,0.0,0.0,0.0,0.0,0.0,0.0,0.0,0.0,0.0,0.0,0.0,0.0,0.0,-2.8063,-2.836,-2.7911,0.0,0.0,0.0,0.0,0.0,0.0,0.0,0.0,0.0,0.0,-4.2366,-4.4243,-4.5236,0.0,0.0,-4.5023,-4.3638,-4.2922,-4.1269,-3.8594,-3.4255,-3.126,0.0,0.0,0.0,0.0,0.0,0.0,0.0,0.0,0.0,0.0,0.0,0.0,0.0,0.0,0.0,0.0,0.0,0.0,0.0,0.0,0.0,0.0,0.0,0.0,0.0,0.0,0.0,0.0,0.0,0.0,0.0,0.0,0.0,0.0,0.0,0.0,0.0,0.0,0.0,0.0,0.0,0.0,0.0,0.0,0.0,0.0,0.0,0.0,0.0,0.0,0.0,0.0,-3.3641,-3.9595,-4.5903,-5.0715,-5.3937,-5.2605,-5.1985,-5.2153,-5.0542,-4.7576,0.0,0.0,0.0,0.0,0.0,0.0,0.0,0.0,0.0,0.0,0.0,0.0,0.0,0.0,0.0,0.0,0.0,0.0,0.0,0.0,0.0,0.0,0.0,0.0,0.0,0.0,0.0,0.0,-2.9458,-2.9329,-2.7667,0.0,0.0,0.0,0.0,0.0,0.0,0.0,0.0,0.0,0.0,-4.536,-4.6952,-4.6748,-4.6817,-4.7847,-4.6337,-4.481,-4.4132,-4.2413,-3.994,-3.6158,0.0,0.0,0.0,0.0,0.0,0.0,0.0,0.0,0.0,0.0,0.0,0.0,0.0,0.0,0.0,0.0,0.0,0.0,0.0,0.0,0.0,0.0,0.0,0.0,0.0,0.0,0.0,0.0,0.0,0.0,0.0,0.0,0.0,0.0,0.0,0.0,0.0,0.0,0.0,0.0,0.0,0.0,0.0,0.0,0.0,0.0,0.0,0.0,0.0,0.0,0.0,0.0,0.0,0.0,-4.1301,-4.6595,-5.0507,-5.3022,-5.1818,-5.1211,-5.1305,-4.9706,-4.7556,-4.4826,0.0,0.0,0.0,0.0,0.0,0.0,0.0,0.0,0.0,0.0,0.0,0.0,0.0,0.0,0.0,0.0,0.0,0.0,0.0,0.0,0.0,0.0,0.0,0.0,0.0,0.0,-2.9005,-3.0325,-2.9862,0.0,0.0,0.0,0.0,0.0,0.0,0.0,0.0,0.0,0.0,-4.6947,-4.8706,-4.9473,-4.8014,-4.742,-4.8978,-4.6975,-4.5159,-4.4939,-4.4561,-4.2897,0.0,0.0,0.0,0.0,0.0,0.0,0.0,0.0,0.0,0.0,0.0,0.0,0.0,0.0,0.0,0.0,0.0,0.0,0.0,0.0,0.0,0.0,0.0,0.0,0.0,0.0,0.0,0.0,-2.834,0.0,0.0,0.0,0.0,0.0,0.0,0.0,0.0,0.0,0.0,0.0,-4.7003,-4.7952,0.0,0.0,0.0,0.0,0.0,0.0,0.0,0.0,0.0,0.0,0.0,0.0,-3.7153,-4.3101,-4.8355,-5.1712,-5.3099,-5.2376,-5.1767,-5.1297,-4.9683,-4.7036,-4.3278,0.0,0.0,0.0,0.0,0.0,0.0,0.0,0.0,0.0,0.0,0.0,0.0,0.0,0.0,0.0,0.0,0.0,0.0,0.0,0.0,0.0,0.0,0.0,0.0,0.0,-2.7574,0.0,0.0,0.0,0.0,0.0,0.0,0.0,0.0,0.0,0.0,0.0,-4.6014,-4.8079,-5.0431,-5.1664,-5.0875,-4.9634,-4.9355,0.0,0.0,0.0,0.0,0.0,0.0,0.0,0.0,0.0,0.0,0.0,0.0,0.0,0.0,-3.7313,-3.0693,-2.8809,-2.8667,-3.0038,0.0,0.0,0.0,0.0,0.0,0.0,0.0,0.0,0.0,0.0,0.0,0.0,0.0,0.0,0.0,0.0,-3.4429,0.0,0.0,0.0,0.0,0.0,0.0,0.0,0.0,-4.6889,-5.0448,-5.3183,-5.3892,-5.4021,0.0,-5.0434,-4.5555,0.0,0.0,0.0,0.0,0.0,0.0,0.0,0.0,-3.9882,-4.527,-4.9939,-5.2588,-5.3119,-5.266,-5.2056,-5.1301,-4.9665,-4.7199,-4.38,-4.2361,-4.1207,0.0,0.0,0.0,0.0,0.0,0.0,0.0,0.0,0.0,0.0,0.0,0.0,0.0,0.0,0.0,0.0,0.0,0.0,0.0,0.0,0.0,0.0,0.0,-2.7705,0.0,0.0,0.0,0.0,0.0,0.0,0.0,0.0,0.0,-4.8796,-5.0377,-5.1679,-5.3131,-5.4363,-5.459,-5.3085,0.0,0.0,0.0,0.0,0.0,0.0,0.0,-4.7319,-4.6795,-4.4997,-4.3559,-4.341,-4.4075,-4.4447,-4.3902,0.0,0.0,-3.7447,-3.5711,-3.5671,-3.6738,-3.7393,-3.8085,-3.914,-4.0393,-4.1396,0.0,0.0,0.0,0.0,0.0,0.0,0.0,0.0,-4.6638,-4.5983,0.0,-4.1747,0.0,0.0,0.0,0.0,0.0,0.0,0.0,0.0,-5.528,-5.8001,-5.7239,-5.7362,-5.781,-5.8408,-5.6822,-5.4372,-5.0868,-4.2527,0.0,0.0,0.0,0.0,0.0,0.0,-4.291,-4.7751,-5.1382,-5.3191,-5.3167,-5.272,-5.2115,-5.1301,-4.9687,-4.8001,-4.6401,-4.5427,-4.383,-4.1298,-3.7861,0.0,0.0,0.0,0.0,0.0,0.0,0.0,0.0,0.0,0.0,0.0,0.0,0.0,0.0,0.0,0.0,0.0,0.0,0.0,0.0,-2.7427,0.0,0.0,0.0,0.0,0.0,0.0,0.0,0.0,0.0,0.0,-5.6002,-5.6645,-5.7349,-5.9152,0.0,0.0,0.0,0.0,-5.1848,-5.2741,-5.1916,-5.1213,-5.1068,-5.1384,-5.0989,-4.9089,0.0,0.0,-4.6121,-4.6831,-4.739,-4.616,-4.7483,-4.8202,-4.6656,-4.4913,-4.44,-4.5332,-4.4683,-4.4613,-4.5399,-4.5905,-4.6674,-5.6309,0.0,0.0,0.0,0.0,-4.9999,-5.1085,-5.2851,-5.3921,-5.2431,-4.9093,-4.8476,0.0,0.0,0.0,0.0,0.0,0.0,-5.1769,-5.4852,-5.6781,-5.8434,-5.9834,-5.9401,-5.9249,-5.9318,-5.7743,-5.5959,-5.3944,-5.0799,-4.5027,-3.7067,0.0,0.0,0.0,0.0,-4.6839,-5.0484,-5.3558,-5.4786,-5.4111,-5.4209,-5.3316,-5.1425,-4.9713,-4.8276,-4.7187,-4.6315,-4.5204,-4.3754,-4.048,0.0,0.0,0.0,0.0,0.0,0.0,0.0,0.0,0.0,0.0,0.0,0.0,0.0,0.0,0.0,0.0,0.0,0.0,0.0,-2.9377,-2.8985,-3.0025,0.0,0.0,0.0,0.0,0.0,0.0,0.0,0.0,0.0,-5.8341,-5.9514,-5.9876,0.0,0.0,-5.9212,-5.7022,-5.5361,-5.4606,-5.5371,0.0,0.0,0.0,-5.2568,-5.193,-5.2371,-5.1925,-5.1338,-5.076,-5.043,-5.021,-5.0271,-5.0704,-5.0977,-5.0902,-4.8907,-4.7677,-4.8415,-4.7875,-4.7474,-4.8295,-4.8643,-4.8808,-6.2542,-5.8002,-5.5479,-5.4918,-5.5634,-5.5004,-5.5654,-5.722,-5.7642,-5.6591,-5.4577,-5.4011,-5.1961,-4.8907,-4.8568,0.0,0.0,0.0,-5.5715,-5.8732,-5.8431,-5.9074,-6.0433,-6.0118,-5.968,-5.9235,-5.7967,-5.6717,-5.5551,-5.4704,-5.0837,-4.4238,0.0,0.0,-4.4554,-4.7414,-5.0163,-5.2741,-5.4843,-5.547,-5.459,-5.4543,-5.3505,-5.1425,-4.969,-4.8214,-4.702,-4.582,-4.4896,-4.4281,-4.1632,-3.8947,0.0,0.0,0.0,0.0,0.0,0.0,0.0,0.0,0.0,0.0,0.0,-2.5969,-2.2129,0.0,0.0,0.0,-2.7675,-3.3134,-3.4068,-3.4071,0.0,0.0,0.0,0.0,0.0,0.0,0.0,-5.0199,-5.4543,-5.8242,-6.0272,-6.1518,-6.2062,-6.1753,-6.1259,-6.0333,-5.8899,0.0,-5.6646,-5.6787,-5.6197,-5.5584,-5.5088,-5.4256,-5.3818,-5.4215,-5.3492,-5.2777,-5.2657,-5.2389,-5.2413,-5.2831,-5.3207,-5.3582,-5.3952,-5.2317,-5.0939,-5.1204,-5.0794,-5.0557,-5.114,-5.1061,-5.1072,-6.6251,-6.506,-6.1335,-5.9665,-5.942,-5.869,-5.8784,-5.9403,-5.8815,-5.905,-5.9755,-5.8461,-5.7468,-5.6749,-5.6007,0.0,0.0,-5.85,-5.9551,-6.0973,-6.025,-5.9866,-5.9826,-5.9872,-5.943,-5.8575,-5.7782,-5.6975,-5.6173,-5.5446,-5.4032,-5.1957,-5.1231,-5.0798,-5.0685,-5.1582,-5.289,-5.4485,-5.5432,-5.5562,-5.4846,-5.4218,-5.3096,-5.1466,-4.9636,-4.7855,-4.6145,-4.4331,-4.3357,-4.3234,-4.1636,-3.9614,-3.7121,0.0,0.0,0.0,0.0,0.0,0.0,0.0,0.0,0.0,0.0,0.0,0.0,0.0,0.0,0.0,-3.4814,0.0,-3.9672,-4.1154,0.0,0.0,0.0,-4.7821,-5.0317,-5.3104,-5.4853,-5.4885,0.0,0.0,0.0,0.0,-6.3709,-6.4824,-6.2707,-6.1045,-6.1105,-5.9532,-5.8155,-5.7517,-5.7105,-5.6623,-5.5848,-5.5879,-5.5768,-5.5031,-5.4279,-5.3636,-5.3123,-5.3431,-5.398,-5.4209,-5.5039,-5.5642,-5.5689,-5.5051,-5.4606,-5.3584,-5.3313,-5.3382,-5.3529,-5.3298,-5.3286,-6.6251,-6.5322,-6.435,-6.3145,-6.1807,-6.1044,-6.0782,-6.0952,-6.0864,-6.0699,-6.0507,-6.0858,-6.0978,-6.0942,-6.0733,-6.1107,-6.1858,-6.1495,-6.1497,-6.1766,-6.1062,-6.043,-5.9907,-5.9904,-5.9127,-5.7763,-5.7497,-5.6702,-5.5408,-5.5244,-5.4976,-5.4575,-5.4445,-5.3454,-5.1698,-5.3114,-5.4385,-5.5404,-5.5721,-5.591,-5.589,-5.5172,-5.4008,-5.2302,-4.9332,-4.6906,-4.5172,-4.2817,-4.1513,-4.1431,-4.044,-3.9248,-3.788,-3.3622,0.0,0.0,0.0,0.0,0.0,0.0,0.0,0.0,0.0,-3.4394,-2.7969,0.0,-3.373,0.0,-3.9305,-4.8139,-4.4649,-4.4264,0.0,0.0,-5.1464,-5.2863,-5.6969,-5.8061,-5.8422,-5.8106,-6.0402,-6.217,-6.2559,-6.2447,-6.2667,-6.3496,-6.2839,-6.2032,-6.1353,-6.0284,-5.9436,-5.9169,-5.8081,-5.7131,-5.6868,-5.6258,-5.5819,-5.5648,-5.5385,-5.5209,-5.5292,-5.5272,-5.5308,-5.5435,-5.5548,-5.5718,-5.5833,-5.5833,-5.5821,-5.5454,-5.4467,-5.3822,-5.4616,-5.4408,-5.4262,-6.6746,-6.6528,-6.6028,-6.5045,-6.3729,-6.2529,-6.1964,-6.1927,-6.1616,-6.1367,-6.1225,-6.1843,-6.2266,-6.2456,-6.2783,-6.3078,-6.3238,-6.259,-6.2212,-6.2049,-6.102,-6.0291,-5.9921,-5.9921,-5.9033,-5.7422,-5.7434,-5.6633,-5.517,-5.5203,-5.5333,-5.5504,-5.5596,-5.4959,-5.3732,-5.4568,-5.5282,-5.5776,-5.595,-5.6133,-5.6277,-5.5861,-5.4477,-5.2042,-5.0051,-4.7642,-4.4812,-4.3211,-4.1905,-4.0764,-4.0198,-3.948,-3.8507,-3.5475,-3.3455,0.0,0.0,0.0,0.0,0.0,0.0,0.0,0.0,0.0,0.0,0.0,-3.9376,0.0,-4.6089,0.0,-5.0193,-5.0192,-5.1972,-5.5935,-5.5967,-5.6945,-6.0071,-6.0847,-6.1014,-6.0665,-6.1824,-6.2748,-6.2929,-6.2679,-6.2542,-6.291,-6.2731,-6.2292,-6.1555,-6.0963,-6.054,-6.0146,-5.9177,-5.8263,-5.7834,-5.6633,-5.5974,-5.64,-5.6216,-5.6088,-5.641,-5.6328,-5.6227,-5.6347,-5.6265,-5.6199,-5.6328,-5.6731,-5.7001,-5.6929,-5.6498,-5.615,-5.6304,-5.5648,-5.527,-6.7281,-6.7758,-6.683,-6.6011,-6.5241,-6.3624,-6.2833,-6.2625,-6.1936,-6.1825,-6.2106,-6.2294,-6.2506,-6.2829,-6.3446,-6.3647,-6.3426,-6.2736,-6.2303,-6.2012,-6.0596,-5.9902,-5.9921,-5.9807,-5.8919,-5.7422,-5.7362,-5.6563,-5.5146,-5.5229,-5.5313,-5.5351,-5.5476,-5.5504,-5.5478,-5.5514,-5.5661,-5.5914,-5.612,-5.6238,-5.6296,-5.631,-5.4699,-5.1532,-5.0895,-4.8753,-4.4782,-4.4187,-4.2977,-4.0903,-4.0647,-4.0221,-3.9303,-3.7576,-3.6479,0.0,-3.5217,0.0,0.0,0.0,0.0,0.0,0.0,0.0,0.0,-4.3469,-4.5235,-4.7507,-5.3105,-5.6243,-5.5288,-5.6462,-5.781,-5.9081,-5.9315,-5.9853,-6.101,-6.2045,-6.2583,-6.2526,-6.2646,-6.2785,-6.2844,-6.2809,-6.2598,-6.2331,-6.2281,-6.2057,-6.1677,-6.1564,-6.1328,-6.068,-6.0228,-5.9452,-5.8525,-5.7238,-5.6663,-5.7349,-5.7186,-5.6841,-5.7225,-5.7225,-5.7197,-5.7319,-5.7295,-5.7225,-5.7153,-5.7791,-5.8187,-5.8223,-5.8592,-5.8718,-5.8107,-5.7197,-5.6903,-6.7122,-6.7027,-6.6814,-6.6499,-6.6082,-6.5108,-6.4302,-6.363,-6.3481,-6.3572,-6.3778,-6.3407,-6.3647,-6.4269,-6.4422,-6.4443,-6.4294,-6.3001,-6.2285,-6.2049,-6.0646,-5.9931,-5.9864,-5.9238,-5.8388,-5.7418,-5.6831,-5.6031,-5.5127,-5.5242,-5.5045,-5.4553,-5.46,-5.4368,-5.3841,0.0,0.0,0.0,-5.6126,-5.6232,-5.6298,-5.624,-5.4925,-5.224,-4.9986,0.0,-4.4592,-4.2991,-4.1975,-4.1536,-4.1961,0.0,0.0,0.0,0.0,0.0,0.0,0.0,0.0,0.0,0.0,0.0,-4.4292,-4.4022,-4.4129,-4.6807,-4.9483,-5.1785,-5.5771,-5.7856,-5.6936,-5.7693,-5.8591,-5.9401,-5.9674,-6.0088,-6.0798,-6.1387,-6.2045,-6.294,-6.2026,-6.1392,-6.1578,-6.1328,-6.1144,-6.1132,-6.133,-6.154,-6.1467,-6.1724,-6.1805,-6.1522,-6.0814,-5.9962,-5.9023,-5.8583,-5.8381,-5.8888,-5.8925,-5.8888,-5.9061,-5.9079,-5.9038,-5.9072,-5.9074,-5.9019,-5.9019,-5.9297,-5.9465,-5.9447,-5.9729,-5.9834,-5.9361,-5.9074,-5.8929,-6.8149,0.0,-6.8194,-6.7804,0.0,-6.6315,-6.5469,-6.4662,-6.4105,-6.4063,-6.4346,-6.4125,-6.4329,-6.4798,-6.4833,-6.4797,-6.4669,-6.3179,-6.2421,-6.2173,-6.0692,-5.9966,-5.9883,-5.9086,-5.8237,-5.7365,-5.6234,-5.528,-5.4523,-5.4238,-5.3953,-5.3663,-5.3787,-5.3677,-5.335,-5.4225,-5.5128,-5.6003,-5.6094,-5.6182,-5.6257,-5.6144,-5.5079,-5.298,0.0,0.0,0.0,0.0,0.0,0.0,0.0,0.0,0.0,0.0,0.0,-4.2753,-4.2551,-4.2877,-4.3953,-4.4485,-4.5458,-4.7149,-4.7844,-4.8033,-4.7735,-5.0505,-5.2839,-5.4204,-5.6293,-5.7281,-5.6807,-5.7415,-5.823,-5.8943,-5.9113,-5.9612,-6.0652,-6.0518,-6.067,-6.1548,-6.144,-6.1164,-6.1027,-6.1023,-6.0959,-6.0866,-6.1015,-6.1268,-6.1489,-6.1834,-6.2042,-6.1822,-6.1061,-6.032,-5.9777,-5.9356,-5.9267,-5.9465,-5.9605,-5.9794,-6.0046,-6.0046,-6.0022,-6.0071,-6.0065,-5.9997,-6.0033,-6.0357,-6.0692,-6.0754,-6.1128,-6.1465,-6.1304,-6.0712,-6.0249,-6.9582,-7.0003,-6.9832,-6.9275,-6.8359,-6.7391,-6.6408,-6.5469,0.0,0.0,0.0,-6.4596,-6.4745,-6.4907,-6.4974,-6.4976,-6.481,-6.331,-6.2534,-6.2345,-6.0792,-5.9922,-5.9671,-5.8875,-5.8041,-5.7149,-5.5636,-5.4561,-5.3908,-5.3206,-5.2847,-5.2812,-5.2942,-5.308,-5.3154,-5.3928,-5.4821,-5.575,-5.5985,-5.6133,-5.6184,-5.6046,-5.5223,-5.3644,-5.3311,-5.2045,-4.9752,-4.9453,-4.8293,-4.6183,-4.601,-4.5773,-4.5327,-4.5107,-4.5778,-4.7446,-4.7224,-4.7365,-4.8154,-4.8072,-4.8245,-4.879,-5.0114,-5.103,-5.1281,-5.3524,-5.512,-5.5623,-5.5809,-5.5969,-5.6167,-5.6778,-5.7501,-5.8301,-5.8458,-5.9146,-6.0455,-5.9842,-5.9471,-6.0073,-6.0699,-6.099,-6.06,-6.0762,-6.0936,-6.0792,-6.0717,-6.0936,-6.1367,-6.1846,-6.215,-6.1896,-6.1371,-6.0901,-6.0665,-6.0377,-5.9987,-6.0324,-6.0457,-6.0634,-6.0853,-6.0901,-6.0948,-6.1143,-6.0948,-6.0956,-6.095,-6.1465,-6.1869,-6.1887,-6.2426,-6.3021,-6.3102,-6.2184,-6.1468,-7.0806,-7.0041,-7.0631,-7.0305,-6.933,-6.8378,-6.7095,-6.5627,-6.4703,-6.4346,-6.4405,-6.4708,-6.4853,-6.4907,-6.4974,-6.5008,-6.4858,-6.3324,-6.2566,0.0,-6.0951,-5.9775,-5.8934,-5.808,-5.7245,-5.6371,-5.4843,-5.4022,-5.3893,-5.32,-5.2533,-5.2034,-5.2055,-5.2174,-5.2351,-5.2492,-5.3348,-5.4928,-5.573,-5.6098,-5.6106,-5.5995,-5.544,-5.4467,-5.3509,-5.2554,-5.1489,-5.06,-5.0,-4.9701,-5.0076,-4.9603,-4.8091,-4.8277,-4.817,-4.7494,-4.7095,-4.7212,-4.7911,-4.797,-4.8522,-4.9714,-5.0691,-5.1733,-5.2963,-5.4186,-5.5166,-5.5753,-5.5018,-5.5025,-5.637,-5.663,-5.7004,-5.7865,-5.8554,-5.9115,-5.9571,-5.9589,-5.9494,-5.9515,-5.9609,-5.9833,-5.9795,-5.9796,-5.9816,-5.9702,-6.0024,-6.0283,-6.0709,-6.162,-6.2245,-6.2177,-6.2059,-6.1933,-6.1725,-6.1904,-6.193,-6.2313,-6.2371,-6.2468,-6.2706,-6.2682,-6.2617,-6.2783,-6.2654,-6.2691,-6.2704,-6.2865,-6.2925,-6.2931,-6.3215,-6.3488,-6.3557,-6.3334,-6.3149,-7.1901,-7.1046,-7.1177,-7.0688,-6.9661,-6.8648,-6.7551,-6.6405,-6.5538,-6.4935,-6.4596,-6.4725,-6.4852,-6.4919,-6.4567,-6.4424,-6.4378,-6.2799,-6.2006,-6.1802,-6.0285,-5.925,-5.8656,-5.7479,-5.6696,-5.6211,-5.4735,-5.3772,-5.3258,-5.2519,-5.1794,-5.1133,-5.1221,-5.1166,-5.0959,-5.1806,-5.2654,-5.3504,-5.4742,-5.5609,-5.607,-5.5524,-5.52,-5.5229,-5.3865,-5.3135,-5.3138,-5.2291,-5.1764,-5.1639,-5.1891,-5.157,-5.0653,-5.0535,-5.0096,-4.9058,-4.8624,-4.8244,-4.7868,-4.7872,-4.8219,-4.9029,-5.0082,-5.1252,-5.2478,-5.4008,-5.4958,-5.5161,-5.4625,-5.4636,-5.5441,-5.5841,-5.6272,-5.682,-5.8202,-5.9084,-5.9015,-5.9521,-5.9765,-5.9578,-5.9579,-5.9579,-5.9562,-5.9529,-5.9475,-5.9458,-5.9735,-6.0038,-6.0141,-6.0917,-6.1562,-6.166,-6.2,-6.23,-6.23,-6.2534,-6.2787,-6.2984,-6.3189,-6.3354,-6.3511,-6.347,-6.3515,-6.3515,-6.3561,-6.3587,-6.3565,-6.3587,-6.3587,-6.3606,-6.3654,-6.3783,-6.387,-6.4021,-6.3769,-7.2985,-7.2094,-7.1828,-7.1008,-6.9796,-6.8729,-6.782,-6.705,-6.62,-6.5445,-6.4836,-6.4797,-6.4791,-6.47,-6.419,-6.3886,-6.3566,-6.2251,-6.1439,-6.1065,-5.9659,-5.8724,-5.8179,-5.7006,-5.6335,-5.5945,-5.4555,-5.3429,-5.2698,-5.1787,-5.0956,-5.0314,-5.0257,-5.0078,-4.9847,-5.1101,-5.1955,-5.2466,-5.363,-5.4668,-5.547,-5.4905,-5.4901,-5.5363,-5.4407,-5.4026,-5.4534,-5.3796,-5.328,-5.3116,-5.3035,-5.2817,-5.2404,-5.2153,-5.1613,-5.0681,-4.9991,-4.9111,-4.7963,-4.7813,-4.8028,-4.8639,-4.96,-5.0785,-5.2151,-5.3641,-5.4618,-5.4639,-5.4635,-5.4568,-5.4719,-5.5122,-5.5605,-5.6109,-5.7333,-5.8348,-5.8767,-5.9604,-6.0084,-5.9877,-5.9796,-5.9765,-5.97,-5.965,-5.9599,-5.9569,-5.9851,-6.0062,-5.9857,-6.0329,-6.0928,-6.1006,-6.1567,-6.1977,-6.2205,-6.24,-6.2669,-6.3012,-6.329,-6.3497,-6.3674,-6.3848,-6.3848,-6.3848,-6.3891,-6.3894,-6.3894,-6.3873,-6.3894,-6.3894,-6.3937,-6.404,-6.4166,-6.4325,-6.4179,-7.401,-7.3092,-7.2716,-7.1501,-6.9662,-6.8791,-6.7959,-6.7127,-6.6333,-6.5611,-6.5012,-6.5095,-6.4709,-6.4076,-6.4081,-6.3683,-6.2953,-6.2032,-6.122,-6.0516,-5.9617,-5.8373,-5.7028,-5.6728,-5.6263,-5.5358,-5.3804,-5.3013,-5.2705,-5.1223,-5.0131,-4.9489,-4.8855,-4.8996,-4.9724,-4.9969,-5.0853,-5.2436,-5.257,-5.2988,-5.3728,-5.4376,-5.4657,-5.4621,-5.5177,-5.5459,-5.5404,-5.4649,-5.4215,-5.4219,-5.4087,-5.3569,-5.277,-5.2915,-5.2585,-5.153,-5.0269,-4.9034,-4.8034,-4.7829,-4.8346,-4.9528,-5.0005,-5.1043,-5.2857,-5.3443,-5.4016,-5.4633,-5.4742,-5.4726,-5.4856,-5.497,-5.5382,-5.6092,-5.5873,-5.6249,-5.8582,-5.9876,-6.0342,-6.0251,-6.0087,-6.0041,-5.996,-5.9931,-5.9801,-5.9583,-6.0003,-6.0115,-5.9427,-6.0162,-6.075,-6.0336,-6.0615,-6.0964,-6.1094,-6.1292,-6.1957,-6.2668,-6.296,-6.3359,-6.385,-6.4111,-6.4128,-6.4081,-6.4102,-6.4081,-6.4,-6.3915,-6.3979,-6.4125,-6.4206,-6.4306,-6.4501,-6.4577,-6.4426,-7.3955,-7.2532,-7.2174,-7.0872,-6.9058,-6.8092,-6.7581,-6.724,-6.6371,-6.5593,-6.4939,-6.4628,-6.4308,-6.3908,-6.3017,-6.2423,-6.2127,-6.1365,-6.0537,-5.9695,-5.8872,-5.7832,-5.6716,-5.616,-5.554,-5.4719,-5.4039,-5.3227,-5.2127,-5.0979,-4.9822,-4.8815,-4.8882,-4.9083,-4.9163,-4.9604,-5.049,-5.1741,-5.1725,-5.1824,-5.2123,-5.2879,-5.371,-5.4494,-5.441,-5.4794,-5.557,-5.5325,-5.5349,-5.5819,-5.5808,-5.551,-5.4928,-5.4952,-5.4198,-5.2549,-5.0913,-4.9665,-4.8851,-4.86,-4.8694,-4.9122,-5.0282,-5.1452,-5.252,-5.3603,-5.447,-5.4791,-5.4863,-5.4922,-5.5038,-5.5066,-5.5328,-5.5766,-5.5599,-5.6076,-5.7666,-5.8957,-5.9701,-5.9773,-6.0081,-6.0294,-6.0188,-6.0087,-5.9918,-5.9705,-5.9903,-5.9684,-5.9271,-5.9679,-5.9826,-5.9657,-5.9866,-6.0404,-6.0888,-6.1351,-6.1763,-6.22,-6.2805,-6.3408,-6.3615,-6.4199,-6.4405,-6.4287,-6.4345,-6.4385,-6.4406,-6.4346,-6.4345,-6.4424,-6.4463,-6.4558,-6.4652,-6.4726,-6.4745,-7.3727,-7.2389,-7.1541,-7.0052,-6.828,-6.758,-6.7202,-6.6973,-6.635,-6.5553,-6.4596,-6.3956,-6.3566,-6.3214,-6.2084,-6.1525,-6.133,-6.0597,-5.9773,-5.8904,-5.8081,-5.7225,-5.6339,-5.5581,-5.4906,-5.4308,-5.3846,-5.2894,-5.1414,-5.0577,-4.949,-4.839,-4.8682,-4.8723,-4.8414,-4.9153,-5.0051,-5.0867,-5.1098,-5.1312,-5.155,-5.2039,-5.3003,-5.421,-5.4181,-5.4649,-5.5779,-5.5787,-5.6139,-5.6904,-5.6917,-5.6789,-5.6534,-5.6416,-5.5428,-5.3376,-5.1684,-5.0464,-4.9779,-4.9366,-4.9166,-4.9266,-5.0566,-5.1595,-5.2311,-5.3603,-5.4572,-5.4886,-5.4971,-5.5066,-5.5189,-5.5236,-5.5376,-5.5618,-5.5714,-5.6141,-5.7174,-5.8324,-5.9277,-5.9776,-6.0334,-6.0493,-6.0293,-5.9938,-5.957,-5.9424,-5.9293,-5.9154,-5.9082,-5.9159,-5.9347,-5.9309,-5.9563,-6.0015,-6.0791,-6.098,-6.1299,-6.1786,-6.2328,-6.2797,-6.3199,-6.4065,-6.4594,-6.4482,-6.4614,-6.4671,-6.4671,-6.4671,-6.4708,-6.4797,-6.4813,-6.4697,-6.4467,-6.4579,-6.4696,-7.3495,-7.2908,-7.1123,-6.9211,-6.7534,-6.7421,-6.6949,-6.6194,-6.6171,-6.5365,-6.3946,-6.3161,-6.248,-6.1863,-6.1682,-6.1339,-6.0591,-5.976,-5.8973,-5.8184,-5.7378,-5.6529,-5.5712,-5.4923,-5.4521,-5.4223,-5.2895,-5.1661,-5.0617,-4.9815,-4.8962,-4.8268,-4.7842,-4.7501,-4.7762,-4.8584,-4.929,-5.024,-5.0925,-5.1624,-5.2276,-5.2419,-5.2822,-5.3603,-5.5064,-5.5833,-5.5975,-5.5913,-5.6261,-5.7061,-5.7022,-5.6851,-5.6652,-5.6671,-5.5734,-5.3889,-5.2491,-5.141,-5.0625,-5.0051,-4.9843,-5.0215,-5.0883,-5.1485,-5.2461,-5.3466,-5.4277,-5.4825,-5.5028,-5.5135,-5.5216,-5.5351,-5.5551,-5.5756,-5.5836,-5.6406,-5.7455,-5.8142,-5.9329,-6.0432,-6.0638,-6.0438,-6.0335,-5.9462,-5.8893,-5.8691,-5.8528,-5.8412,-5.8399,-5.8909,-5.9264,-5.9424,-5.9625,-5.996,-5.9796,-6.0221,-6.0652,-6.1102,-6.1611,-6.2034,-6.3096,-6.3989,-6.432,-6.4611,-6.4653,-6.4732,-6.4832,-6.4906,-6.4957,-6.5021,-6.4987,-6.4848,-6.4304,-6.4038,-6.3973,-7.1137,-6.9724,-6.8422,-6.7436,-6.6766,-6.6252,-6.5851,-6.5544,-6.5025,-6.4251,-6.3261,-6.2495,-6.1737,-6.0986,-6.0563,-6.0184,-5.9777,-5.8995,-5.8224,-5.7458,-5.7093,-5.6508,-5.5684,-5.4876,-5.4195,-5.36,-5.2531,-5.1501,-5.0702,-5.0317,-4.9833,-4.9208,-4.8921,-4.8856,-4.9055,-4.9371,-4.9978,-5.0769,-5.1122,-5.14,-5.1779,-5.2213,-5.263,-5.2918,-5.4484,-5.5571,-5.6056,-5.5999,-5.6585,-5.7921,-5.791,-5.7728,-5.7347,-5.6092,-5.4931,-5.4,-5.3283,-5.2506,-5.1711,-5.1483,-5.1361,-5.1415,-5.2148,-5.2779,-5.3408,-5.4111,-5.4715,-5.4976,-5.5113,-5.5176,-5.5229,-5.542,-5.5629,-5.5826,-5.5914,-5.6134,-5.6749,-5.7772,-5.8971,-5.9766,-5.9952,-5.984,-5.9517,-5.8739,-5.8067,-5.7928,-5.7854,-5.7778,-5.7716,-5.8046,-5.8369,-5.8334,-5.852,-5.8708,-5.8606,-5.9626,-6.0414,-6.0679,-6.1099,-6.1526,-6.2365,-6.2962,-6.3299,-6.366,-6.3984,-6.4517,-6.4581,-6.5028,-6.5095,-6.5169,-6.5146,-6.4638,-6.4127,-6.3604,-6.3144,-6.9171,-6.7623,-6.6896,-6.6421,-6.6042,-6.5503,-6.529,-6.5194,-6.4421,-6.3641,-6.2892,-6.2174,-6.1409,-6.0577,-5.963,-5.9144,-5.8992,-5.8295,-5.7604,-5.7065,-5.6746,-5.6293,-5.5696,-5.4886,-5.4071,-5.3225,-5.2136,-5.1288,-5.0806,-5.0718,-5.0336,-4.9641,-4.9704,-4.9632,-4.957,-4.9815,-5.033,-5.0815,-5.1098,-5.137,-5.1724,-5.223,-5.2693,-5.3049,-5.4041,-5.4943,-5.5728,-5.5707,-5.6424,-5.7863,-5.8075,-5.8,-5.773,-5.5795,-5.4451,-5.4126,-5.3794,-5.3357,-5.2745,-5.2585,-5.2489,-5.2454,-5.3135,-5.3765,-5.4019,-5.4651,-5.5028,-5.5104,-5.5181,-5.5242,-5.5339,-5.5523,-5.5714,-5.5846,-5.5952,-5.5987,-5.6119,-5.7714,-5.8904,-5.9485,-5.9596,-5.9331,-5.8808,-5.7919,-5.7387,-5.7196,-5.7137,-5.7047,-5.7017,-5.7369,-5.7663,-5.7657,-5.7992,-5.8215,-5.8316,-5.9069,-5.9671,-5.9976,-6.054,-6.0981,-6.1468,-6.1978,-6.2391,-6.2719,-6.3272,-6.3917,-6.4501,-6.5001,-6.5211,-6.5272,-6.484,-6.4307,-6.3681,-6.2983,-6.2399,-6.7768,-6.6916,-6.6892,-6.6274,-6.5577,-6.5522,-6.5425,-6.5154,-6.4456,-6.3646,-6.2826,-6.2241,-6.1464,-6.06,-5.9166,-5.8389,-5.8353,-5.7582,-5.7139,-5.6955,-5.624,-5.5873,-5.5738,-5.4897,-5.4004,-5.3128,-5.1612,-5.0868,-5.081,-5.0795,-5.0438,-4.9833,-4.9925,-4.9701,-4.8754,-4.9751,-5.0091,-5.0343,-5.0951,-5.165,-5.2465,-5.2454,-5.2793,-5.3525,-5.3738,-5.4176,-5.5054,-5.5073,-5.581,-5.7169,-5.7395,-5.7504,-5.7621,-5.6007,-5.473,-5.4443,-5.4074,-5.3869,-5.372,-5.3273,-5.322,-5.3337,-5.3713,-5.4061,-5.4274,-5.4802,-5.5168,-5.5165,-5.5222,-5.5333,-5.5507,-5.566,-5.5787,-5.5807,-5.5903,-5.6003,-5.639,-5.7976,-5.9514,-5.9737,-5.9547,-5.905,-5.8153,-5.7162,-5.6545,-5.6439,-5.635,-5.6259,-5.6354,-5.6891,-5.7548,-5.7729,-5.7662,-5.7629,-5.8057,-5.8509,-5.8832,-5.9204,-5.9849,-6.0418,-6.0885,-6.1381,-6.1644,-6.2032,-6.3136,-6.3804,-6.4577,-6.5042,-6.5306,-6.5287,-6.4657,-6.3977,-6.3364,-6.2614,-6.1492,-6.6847,-6.6049,-6.601,-6.5876,-6.5608,-6.5635,-6.5356,-6.4814,-6.4001,-6.3205,-6.2413,-6.1651,-6.1153,-6.0608,-5.9203,-5.8442,-5.8346,-5.7072,-5.6348,-5.6202,-5.5901,-5.5735,-5.5562,-5.4886,-5.3792,-5.2509,-5.1459,-5.0937,-5.0929,-5.0981,-5.0842,-5.0687,-5.0681,-5.0621,-5.0359,-5.0681,-5.0825,-5.087,-5.1122,-5.1444,-5.1713,-5.1765,-5.1935,-5.213,-5.2184,-5.2818,-5.4262,-5.486,-5.5632,-5.67,-5.7144,-5.7619,-5.7759,-5.669,-5.5519,-5.4862,-5.4969,-5.4703,-5.429,-5.4526,-5.4595,-5.4534,-5.4605,-5.4787,-5.4918,-5.5032,-5.5197,-5.5273,-5.5358,-5.5468,-5.5712,-5.5785,-5.5827,-5.5847,-5.594,-5.6003,-5.6263,-5.7714,-5.9271,-6.0191,-5.903,-5.7871,-5.742,-5.6524,-5.5804,-5.57,-5.5668,-5.5675,-5.5733,-5.6116,-5.6314,-5.6438,-5.6628,-5.6982,-5.7246,-5.7542,-5.787,-5.8296,-5.8932,-5.9611,-6.0145,-6.0634,-6.0917,-6.1657,-6.276,-6.3618,-6.4413,-6.4857,-6.501,-6.4886,-6.4188,-6.3584,-6.3069,-6.2153,-6.1014,-6.6301,-6.5795,-6.5776,-6.5788,-6.5814,-6.5858,-6.5421,-6.4636,-6.3804,-6.2959,-6.2163,-6.1353,-6.1008,-6.072,-5.9572,-5.8829,-5.8452,-5.7342,-5.6512,-5.5913,-5.5766,-5.5716,-5.563,-5.4948,-5.3928,-5.2687,-5.1865,-5.1347,-5.1056,-5.1094,-5.1119,-5.112,-5.1119,-5.1125,-5.1202,-5.1202,-5.1211,-5.1206,-5.1278,-5.1316,-5.134,-5.1379,-5.1394,-5.1441,-5.1714,-5.244,-5.353,-5.4605,-5.5583,-5.6269,-5.6744,-5.7314,-5.8077,-5.6875,-5.5673,-5.5222,-5.5173,-5.5074,-5.4662,-5.501,-5.5201,-5.4766,-5.4713,-5.4626,-5.458,-5.4452,-5.4631,-5.5282,-5.514,-5.5278,-5.5768,-5.5856,-5.5876,-5.5958,-5.5975,-5.6147,-5.6581,-5.7742,-5.87,-5.9195,-5.8182,-5.7221,-5.6585,-5.6098,-5.5395,-5.5345,-5.5351,-5.5425,-5.5449,-5.5646,-5.5738,-5.5865,-5.6205,-5.6388,-5.6315,-5.6575,-5.6909,-5.7392,-5.7941,-5.8613,-5.9205,-5.97,-6.0097,-6.1249,-6.2379,-6.2828,-6.3552,-6.3944,-6.4135,-6.3834,-6.3613,-6.2867,-6.2172,-6.1523,-6.0633,-6.6047,-6.6102,-6.6102,-6.6039,-6.6005,-6.608,-6.5506,-6.4579,-6.3861,-6.2987,-6.208,-6.1327,-6.103,-6.0838,-6.0065,-5.933,-5.873,-5.8201,-5.7419,-5.6425,-5.5962,-5.5807,-5.5691,-5.5027,-5.4183,-5.3351,-5.2639,-5.191,-5.1144,-5.1161,-5.1185,-5.1153,-5.119,-5.1205,-5.1206,-5.1208,-5.1208,-5.124,-5.1272,-5.1335,-5.1403,-5.1527,-5.1543,-5.1574,-5.2342,-5.291,-5.3397,-5.4683,-5.5746,-5.628,-5.6342,-5.6908,-5.7611,-5.6505,-5.5574,-5.526,-5.5085,-5.5057,-5.4975,-5.4876,-5.4718,-5.425,-5.4106,-5.3878,-5.3432,-5.3432,-5.3825,-5.4835,-5.458,-5.4748,-5.5586,-5.576,-5.5797,-5.5968,-5.5985,-5.6391,-5.7271,-5.7972,-5.8206,-5.7967,-5.7381,-5.676,-5.6027,-5.56,-5.548,-5.543,-5.5361,-5.5255,-5.5401,-5.5478,-5.576,-5.5821,-5.5796,-5.5808,-5.5729,-5.5368,-5.5702,-5.6265,-5.6814,-5.7438,-5.8432,-5.9072,-5.9842,-6.0983,-6.1851,-6.227,-6.2675,-6.3159,-6.337,-6.3279,-6.2744,-6.1922,-6.1409,-6.0998,-6.0609,-6.608,-6.6102,-6.6163,-6.6194,-6.6225,-6.6245,-6.5403,-6.4125,-6.3864,-6.2936,-6.166,-6.1206,-6.1118,-6.103,-6.0265,-5.9768,-5.9359,-5.8338,-5.7907,-5.7669,-5.6405,-5.5924,-5.5712,-5.5064,-5.4321,-5.3591,-5.2906,-5.2033,-5.1229,-5.1263,-5.1256,-5.1248,-5.1256,-5.1239,-5.122,-5.1244,-5.1267,-5.1269,-5.1356,-5.1413,-5.1581,-5.2102,-5.2362,-5.2441,-5.3202,-5.3963,-5.457,-5.5623,-5.6227,-5.6416,-5.6889,-5.6846,-5.6686,-5.6496,-5.6121,-5.5572,-5.5375,-5.5288,-5.5167,-5.4658,-5.425,-5.4177,-5.3624,-5.3302,-5.3213,-5.3105,-5.33,-5.3633,-5.3505,-5.4105,-5.5364,-5.5364,-5.5148,-5.5262,-5.5702,-5.635,-5.6997,-5.6966,-5.7037,-5.7956,-5.7033,-5.6212,-5.5821,-5.5596,-5.5504,-5.5474,-5.5098,-5.4748,-5.4997,-5.4902,-5.4996,-5.5109,-5.5122,-5.5164,-5.5024,-5.4534,-5.4553,-5.5094,-5.5641,-5.6192,-5.7474,-5.8819,-5.9813,-6.0967,-6.1555,-6.2035,-6.2305,-6.2674,-6.2689,-6.2586,-6.2137,-6.1496,-6.1404,-6.1113,-6.0705,-6.6254,-6.6273,-6.6273,-6.6301,-6.6348,-6.6348,-6.5573,-6.4507,-6.4277,-6.334,-6.2014,-6.1706,-6.1493,-6.1143,-6.0704,-6.0284,-5.9921,-5.9318,-5.8704,-5.7749,-5.6585,-5.596,-5.5797,-5.5415,-5.4921,-5.4135,-5.3411,-5.265,-5.1869,-5.1502,-5.1336,-5.1307,-5.1333,-5.1316,-5.1261,-5.1281,-5.1514,-5.1785,-5.1901,-5.2049,-5.2511,-5.2968,-5.3183,-5.3418,-5.4099,-5.4958,-5.5781,-5.6265,-5.6471,-5.65,-5.6736,-5.6662,-5.6085,-5.6271,-5.602,-5.509,-5.4986,-5.4954,-5.4543,-5.3999,-5.364,-5.3378,-5.2888,-5.2578,-5.2314,-5.2238,-5.2184,-5.2064,-5.2424,-5.3369,-5.4448,-5.4949,-5.5251,-5.5417,-5.5306,-5.5572,-5.6288,-5.6151,-5.6465,-5.6942,-5.6618,-5.5865,-5.5705,-5.5607,-5.5607,-5.5476,-5.4927,-5.4697,-5.463,-5.435,-5.4153,-5.4262,-5.4328,-5.4335,-5.4284,-5.3892,-5.371,-5.42,-5.4851,-5.5296,-5.6667,-5.8285,-5.9389,-6.0373,-6.112,-6.1666,-6.1846,-6.1895,-6.1703,-6.1548,-6.1322,-6.1251,-6.114,-6.1147,-6.0757,-6.6445,-6.6489,-6.6431,-6.6414,-6.6414,-6.6387,-6.5885,-6.5164,-6.4982,-6.4103,-6.2863,-6.2545,-6.2041,-6.1363,-6.1231,-6.0848,-6.0236,-6.0456,-5.9404,-5.809,-5.6895,-5.6446,-5.6244,-5.6079,-5.5449,-5.4626,-5.4125,-5.3261,-5.2298,-5.1616,-5.1386,-5.134,-5.1364,-5.1372,-5.133,-5.1327,-5.1784,-5.2369,-5.2477,-5.2904,-5.3573,-5.3963,-5.4117,-5.4234,-5.4978,-5.5721,-5.6289,-5.6535,-5.6487,-5.6432,-5.6354,-5.6259,-5.6043,-5.5965,-5.5225,-5.4184,-5.4147,-5.3965,-5.3415,-5.3106,-5.2668,-5.2187,-5.1916,-5.1559,-5.0939,-5.0867,-5.101,-5.1112,-5.1606,-5.2449,-5.3485,-5.4813,-5.552,-5.5536,-5.4677,-5.4459,-5.473,-5.5521,-5.6029,-5.6012,-5.5951,-5.5856,-5.5756,-5.5662,-5.5671,-5.563,-5.4907,-5.4227,-5.3972,-5.3649,-5.3486,-5.3436,-5.3463,-5.3441,-5.3371,-5.325,-5.3216,-5.3414,-5.4138,-5.487,-5.6089,-5.7494,-5.8654,-5.964,-6.0479,-6.0967,-6.1161,-6.1074,-6.0933,-6.0942,-6.1007,-6.0885,-6.075,-6.0865,-6.0704,-6.6489,-6.6495,-6.6526,-6.6565,-6.6538,-6.6489,-6.6,-6.5208,-6.5195,-6.4607,-6.3618,-6.2848,-6.2449,-6.223,-6.1597,-6.1205,-6.0917,-6.0619,-5.9583,-5.8699,-5.8343,-5.7753,-5.7125,-5.6548,-5.5404,-5.4416,-5.3987,-5.3114,-5.1974,-5.1597,-5.1391,-5.1379,-5.1377,-5.1391,-5.1371,-5.1402,-5.1799,-5.2526,-5.2673,-5.3124,-5.3955,-5.4571,-5.4857,-5.4935,-5.5729,-5.6306,-5.6504,-5.6535,-5.6497,-5.6464,-5.6386,-5.6255,-5.611,-5.5557,-5.4865,-5.4188,-5.3242,-5.2993,-5.3046,-5.1739,-5.0782,-5.1134,-5.0291,-4.9329,-4.9318,-4.9831,-5.0402,-5.0875,-5.124,-5.1877,-5.3247,-5.4325,-5.5026,-5.5167,-5.523,-5.4882,-5.4396,-5.5188,-5.5722,-5.6036,-5.5982,-5.5931,-5.5847,-5.5747,-5.5708,-5.5624,-5.4853,-5.3802,-5.3335,-5.3025,-5.2725,-5.2565,-5.2554,-5.2524,-5.2411,-5.2342,-5.2326,-5.2558,-5.327,-5.4099,-5.5337,-5.6575,-5.7668,-5.8798,-5.9929,-6.0278,-6.0534,-6.0762,-6.0734,-6.0746,-6.0781,-6.0804,-6.0816,-6.0804,-6.0619,-6.6549,-6.6594,-6.6588,-6.6588,-6.6586,-6.6546,-6.6271,-6.5868,-6.5825,-6.5332,-6.4458,-6.3561,-6.2987,-6.2582,-6.1779,-6.1359,-6.1179,-6.0506,-5.9878,-5.9255,-5.8672,-5.7935,-5.7521,-5.6673,-5.5586,-5.4494,-5.404,-5.3161,-5.2225,-5.1594,-5.1384,-5.1387,-5.1387,-5.1386,-5.14,-5.1405,-5.1874,-5.2519,-5.2691,-5.3104,-5.3953,-5.4384,-5.4928,-5.515,-5.5741,-5.6128,-5.6541,-5.6578,-5.6527,-5.6484,-5.6406,-5.6334,-5.6169,-5.5442,-5.4671,-5.3747,-5.26,-5.1758,-5.1404,-5.0393,-4.9498,-4.996,-4.9102,-4.8865,-4.8748,-4.9146,-4.9925,-5.0733,-5.1,-5.1289,-5.3262,-5.4235,-5.4738,-5.5191,-5.5219,-5.4705,-5.3831,-5.372,-5.4606,-5.5423,-5.5715,-5.5755,-5.5745,-5.5808,-5.5827,-5.5798,-5.4524,-5.351,-5.3089,-5.2682,-5.1889,-5.1614,-5.1621,-5.157,-5.1468,-5.1393,-5.1327,-5.1674,-5.229,-5.3127,-5.4143,-5.5387,-5.6601,-5.7848,-5.9086,-5.9725,-6.0027,-6.0258,-6.0565,-6.0827,-6.0932,-6.095,-6.0796,-6.0478,-6.0294,-6.6657,-6.6712,-6.6643,-6.662,-6.6626,-6.6613,-6.6546,-6.6504,-6.6516,-6.5914,-6.5164,-6.4309,-6.3383,-6.2657,-6.1776,-6.1426,-6.1206,-6.0798,-6.0344,-6.0169,-5.8713,-5.8111,-5.7684,-5.6878,-5.5906,-5.5084,-5.4284,-5.3377,-5.2393,-5.1814,-5.1406,-5.1385,-5.1402,-5.1385,-5.1385,-5.1441,-5.1829,-5.2574,-5.2667,-5.305,-5.3796,-5.4024,-5.4411,-5.5081,-5.5591,-5.6002,-5.6479,-5.6582,-5.6554,-5.6502,-5.6559,-5.6569,-5.6305,-5.5489,-5.46,-5.3375,-5.2217,-5.1141,-5.0358,-4.927,-4.8551,-4.8594,-4.8354,-4.8298,-4.8287,-4.8421,-4.8961,-4.973,-5.0259,-5.1308,-5.3372,-5.4083,-5.4918,-5.552,-5.5075,-5.4306,-5.3505,-5.2274,-5.3521,-5.4878,-5.5586,-5.5781,-5.5877,-5.5973,-5.5965,-5.5743,-5.4422,-5.3398,-5.3003,-5.2427,-5.1722,-5.1154,-5.1215,-5.1145,-5.1024,-5.1037,-5.0903,-5.1037,-5.1556,-5.2257,-5.3114,-5.4162,-5.5453,-5.7016,-5.8138,-5.8778,-5.931,-5.9514,-5.9949,-6.0643,-6.0604,-6.0152,-6.0026,-6.0043,-5.9852,-6.6683,-6.6702,-6.6692,-6.668,-6.6671,-6.6614,-6.6528,-6.6579,-6.6443,-6.6074,-6.5206,-6.4409,-6.347,-6.2659,-6.1771,-6.1428,-6.1322,-6.1109,-6.1031,-6.072,-5.9322,-5.8506,-5.8092,-5.7,-5.5964,-5.5096,-5.4309,-5.3276,-5.207,-5.1464,-5.1404,-5.1395,-5.1387,-5.1389,-5.1393,-5.1444,-5.1785,-5.2372,-5.2498,-5.2903,-5.3572,-5.3915,-5.4305,-5.5136,-5.5703,-5.6213,-5.6472,-5.654,-5.6503,-5.6545,-5.7192,-5.7444,-5.7189,-5.6042,-5.5127,-5.4225,-5.245,-5.0926,-5.0049,-4.8621,-4.7886,-4.7563,-4.7245,-4.6855,-4.6958,-4.7325,-4.7805,-4.8339,-4.9988,-5.1838,-5.3405,-5.3933,-5.4626,-5.5423,-5.5648,-5.5149,-5.4591,-5.4103,-5.3613,-5.4456,-5.5193,-5.5899,-5.6024,-5.6083,-5.6059,-5.5822,-5.4937,-5.3942,-5.334,-5.2659,-5.1893,-5.1382,-5.0979,-5.0846,-5.0711,-5.0779,-5.0769,-5.0682,-5.1049,-5.1481,-5.2279,-5.3056,-5.4297,-5.6014,-5.7181,-5.7869,-5.8314,-5.8681,-5.9065,-5.9573,-5.9379,-5.9166,-5.926,-5.9307,-5.9011,-6.676,-6.6748,-6.6722,-6.6434,-6.6065,-6.5991,-6.5706,-6.5336,-6.5297,-6.507,-6.4518,-6.3803,-6.3194,-6.2587,-6.1817,-6.1415,-6.1407,-6.1393,-6.114,-6.0526,-5.9438,-5.8525,-5.8163,-5.6903,-5.5989,-5.5252,-5.4649,-5.3677,-5.2166,-5.1599,-5.1458,-5.1385,-5.1392,-5.1392,-5.1392,-5.1391,-5.1598,-5.1937,-5.1982,-5.2321,-5.3193,-5.3563,-5.4301,-5.5058,-5.5594,-5.6035,-5.6491,-5.6572,-5.6542,-5.6696,-5.7331,-5.7931,-5.7873,-5.7237,-5.6051,-5.4964,-5.2812,-5.0982,-5.0033,-4.855,-4.7614,-4.7441,-4.6775,-4.6344,-4.6364,-4.6676,-4.7087,-4.8289,-5.0542,-5.2906,-5.3731,-5.4043,-5.4879,-5.5676,-5.5708,-5.5283,-5.4994,-5.4813,-5.4529,-5.4192,-5.4879,-5.565,-5.6148,-5.6178,-5.6141,-5.5761,-5.5257,-5.4506,-5.3685,-5.2922,-5.2129,-5.1443,-5.1062,-5.1238,-5.1077,-5.1047,-5.0928,-5.0774,-5.0652,-5.1077,-5.1616,-5.2461,-5.3683,-5.5234,-5.616,-5.6958,-5.7527,-5.7962,-5.8244,-5.8509,-5.8661,-5.8735,-5.8661,-5.8525,-5.8114,-6.6558,-6.6533,-6.6471,-6.5952,-6.5264,-6.5345,-6.4936,-6.4221,-6.4143,-6.4056,-6.3746,-6.3171,-6.2751,-6.2355,-6.1841,-6.1395,-6.1388,-6.1271,-6.0701,-6.0079,-5.8991,-5.8156,-5.756,-5.6798,-5.6066,-5.5619,-5.5165,-5.4328,-5.2772,-5.2066,-5.1649,-5.1437,-5.1401,-5.1374,-5.1369,-5.1333,-5.1303,-5.1261,-5.1258,-5.1648,-5.2485,-5.3356,-5.4222,-5.5069,-5.5322,-5.5883,-5.6436,-5.6557,-5.6576,-5.6816,-5.7379,-5.8111,-5.857,-5.8181,-5.7073,-5.5383,-5.305,-5.1465,-5.0251,-4.8867,-4.7871,-4.7538,-4.6933,-4.6581,-4.6308,-4.6562,-4.7185,-4.9333,-5.1857,-5.3883,-5.4247,-5.4641,-5.531,-5.5858,-5.5648,-5.5159,-5.5299,-5.5314,-5.5281,-5.5133,-5.519,-5.5456,-5.6026,-5.6246,-5.6211,-5.6124,-5.5629,-5.4657,-5.3867,-5.3207,-5.2409,-5.1552,-5.1248,-5.1636,-5.1672,-5.1574,-5.1397,-5.1146,-5.0842,-5.0865,-5.1347,-5.1951,-5.3259,-5.4469,-5.5294,-5.607,-5.6671,-5.7144,-5.7331,-5.7622,-5.8086,-5.8134,-5.7753,-5.7275,-5.6795,-6.5702,-6.5634,-6.5632,-6.5145,-6.4495,-6.5035,-6.4874,-6.4077,-6.396,-6.3629,-6.2956,-6.2868,-6.2387,-6.182,-6.155,-6.1396,-6.1227,-6.0812,-6.039,-5.9924,-5.8778,-5.7988,-5.7496,-5.6781,-5.6441,-5.6028,-5.5602,-5.4329,-5.3105,-5.2594,-5.2055,-5.1562,-5.1386,-5.1385,-5.1326,-5.1292,-5.1263,-5.1225,-5.1229,-5.1661,-5.2502,-5.3385,-5.43,-5.5073,-5.5814,-5.6299,-5.6464,-5.6528,-5.6548,-5.6699,-5.7441,-5.7887,-5.7929,-5.7877,-5.7297,-5.5962,-5.4111,-5.2156,-5.1185,-4.9802,-4.8535,-4.8066,-4.7577,-4.7067,-4.6914,-4.6813,-4.7845,-5.0898,-5.3025,-5.4243,-5.4822,-5.5112,-5.5617,-5.5959,-5.6049,-5.5862,-5.5919,-5.5351,-5.5376,-5.5571,-5.5466,-5.5598,-5.5942,-5.613,-5.6259,-5.6193,-5.5894,-5.4943,-5.401,-5.3285,-5.2582,-5.1691,-5.1472,-5.1847,-5.2239,-5.2139,-5.1819,-5.1538,-5.1235,-5.0845,-5.1097,-5.1653,-5.2453,-5.3583,-5.4425,-5.5138,-5.5672,-5.6075,-5.6339,-5.6662,-5.7022,-5.6887,-5.6557,-5.6058,-5.5553,-6.4384,-6.4759,-6.4772,-6.4271,-6.3569,-6.3867,-6.3501,-6.2863,-6.2691,-6.2492,-6.2169,-6.2145,-6.1909,-6.1548,-6.1464,-6.1434,-6.1318,-6.0954,-6.0526,-6.0118,-5.9205,-5.8435,-5.7716,-5.7262,-5.6972,-5.6359,-5.6009,-5.5125,-5.3847,-5.2867,-5.2267,-5.1518,-5.138,-5.1379,-5.13,-5.1243,-5.1235,-5.1327,-5.1606,-5.2041,-5.2688,-5.3702,-5.4663,-5.5103,-5.5992,-5.6383,-5.6491,-5.6499,-5.6516,-5.6732,-5.7439,-5.7871,-5.7868,-5.7819,-5.7555,-5.7185,-5.5321,-5.3578,-5.2193,-5.0946,-4.9937,-4.91,-4.8668,-4.8375,-4.8242,-4.8142,-4.8899,-5.1834,-5.4179,-5.5269,-5.5378,-5.5684,-5.5723,-5.5894,-5.5989,-5.5531,-5.5409,-5.5457,-5.5277,-5.5505,-5.5578,-5.5283,-5.5234,-5.5682,-5.589,-5.6058,-5.5934,-5.5368,-5.4258,-5.3191,-5.2478,-5.1742,-5.179,-5.2068,-5.2488,-5.2677,-5.2214,-5.1924,-5.1776,-5.1404,-5.101,-5.1431,-5.2401,-5.2938,-5.3588,-5.4216,-5.4731,-5.5404,-5.6005,-5.6006,-5.5928,-5.5765,-5.555,-5.495,-5.4513,-6.3043,-6.3578,-6.3806,-6.341,-6.2655,-6.2793,-6.2473,-6.1751,-6.1716,-6.165,-6.1611,-6.1635,-6.1597,-6.1524,-6.1512,-6.1478,-6.1408,-6.1214,-6.0727,-6.0241,-5.9555,-5.8648,-5.7787,-5.7398,-5.6933,-5.6394,-5.6426,-5.5634,-5.451,-5.3475,-5.2561,-5.1457,-5.1403,-5.1353,-5.1296,-5.1263,-5.123,-5.1233,-5.1686,-5.2218,-5.2904,-5.3958,-5.4808,-5.5473,-5.6022,-5.6453,-5.6488,-5.6514,-5.6552,-5.672,-5.7099,-5.7439,-5.7441,-5.74,-5.7352,-5.7045,-5.5879,-5.4836,-5.35,-5.2314,-5.1389,-5.0459,-4.9604,-4.9136,-5.0117,-4.9844,-5.0546,-5.322,-5.5078,-5.5777,-5.5667,-5.584,-5.5505,-5.5408,-5.545,-5.4795,-5.4236,-5.4305,-5.4514,-5.4767,-5.4563,-5.3803,-5.403,-5.4896,-5.5417,-5.5806,-5.578,-5.559,-5.463,-5.3395,-5.2624,-5.204,-5.231,-5.2396,-5.2374,-5.2602,-5.2321,-5.2254,-5.2114,-5.1876,-5.1443,-5.1812,-5.2748,-5.3065,-5.3134,-5.3577,-5.425,-5.4996,-5.5637,-5.5222,-5.4871,-5.4844,-5.4558,-5.3935,-5.3364,-6.1836,-6.1952,-6.2756,-6.2593,-6.1872,-6.259,-6.2418,-6.1721,-6.1691,-6.1685,-6.167,-6.158,-6.1493,-6.1564,-6.1514,-6.1487,-6.1458,-6.065,-6.0365,-5.9685,-5.8648,-5.8111,-5.7546,-5.7088,-5.6624,-5.6453,-5.6487,-5.6026,-5.5194,-5.4276,-5.2971,-5.1635,-5.1539,-5.1404,-5.1526,-5.173,-5.1663,-5.1627,-5.1808,-5.2432,-5.3176,-5.4035,-5.4711,-5.5916,-5.6351,-5.6491,-5.6484,-5.6558,-5.6589,-5.66,-5.6624,-5.6844,-5.6892,-5.6738,-5.6677,-5.6665,-5.6534,-5.568,-5.4767,-5.3423,-5.2245,-5.1164,-5.0317,-5.0033,-5.1346,-5.1385,-5.2516,-5.4551,-5.5994,-5.6026,-5.5646,-5.5285,-5.5133,-5.4582,-5.4479,-5.4211,-5.3615,-5.3143,-5.3392,-5.3844,-5.3578,-5.284,-5.2806,-5.3671,-5.4838,-5.5306,-5.5747,-5.5596,-5.4963,-5.3889,-5.3057,-5.2598,-5.2888,-5.2801,-5.2202,-5.2259,-5.2537,-5.2462,-5.2251,-5.2079,-5.1808,-5.2434,-5.315,-5.2993,-5.3021,-5.3379,-5.3546,-5.3778,-5.3907,-5.3888,-5.3825,-5.3818,-5.3584,-5.3042,-5.2343,-6.1699,-6.1737,-6.2064,-6.2003,-6.171,-6.2022,-6.1983,-6.1732,-6.1715,-6.1668,-6.1586,-6.1089,-6.1104,-6.1451,-6.1524,-6.1489,-6.1448,-6.1149,-6.0657,-6.0151,-5.9419,-5.8571,-5.7939,-5.7279,-5.7002,-5.6595,-5.6515,-5.6146,-5.5291,-5.4861,-5.4204,-5.3129,-5.211,-5.2272,-5.2469,-5.2689,-5.2694,-5.2737,-5.2744,-5.3233,-5.3557,-5.4309,-5.4883,-5.5448,-5.6279,-5.6418,-5.6511,-5.6575,-5.6606,-5.6495,-5.613,-5.6253,-5.6455,-5.6189,-5.6211,-5.6478,-5.6525,-5.6311,-5.5772,-5.4368,-5.2877,-5.1746,-5.1313,-5.1693,-5.2752,-5.2929,-5.4003,-5.5468,-5.634,-5.6193,-5.5471,-5.5232,-5.4931,-5.394,-5.344,-5.3351,-5.3,-5.2473,-5.2298,-5.2758,-5.2481,-5.1903,-5.2085,-5.2446,-5.3691,-5.4793,-5.5255,-5.5535,-5.5025,-5.4564,-5.379,-5.3204,-5.3417,-5.3311,-5.2743,-5.2781,-5.2925,-5.2714,-5.2473,-5.2336,-5.2292,-5.2875,-5.3388,-5.3125,-5.2803,-5.2932,-5.2788,-5.2325,-5.2463,-5.3063,-5.3058,-5.2824,-5.2503,-5.2152,-5.1633,-6.1701,-6.1705,-6.1701,-6.1698,-6.1701,-6.1707,-6.1707,-6.1647,-6.1397,-6.1281,-6.1205,-6.0602,-6.0796,-6.1393,-6.1554,-6.1519,-6.1509,-6.1359,-6.0882,-6.0306,-5.9658,-5.8912,-5.7992,-5.7307,-5.6893,-5.6578,-5.6518,-5.6205,-5.58,-5.5467,-5.5105,-5.4326,-5.3191,-5.3182,-5.3436,-5.3842,-5.3813,-5.3803,-5.3816,-5.3988,-5.4177,-5.4659,-5.524,-5.551,-5.6135,-5.6398,-5.6475,-5.6542,-5.6577,-5.643,-5.6222,-5.613,-5.6175,-5.6183,-5.6112,-5.6366,-5.6573,-5.6541,-5.6087,-5.4903,-5.344,-5.2579,-5.2309,-5.312,-5.4003,-5.4219,-5.4609,-5.6171,-5.6532,-5.6169,-5.5218,-5.4747,-5.4,-5.293,-5.2676,-5.253,-5.2161,-5.1694,-5.1592,-5.1632,-5.1437,-5.1608,-5.2563,-5.3035,-5.3908,-5.4983,-5.5467,-5.5757,-5.5594,-5.5161,-5.4723,-5.4204,-5.3916,-5.3686,-5.3359,-5.3562,-5.3677,-5.3298,-5.3063,-5.2832,-5.2914,-5.3369,-5.3248,-5.2732,-5.2466,-5.2407,-5.2139,-5.1733,-5.2106,-5.2689,-5.2418,-5.2023,-5.1808,-5.1508,-5.124,-6.1704,-6.1715,-6.1705,-6.1698,-6.1703,-6.1702,-6.1704,-6.16,-6.0884,-6.0595,-6.0685,-6.048,-6.0828,-6.1441,-6.1588,-6.1573,-6.1544,-6.1529,-6.1075,-6.0258,-5.9507,-5.8544,-5.7707,-5.7065,-5.6699,-5.6572,-5.6543,-5.6539,-5.6445,-5.5856,-5.5789,-5.5679,-5.4567,-5.3838,-5.3923,-5.3903,-5.3861,-5.3833,-5.3894,-5.4305,-5.4696,-5.4944,-5.5332,-5.5961,-5.6202,-5.6387,-5.6457,-5.6498,-5.6536,-5.648,-5.6287,-5.6276,-5.6463,-5.6369,-5.6361,-5.6543,-5.66,-5.657,-5.6399,-5.4869,-5.4018,-5.358,-5.3291,-5.3748,-5.4667,-5.4804,-5.4824,-5.6484,-5.6597,-5.5769,-5.4849,-5.4005,-5.312,-5.2296,-5.204,-5.1878,-5.155,-5.1386,-5.1349,-5.1443,-5.1498,-5.176,-5.2976,-5.3944,-5.4566,-5.5243,-5.5722,-5.5901,-5.5869,-5.5681,-5.5301,-5.5088,-5.4665,-5.4299,-5.4127,-5.4376,-5.4375,-5.3962,-5.3441,-5.2995,-5.2937,-5.321,-5.2925,-5.2348,-5.2075,-5.1922,-5.1578,-5.12,-5.1369,-5.1437,-5.1544,-5.1297,-5.1091,-5.0742,-5.0332,-6.1705,-6.1717,-6.1705,-6.1698,-6.1703,-6.1702,-6.1705,-6.1543,-6.086,-6.0712,-6.1052,-6.0701,-6.0859,-6.14,-6.1592,-6.1583,-6.1578,-6.1559,-6.111,-6.0234,-5.9401,-5.8561,-5.7736,-5.7037,-5.6564,-5.6569,-5.6609,-5.6657,-5.6562,-5.6166,-5.6255,-5.6183,-5.5482,-5.4875,-5.4959,-5.51,-5.5394,-5.4792,-5.4672,-5.476,-5.497,-5.5042,-5.5398,-5.6255,-5.6297,-5.6334,-5.6405,-5.6441,-5.6468,-5.6439,-5.6227,-5.6123,-5.6354,-5.6302,-5.6101,-5.6424,-5.6601,-5.6558,-5.6312,-5.543,-5.4599,-5.429,-5.4275,-5.4531,-5.5193,-5.5683,-5.6094,-5.6347,-5.6464,-5.5563,-5.4464,-5.4105,-5.3281,-5.197,-5.1577,-5.1552,-5.1386,-5.1386,-5.1416,-5.1612,-5.1736,-5.2836,-5.3998,-5.4575,-5.519,-5.5547,-5.5976,-5.6033,-5.602,-5.596,-5.5743,-5.5741,-5.549,-5.5056,-5.4862,-5.4976,-5.4633,-5.4026,-5.3301,-5.26,-5.2699,-5.2961,-5.2466,-5.1811,-5.1613,-5.1395,-5.0846,-5.0337,-5.0045,-5.0012,-5.0207,-5.0449,-5.0389,-4.9795,-4.9061,-6.1707,-6.1701,-6.1705,-6.1698,-6.1703,-6.1702,-6.1552,-6.1198,-6.0668,-6.0735,-6.1024,-6.0636,-6.0847,-6.1389,-6.1586,-6.1592,-6.1592,-6.1571,-6.1149,-6.0272,-5.9424,-5.8597,-5.7811,-5.7281,-5.6894,-5.6797,-5.6904,-5.699,-5.6637,-5.6614,-5.6584,-5.6387,-5.5959,-5.5701,-5.5693,-5.5762,-5.556,-5.5121,-5.5155,-5.5475,-5.5489,-5.5508,-5.5663,-5.611,-5.6283,-5.6317,-5.6354,-5.6378,-5.6386,-5.6239,-5.6104,-5.5922,-5.6179,-5.6194,-5.6014,-5.6435,-5.6601,-5.658,-5.6343,-5.6168,-5.5487,-5.5156,-5.5271,-5.5424,-5.5675,-5.6149,-5.6385,-5.6503,-5.6269,-5.5312,-5.4254,-5.3975,-5.3015,-5.1705,-5.1402,-5.1396,-5.1394,-5.1392,-5.1661,-5.1859,-5.2392,-5.3642,-5.482,-5.5255,-5.5715,-5.598,-5.6238,-5.6187,-5.6133,-5.6082,-5.602,-5.599,-5.5949,-5.5562,-5.5354,-5.5463,-5.4955,-5.4151,-5.3372,-5.2615,-5.228,-5.2456,-5.1877,-5.1293,-5.0967,-5.0553,-4.9909,-4.9445,-4.9278,-4.909,-4.9042,-4.9294,-4.9571,-4.8949,-4.8069,-6.1709,-6.1707,-6.1709,-6.1701,-6.1705,-6.1702,-6.1263,-6.0505,-6.0502,-6.0511,-6.051,-6.0615,-6.0961,-6.1514,-6.1603,-6.1591,-6.1582,-6.1596,-6.1159,-6.0442,-5.9733,-5.8861,-5.834,-5.7943,-5.7473,-5.7232,-5.7201,-5.7245,-5.6692,-5.6587,-5.6554,-5.6453,-5.6179,-5.5977,-5.5814,-5.5569,-5.522,-5.52,-5.543,-5.5631,-5.559,-5.5784,-5.5888,-5.6129,-5.6253,-5.6296,-5.6325,-5.6328,-5.6339,-5.6333,-5.6383,-5.6425,-5.6482,-5.6478,-5.6528,-5.6571,-5.6601,-5.6582,-5.6562,-5.6426,-5.6404,-5.6029,-5.5712,-5.5923,-5.6095,-5.6273,-5.6137,-5.5872,-5.5465,-5.4726,-5.3964,-5.3239,-5.2514,-5.1864,-5.1442,-5.1398,-5.1398,-5.157,-5.1898,-5.2279,-5.2818,-5.3862,-5.513,-5.5758,-5.5837,-5.6129,-5.6259,-5.6204,-5.6153,-5.6141,-5.607,-5.5979,-5.5957,-5.5924,-5.5761,-5.5392,-5.495,-5.4039,-5.359,-5.293,-5.2548,-5.1949,-5.1442,-5.0917,-5.0317,-4.9633,-4.8675,-4.846,-4.8649,-4.8434,-4.8125,-4.8345,-4.8691,-4.8028,-4.7359,-6.1715,-6.1714,-6.1701,-6.1713,-6.1715,-6.1705,-6.1535,-6.134,-6.1324,-6.1319,-6.1323,-6.133,-6.1429,-6.1664,-6.1615,-6.1599,-6.1588,-6.1561,-6.149,-6.0939,-6.0255,-5.9915,-5.9493,-5.8953,-5.8284,-5.7822,-5.7672,-5.7539,-5.677,-5.6561,-5.6519,-5.6452,-5.6062,-5.5763,-5.5554,-5.5249,-5.5153,-5.5132,-5.5411,-5.5467,-5.545,-5.547,-5.5724,-5.6063,-5.6246,-5.6304,-5.6297,-5.6284,-5.63,-5.6344,-5.6359,-5.6392,-5.6482,-5.6501,-5.6539,-5.6571,-5.6566,-5.6531,-5.6574,-5.655,-5.6545,-5.6541,-5.6196,-5.6265,-5.6238,-5.5909,-5.5543,-5.5191,-5.4561,-5.3767,-5.334,-5.2754,-5.2148,-5.1715,-5.1415,-5.1391,-5.139,-5.1485,-5.1872,-5.2563,-5.3103,-5.4089,-5.5357,-5.5638,-5.5728,-5.61,-5.62,-5.6032,-5.6003,-5.5928,-5.5928,-5.5807,-5.5444,-5.5268,-5.4992,-5.4633,-5.4375,-5.3971,-5.3466,-5.2928,-5.2348,-5.1719,-5.1133,-5.0322,-4.9395,-4.8285,-4.7125,-4.7274,-4.7823,-4.7518,-4.7264,-4.7535,-4.763,-4.7119,-4.6695,-6.1715,-6.1716,-6.1708,-6.1701,-6.1699,-6.1704,-6.1707,-6.1709,-6.1715,-6.1713,-6.1707,-6.1676,-6.1701,-6.1705,-6.166,-6.1619,-6.1584,-6.1584,-6.1537,-6.1368,-6.0824,-6.0425,-6.0102,-5.982,-5.891,-5.8409,-5.8024,-5.7851,-5.6904,-5.6543,-5.6491,-5.6452,-5.5849,-5.5699,-5.5663,-5.571,-5.561,-5.5508,-5.5472,-5.5331,-5.5308,-5.5308,-5.5753,-5.6061,-5.6245,-5.6258,-5.6265,-5.6265,-5.6259,-5.6284,-5.629,-5.6338,-5.6441,-5.648,-5.6524,-5.6558,-5.6528,-5.6515,-5.6536,-5.6523,-5.6543,-5.6441,-5.6202,-5.5955,-5.576,-5.5432,-5.5034,-5.4604,-5.3668,-5.288,-5.2633,-5.2362,-5.1914,-5.1465,-5.1424,-5.1402,-5.14,-5.1398,-5.1959,-5.2713,-5.3535,-5.4446,-5.5089,-5.5297,-5.5278,-5.5102,-5.5003,-5.4943,-5.5087,-5.5299,-5.5373,-5.5393,-5.4856,-5.442,-5.4155,-5.3916,-5.3648,-5.3391,-5.3043,-5.2505,-5.2003,-5.1167,-5.0244,-4.925,-4.8233,-4.7284,-4.6505,-4.6664,-4.6989,-4.6738,-4.6634,-4.6802,-4.6897,-4.6651,-4.629,-6.1713,-6.1717,-6.1712,-6.1707,-6.1699,-6.1701,-6.1705,-6.171,-6.1716,-6.1717,-6.1715,-6.1707,-6.1713,-6.1701,-6.1685,-6.1657,-6.1604,-6.1588,-6.1576,-6.1598,-6.1052,-6.0715,-6.0668,-6.0386,-5.9595,-5.884,-5.8337,-5.8125,-5.6959,-5.6514,-5.6491,-5.6488,-5.6351,-5.6218,-5.6158,-5.6092,-5.6006,-5.5945,-5.592,-5.5909,-5.5899,-5.6024,-5.6133,-5.6172,-5.6214,-5.6228,-5.6216,-5.6209,-5.6218,-5.6228,-5.6251,-5.6284,-5.6378,-5.6453,-5.6508,-5.652,-5.6511,-5.6509,-5.6408,-5.6316,-5.6238,-5.5994,-5.5603,-5.5085,-5.4738,-5.453,-5.4115,-5.3747,-5.2891,-5.2436,-5.2154,-5.1946,-5.1577,-5.1423,-5.1405,-5.1387,-5.1386,-5.1483,-5.187,-5.2645,-5.3508,-5.4326,-5.4449,-5.4632,-5.4652,-5.4177,-5.4066,-5.4113,-5.4113,-5.4459,-5.4569,-5.4675,-5.4116,-5.3573,-5.3443,-5.3209,-5.2939,-5.2679,-5.2397,-5.1896,-5.1265,-5.0307,-4.9243,-4.8233,-4.7265,-4.6858,-4.6348,-4.6362,-4.6347,-4.6422,-4.6309,-4.618,-4.6105,-4.5971,-4.6039,-6.1717,-6.1699,-6.1717,-6.1712,-6.1708,-6.1712,-6.1714,-6.1716,-6.1698,-6.1698,-6.1716,-6.1714,-6.1708,-6.1713,-6.1701,-6.166,-6.1618,-6.1591,-6.1595,-6.1621,-6.1322,-6.1197,-6.1273,-6.1034,-6.0241,-5.9387,-5.8807,-5.8162,-5.6889,-5.6494,-5.6465,-5.6431,-5.6388,-5.6372,-5.6319,-5.6251,-5.6213,-5.6199,-5.6285,-5.6233,-5.6173,-5.6156,-5.6184,-5.6222,-5.625,-5.6311,-5.6279,-5.6218,-5.6218,-5.6233,-5.6214,-5.6278,-5.6367,-5.6453,-5.6491,-5.6485,-5.6482,-5.6498,-5.6351,-5.6083,-5.5825,-5.5397,-5.4816,-5.3997,-5.3471,-5.3319,-5.3081,-5.2734,-5.2381,-5.2028,-5.1746,-5.154,-5.1391,-5.1394,-5.1395,-5.14,-5.1384,-5.1601,-5.1836,-5.2534,-5.3383,-5.3647,-5.3754,-5.3813,-5.3884,-5.3869,-5.3866,-5.3794,-5.3432,-5.351,-5.3482,-5.3489,-5.3133,-5.2737,-5.2626,-5.2488,-5.223,-5.1925,-5.1624,-5.1092,-5.0486,-4.9457,-4.835,-4.7298,-4.6407,-4.6209,-4.5968,-4.5604,-4.5644,-4.575,-4.5654,-4.5389,-4.5394,-4.5317,-4.5603,-6.1716,-6.1698,-6.1717,-6.1716,-6.1713,-6.1713,-6.1716,-6.1698,-6.1699,-6.1699,-6.1699,-6.1717,-6.1713,-6.1702,-6.1713,-6.1693,-6.1631,-6.1618,-6.1625,-6.1648,-6.1651,-6.1624,-6.1605,-6.1292,-6.0221,-5.929,-5.8262,-5.7353,-5.6604,-5.6485,-5.6476,-5.6393,-5.6377,-5.6339,-5.6277,-5.6239,-5.6216,-5.6218,-5.6443,-5.6604,-5.6599,-5.6687,-5.7017,-5.7048,-5.6943,-5.6804,-5.6529,-5.6416,-5.6128,-5.6133,-5.6137,-5.6218,-5.6321,-5.6407,-5.6453,-5.6473,-5.6496,-5.6488,-5.6312,-5.6002,-5.558,-5.5229,-5.4787,-5.4232,-5.3511,-5.3301,-5.2524,-5.2161,-5.1869,-5.1497,-5.1523,-5.1377,-5.139,-5.1394,-5.14,-5.1385,-5.1391,-5.1475,-5.1619,-5.1874,-5.2377,-5.2431,-5.2483,-5.2474,-5.253,-5.2525,-5.2687,-5.2799,-5.2577,-5.2635,-5.2558,-5.2465,-5.2212,-5.1977,-5.1853,-5.1708,-5.1535,-5.1206,-5.1006,-5.0006,-4.9235,-4.8401,-4.746,-4.6721,-4.6202,-4.6003,-4.5699,-4.5215,-4.476,-4.474,-4.4623,-4.4462,-4.4546,-4.4565,-4.4411,-6.1712,-6.1716,-6.1717,-6.1717,-6.1717,-6.1713,-6.1716,-6.1699,-6.1699,-6.1699,-6.1698,-6.1699,-6.1716,-6.171,-6.1702,-6.1705,-6.1685,-6.1651,-6.167,-6.1676,-6.1651,-6.1456,-6.1143,-6.0767,-5.9834,-5.8807,-5.7752,-5.7117,-5.6506,-5.6482,-5.6444,-5.6383,-5.6342,-5.6302,-5.6278,-5.6233,-5.619,-5.6397,-5.6726,-5.7329,-5.7492,-5.7586,-5.7951,-5.8078,-5.7899,-5.74,-5.7074,-5.6622,-5.6093,-5.604,-5.6086,-5.6148,-5.6226,-5.6333,-5.6432,-5.6459,-5.6468,-5.6455,-5.6354,-5.609,-5.5905,-5.5675,-5.5141,-5.4369,-5.3521,-5.2821,-5.2046,-5.1697,-5.1409,-5.1303,-5.131,-5.1343,-5.1358,-5.1394,-5.1379,-5.1388,-5.1396,-5.1402,-5.1437,-5.1464,-5.1484,-5.1522,-5.1478,-5.1433,-5.1382,-5.1347,-5.1361,-5.1349,-5.1444,-5.1736,-5.1847,-5.1794,-5.1655,-5.142,-5.1281,-5.1194,-5.1122,-5.0977,-5.0646,-4.9238,-4.8059,-4.7489,-4.6989,-4.6594,-4.615,-4.5909,-4.539,-4.4862,-4.442,-4.3884,-4.3634,-4.3574,-4.3785,-4.3669,-4.2987,-6.1708,-6.1717,-6.1699,-6.1699,-6.1699,-6.1699,-6.1699,-6.1699,-6.1699,-6.1698,-6.164,-6.1679,-6.1699,-6.1695,-6.171,-6.1639,-6.1481,-6.1507,-6.1627,-6.1693,-6.1356,-6.1061,-6.0666,-6.0109,-5.9392,-5.8437,-5.7573,-5.7187,-5.6594,-5.6448,-5.6411,-5.6397,-5.6325,-5.6278,-5.6219,-5.617,-5.6191,-5.6404,-5.6933,-5.7555,-5.8197,-5.835,-5.8493,-5.833,-5.7868,-5.7525,-5.7104,-5.6432,-5.6132,-5.6031,-5.6054,-5.6078,-5.6075,-5.611,-5.6125,-5.5984,-5.6033,-5.6042,-5.5875,-5.5508,-5.5244,-5.4599,-5.3907,-5.3108,-5.2444,-5.2036,-5.1536,-5.1478,-5.1282,-5.1276,-5.1284,-5.1304,-5.1323,-5.1369,-5.138,-5.1384,-5.1396,-5.1398,-5.1407,-5.138,-5.1326,-5.1289,-5.1209,-5.1146,-5.1061,-5.1068,-5.1152,-5.1144,-5.1097,-5.1139,-5.1142,-5.1063,-5.1006,-5.1186,-5.1203,-5.1047,-5.0936,-5.0791,-5.0242,-4.8768,-4.7595,-4.6836,-4.6398,-4.6288,-4.6074,-4.5832,-4.5253,-4.4333,-4.3829,-4.3275,-4.2827,-4.2682,-4.291,-4.2754,-4.2075]},{"header":{"parameterUnit":"m.s-1","parameterCategory":1,"la1":31.0,"la2":29.5877,"lo1":-88.7671,"lo2":-86.6584,"dy":0.0162,"dx":0.0185,"nx":115,"ny":88,"refTime":"2024-05-25T00:00:00:Z","depth":0,"parameterNumber":3,"parameterNumberName":"V-component_of_WINDS"},"data":[0.0,0.0,0.0,0.0,0.0,0.0,0.0,0.0,0.0,0.0,0.0,0.0,0.0,0.0,0.0,0.0,0.0,0.0,0.0,0.0,0.0,0.0,0.0,0.0,0.0,0.0,0.0,0.0,0.0,0.0,0.0,0.0,0.0,0.0,0.0,0.0,0.0,0.0,0.0,0.0,0.0,0.0,0.0,0.0,0.0,0.0,0.0,0.0,0.0,0.0,0.0,0.0,0.0,0.0,0.0,0.0,0.0,0.0,0.0,0.0,0.0,0.0,0.0,0.0,0.0,0.0,0.0,0.0,0.0,0.0,0.0,0.0,0.0,0.0,0.0,0.0,0.0,0.0,0.0,0.0,0.0,0.0,0.0,0.0,0.0,0.0,0.0,0.0,0.0,0.0,0.0,0.0,0.0,0.0,0.0,0.0,0.0,0.0,0.0,0.0,0.0,0.0,0.0,0.0,0.0,0.0,0.0,0.0,0.0,0.0,0.0,0.0,0.0,0.0,0.0,0.0,0.0,0.0,0.0,0.0,0.0,0.0,0.0,0.0,0.0,0.0,0.0,0.0,0.0,0.0,0.0,0.0,0.0,0.0,0.0,0.0,0.0,0.0,0.0,0.0,0.0,0.0,0.0,0.0,0.0,0.0,0.0,0.0,0.0,0.0,0.0,0.0,0.0,0.0,0.0,0.0,0.0,0.0,0.0,0.0,0.0,0.0,0.0,0.0,0.0,0.0,0.0,0.0,0.0,0.0,0.0,0.0,0.0,0.0,0.0,0.0,0.0,0.0,0.0,0.0,0.0,0.0,0.0,0.0,0.0,0.0,0.0,0.0,0.0,0.0,0.0,0.0,0.0,0.0,0.0,0.0,0.0,0.0,0.0,0.0,0.0,0.0,0.0,0.0,0.0,0.0,0.0,0.0,0.0,0.0,0.0,0.0,0.0,0.0,0.0,0.0,0.0,0.0,0.0,0.0,0.0,0.0,0.0,0.0,0.0,0.0,0.0,0.0,0.0,0.0,0.0,0.0,0.0,0.0,0.0,0.0,0.0,0.0,0.0,0.0,0.0,0.0,0.0,0.0,0.0,0.0,0.0,0.0,0.0,0.0,0.0,0.0,0.0,0.0,0.0,0.0,0.0,0.0,0.0,0.0,0.0,0.0,0.0,0.0,0.0,0.0,0.0,0.0,0.0,0.0,0.0,0.0,0.0,0.0,0.0,0.0,0.0,0.0,0.0,0.0,0.0,0.0,0.0,0.0,0.0,0.0,0.0,0.0,0.0,0.0,0.0,0.0,0.0,0.0,0.0,0.0,0.0,0.0,0.0,0.0,0.0,0.0,0.0,0.0,0.0,0.0,0.0,0.0,0.0,0.0,0.0,0.0,0.0,0.0,0.0,0.0,0.0,0.0,0.0,0.0,0.0,0.0,0.0,0.0,0.0,0.0,0.0,0.0,0.0,0.0,0.0,0.0,0.0,0.0,0.0,0.0,0.0,0.0,0.0,0.0,0.0,0.0,0.0,0.0,0.0,0.0,0.0,0.0,0.0,0.0,0.0,0.0,0.0,0.0,0.0,0.0,0.0,0.0,0.0,0.0,0.0,0.0,0.0,0.0,0.0,0.0,0.0,0.0,0.0,0.0,0.0,0.0,0.0,0.0,0.0,0.0,0.0,0.0,0.0,0.0,0.0,0.0,0.0,0.0,0.0,0.0,0.0,0.0,0.0,0.0,0.0,0.0,0.0,0.0,0.0,0.0,0.0,0.0,0.0,0.0,0.0,0.0,0.0,0.0,0.0,0.0,0.0,0.0,0.0,0.0,0.0,0.0,0.0,0.0,0.0,0.0,0.0,0.0,0.0,0.0,0.0,0.0,0.0,0.0,0.0,0.0,0.0,0.0,0.0,0.0,0.0,0.0,0.0,0.0,0.0,0.0,0.0,0.0,0.0,0.0,0.0,0.0,0.0,0.0,0.0,0.0,0.0,0.0,0.0,0.0,0.0,0.0,0.0,0.0,0.0,0.0,0.0,0.0,0.0,0.0,0.0,0.0,0.0,0.0,0.0,0.0,0.0,0.0,0.0,0.0,0.0,0.0,0.0,0.0,0.0,0.0,0.0,0.0,0.0,0.0,0.0,0.0,0.0,0.0,0.0,0.0,0.0,0.0,0.0,0.0,0.0,0.0,0.0,0.0,0.0,0.0,0.0,0.0,0.0,0.0,0.0,0.0,0.0,0.0,0.0,0.0,0.0,0.0,0.0,0.0,0.0,0.0,0.0,0.0,0.0,0.0,0.0,0.0,0.0,0.0,0.0,0.0,0.0,0.0,0.0,0.0,0.0,0.0,0.0,0.0,0.0,0.0,0.0,0.0,0.0,0.0,0.0,0.0,0.0,0.0,0.0,0.0,0.0,0.0,0.0,0.0,0.0,0.0,0.0,0.0,0.0,0.0,0.0,0.0,0.0,0.0,0.0,0.0,0.0,0.0,0.0,0.0,0.0,0.0,0.0,0.0,0.0,0.0,0.0,0.0,0.0,0.0,0.0,0.0,0.0,0.0,0.0,0.0,0.0,0.0,0.0,0.0,0.0,0.0,0.0,0.0,0.0,0.0,0.0,0.0,0.0,0.0,0.0,0.0,0.0,0.0,0.0,0.0,0.0,0.0,0.0,0.0,0.0,0.0,0.0,0.0,0.0,0.0,0.0,0.0,0.0,0.0,0.0,0.0,0.0,0.0,0.0,0.0,0.0,0.0,0.0,0.0,0.0,0.0,0.0,0.0,0.0,0.0,0.0,0.0,0.0,0.0,0.0,0.0,0.0,0.0,0.0,0.0,0.0,0.0,0.0,0.0,0.0,0.0,0.0,0.0,0.0,0.0,0.0,0.0,0.0,0.0,0.0,0.0,0.0,0.0,0.0,0.0,0.0,0.0,0.0,0.0,0.0,0.0,0.0,0.0,0.0,0.0,0.0,0.0,0.0,0.0,0.0,0.0,0.0,0.0,0.0,0.0,0.0,0.0,0.0,0.0,0.0,0.0,0.0,0.0,0.0,0.0,0.0,0.0,0.0,0.0,0.0,0.0,0.0,0.0,0.0,0.0,0.0,0.0,0.0,0.0,0.0,0.0,0.0,0.0,0.0,0.0,0.0,0.0,0.0,0.0,0.0,0.0,0.0,0.0,0.0,0.0,0.0,0.0,0.0,0.0,0.0,0.0,0.0,0.0,0.0,0.0,0.0,0.0,0.0,0.0,0.0,0.0,0.0,0.0,0.0,0.0,0.0,0.0,0.0,0.0,0.0,0.0,0.0,0.0,0.0,0.0,0.0,0.0,0.0,0.0,0.0,0.0,0.0,0.0,0.0,0.0,0.0,0.0,0.0,0.0,0.0,0.0,0.0,0.0,0.0,0.0,0.0,0.0,0.0,0.0,0.0,0.0,0.0,0.0,0.0,0.0,0.0,0.0,0.0,0.0,0.0,0.0,0.0,0.0,0.0,0.0,0.0,0.0,0.0,0.0,0.0,0.0,0.0,0.0,0.0,0.0,0.0,0.0,0.0,0.0,0.0,0.0,0.0,0.0,0.0,0.0,0.0,0.0,0.0,0.0,0.0,0.0,0.0,0.0,0.0,0.0,0.0,0.0,0.0,0.0,0.0,0.0,0.0,0.0,0.0,0.0,0.0,0.0,0.0,0.0,0.0,0.0,0.0,0.0,0.0,0.0,0.0,0.0,0.0,0.0,0.0,0.0,0.0,0.0,0.0,0.0,0.0,0.0,0.0,0.0,0.0,0.0,0.0,0.0,0.0,0.0,0.0,0.0,0.0,0.0,0.0,0.0,0.0,0.0,0.0,0.0,0.0,0.0,0.0,0.0,0.0,0.0,0.0,0.0,0.0,0.0,0.0,0.0,0.0,0.0,0.0,0.0,0.0,0.0,0.0,0.0,0.0,0.0,0.0,0.0,0.0,0.0,0.0,0.0,0.0,0.0,0.0,0.0,0.0,0.0,0.0,0.0,0.0,0.0,0.0,0.0,0.0,0.0,0.0,0.0,0.0,0.0,0.0,0.0,0.0,0.0,0.0,0.0,0.0,0.0,0.0,0.0,0.0,0.0,0.0,0.0,0.0,0.0,0.0,0.0,0.0,0.0,0.0,0.0,0.0,0.0,0.0,0.0,0.0,0.0,0.0,0.0,0.0,0.0,0.0,0.0,0.0,0.0,0.0,0.0,0.0,0.0,0.0,0.0,0.0,0.0,0.0,0.0,0.0,0.0,0.0,0.0,0.0,0.0,0.6271,0.0,0.0,0.0,0.0,0.0,0.0,0.0,0.0,0.0,0.0,0.0,0.0,0.0,0.0,0.0,0.0,0.0,0.0,0.0,0.0,0.0,0.0,0.0,0.0,0.0,0.0,0.0,0.0,0.0,0.0,0.0,0.0,0.0,0.0,0.0,0.0,0.0,0.0,0.0,0.0,0.0,0.0,0.0,0.0,0.0,0.0,0.0,0.0,0.0,0.0,0.0,0.0,0.0,0.0,0.0,0.0,0.0,0.0,0.0,0.0,0.0,0.0,0.0,0.0,0.0,0.0,0.0,0.0,0.0,0.0,0.0,0.0,0.0,0.0,0.0,0.0,0.0,0.0,0.0,0.0,0.0,0.0,0.0,0.0,0.0,0.0,0.0,0.0,0.0,0.0,0.0,0.0,0.0,0.0,0.0,0.0,0.0,0.0,0.0,0.0,0.0,0.0,0.0,0.0,0.0,0.0,0.0,0.0,0.0,0.0,0.358,0.3771,0.457,0.5531,0.6674,0.0,0.0,0.0,0.0,0.0,0.0,0.0,0.0,0.0,0.0,0.0,0.0,0.0,0.0,0.0,0.0,0.0,0.0,0.0,0.0,0.0,0.0,0.0,0.0,0.0,0.0,0.0,0.0,0.0,0.0,0.0,0.0,0.0,0.0,0.0,0.0,0.0,0.0,0.0,0.0,0.0,0.0,0.0,0.0,0.0,0.0,0.0,0.0,0.0,0.0,0.0,0.0,0.0,0.0,0.0,0.0,0.0,0.0,0.0,0.0,0.0,0.0,0.0,0.0,0.0,0.0,0.0,0.0,0.0,0.0,0.0,0.0,0.0,0.0,0.0,0.0,0.0,0.0,0.0,0.0,0.0,0.0,0.0,0.0,0.0,0.0,0.0,0.0,0.0,0.0,0.0,0.0,0.0,0.0,0.0,0.0,0.0,0.0,0.0,0.0,0.0,0.0,0.0,0.0,0.0,0.0,0.0,0.0,0.0,0.0,0.0,0.0,0.3887,0.4874,0.6126,0.0,0.0,0.0,0.0,0.0,0.0,0.0,0.0,0.0,0.0,0.0,0.0,0.0,0.0,0.0,0.0,0.0,0.0,0.0,0.0,0.0,0.0,0.0,0.0,0.0,0.0,0.0,0.0,0.0,0.0,0.0,0.0,0.0,0.0,0.0,0.0,0.0,0.0,0.0,0.0,0.0,0.0,0.0,0.0,0.0,0.0,0.0,0.0,0.0,0.0,0.0,0.0,0.0,0.0,0.0,0.0,0.0,0.0,0.0,0.0,0.0,0.0,0.0,0.0,0.0,0.0,0.0,0.0,0.0,0.0,0.0,0.0,0.0,0.0,0.0,0.0,0.0,0.0,0.0,0.0,0.0,0.0,0.0,0.0,0.0,0.0,0.0,0.0,0.0,0.0,0.0,0.0,0.0,0.0,0.0,0.0,0.0,0.0,0.0,0.0,0.0,0.0,0.0,0.0,0.0,0.0,0.0,0.0,0.0,0.0,0.3533,0.1687,0.1671,0.0,0.3637,0.0,0.0,0.0,0.0,0.0,0.0,0.0,0.0,0.0,0.0,0.0,0.0,0.0,0.0,0.0,0.0,0.0,0.0,0.0,0.0,0.0,0.0,0.0,0.0,0.0,0.0,0.0,0.0,0.0,0.0,0.0,0.0,0.0,0.0,0.0,0.0,0.0,0.0,0.0,0.0,0.0,0.0,0.0,0.0,0.0,0.0,0.0,0.0,0.0,0.0,0.0,0.0,0.0,0.0,0.0,0.0,0.0,0.0,0.0,0.0,0.0,0.0,0.0,0.0,0.0,0.0,0.0,0.0,0.0,0.0,0.0,0.0,0.0,0.0,0.0,0.0,0.0,0.0,0.0,0.0,0.0,0.0,0.0,0.0,0.0,0.0,0.0,0.0,0.0,0.0,0.0,0.0,0.0,0.0,0.0,0.0,0.0,0.0,0.0,0.0,0.0,0.0,0.0,0.0,0.0,0.0,0.0,0.0,0.0,0.0,0.0,0.0877,0.2186,0.3268,0.0,0.0,0.0,0.0,0.0,0.0,0.0,0.0,0.0,0.0,0.0,0.0,0.0,0.0,0.0,0.0,0.0,0.0,0.0,0.0,0.0,0.0,0.0,0.0,0.0,0.0,0.0,0.0,0.0,0.0,0.0,0.0,0.0,0.0,0.0,0.0,0.0,0.0,0.0,0.0,0.0,0.0,0.0,0.0,0.0,0.0,0.0,0.0,0.0,0.0,0.0,0.0,0.0,0.0,0.0,0.0,0.0,0.0,0.0,0.0,0.0,0.0,0.0,0.0,0.0,0.0,0.0,0.0,0.0,0.0,0.0,0.0,0.0,0.0,0.0,0.0,0.0,0.0,0.0,0.0,0.0,0.0,0.0,0.0,0.0,0.0,0.0,0.0,0.0,0.0,0.0,0.0,0.0,0.0,0.0,0.0,0.0,0.0,0.0,0.0,0.0,0.0,0.0,0.0,0.0,0.0,0.0,0.0,0.0,0.0,0.1451,0.0,-0.0029,0.1396,0.287,0.4276,0.0,0.0,0.0,0.0,0.0,0.0,0.0,0.0,0.0,0.0,0.0,0.0,0.0,0.0,0.0,0.0,0.0,0.0,0.0,0.0,0.0,0.0,0.0,0.0,0.0,0.0,0.0,0.0,0.0,0.0,0.0,0.0,0.0,0.0,0.0,0.0,0.0,0.0,0.0,0.0,0.0,0.0,0.0,0.0,0.0,0.0,0.0,0.0,0.0,0.0,0.0,0.0,0.0,0.0,0.0,0.0,0.0,0.0,0.0,0.0,0.0,0.0,0.0,0.0,0.0,0.0,0.0,0.0,0.0,0.0,0.0,0.0,0.0,0.0,0.0,0.0,0.0,0.0,0.0,0.0,0.0,0.0,0.0,0.0,0.0,0.0,0.0,0.0,0.0,0.0,0.0,0.0,0.0,0.0,0.0,0.0,0.0,0.0,0.0,0.0,0.0,0.0,0.0,0.0,0.0,0.0,0.0,0.0,0.0,0.0201,0.0029,-0.1716,-0.2024,-0.028,0.0,0.0,0.0,0.0,0.0,0.0,0.0,0.0,0.0,0.0,0.0,0.0,0.0,0.0,0.0,0.0,0.0,0.0,0.0,0.0,0.0,0.0,0.0,0.0,0.0,0.0,0.0,0.0,0.0,0.0,0.0,0.0,0.0,0.0,0.0,0.0,0.0,0.0,0.0,0.0,0.0,0.0,0.0,0.0,0.0,0.0,0.0,0.0,0.0,0.0,0.0,0.0,0.0,0.0,0.0,0.0,0.0,0.0,0.0,0.0,0.0,0.0,0.0,0.0,0.0,0.0,0.0,0.0,0.0,0.0,0.0,0.0,0.0,0.0,0.0,0.0,0.0,0.0,0.0,0.0,0.0,0.0,0.0,0.0,0.0,0.0,0.0,0.0,0.0,0.0,0.0,0.0,0.0,0.0,0.0,0.0,0.0,0.0,0.0,0.0,0.0,0.0,0.0,0.0,0.0,0.0,0.0,0.0,0.0,0.3293,0.1774,-0.1262,0.0,-0.1111,0.1235,0.0,0.0,0.0,0.0,0.0,0.0,0.0,0.0,0.0,0.0,0.0,0.0,0.0,0.0,0.0,0.0,0.0,0.0,0.0,0.0,0.0,0.0,0.0,0.0,0.0,0.0,0.0,0.0,0.0,0.0,0.0,0.0,0.0,0.0,0.0,0.0,0.0,0.0,0.0,0.0,0.0,0.0,0.0,0.0,0.0,0.0,0.0,0.0,0.0,0.0,0.0,0.0,0.0,0.0,0.0,0.0,0.0,0.0,0.0,0.0,0.0,0.0,0.0,0.0,0.0,0.0,0.0,0.0,0.0,0.0,0.0,0.0,0.0,0.0,0.0,0.0,0.0,0.0,0.0,0.0,0.0,0.0,0.0,0.0,0.0,0.0,0.0,0.0,0.0,0.0,0.0,0.0,0.0,0.0,0.0,0.0,0.0,0.0,0.0,0.0,0.0,0.0,0.0,0.0,0.0,0.0,0.0,0.0,0.0,0.2912,0.0,-0.2957,0.0,-0.0942,0.1876,0.0,0.0,0.0,0.0,0.0,0.0,0.0,0.0,0.0,0.0,0.0,0.0,0.0,0.0,0.0,0.0,0.0,0.0,0.0,0.0,0.0,0.0,0.0,0.0,0.0,0.0,0.0,0.0,0.0,0.0,0.0,0.0,0.0,0.0,0.0,0.0,0.0,0.0,0.0,0.0,0.0,0.0,0.0,0.0,0.0,0.0,0.0,0.0,0.0,0.0,0.0,0.0,0.0,0.0,0.0,0.0,0.0,0.0,0.0,0.0,0.0,0.0,0.0,0.0,0.0,0.0,0.0,0.0,0.0,0.0,0.0,0.0,0.0,0.0,0.0,0.0,0.0,0.0,0.0,0.0,0.0,0.0,0.0,0.0,0.0,0.0,0.0,0.0,0.0,0.0,0.0,0.0,0.0,0.0,0.0,0.0,0.0,0.0,0.0,0.0,0.0,0.0,0.0,0.0,0.0,0.0,0.0,0.0,0.3121,-0.2995,-0.5072,-0.4753,-0.1966,-0.174,0.1336,0.0,0.0,0.0,0.0,0.0,0.0,0.0,0.0,0.0,0.0,0.0,0.0,0.0,0.0,0.0,0.0,0.0,0.0,0.0,0.0,0.0,0.0,0.0,0.0,0.0,0.0,0.0,0.0,0.0,0.0,0.0,0.0,0.0,0.0,0.0,0.0,0.0,0.0,0.0,0.0,0.0,0.0,0.0,0.0,0.0,0.0,0.0,0.0,0.0,0.0,0.0,0.0,0.0,0.0,0.0,0.0,0.0,0.0,0.0,0.0,0.0,0.0,0.0,0.0,0.0,0.0,0.0,0.0,0.0,0.0,0.0,0.0,0.0,0.0,0.0,0.0,0.0,0.0,0.0,0.0,0.0,0.0,0.0,0.0,0.0,0.0,0.0,0.0,0.0,0.0,0.0,0.0,0.0,0.0,0.0,0.0,0.0,0.0,0.0,0.0,0.0,0.0,0.0,0.0,0.0,0.0,0.0,0.0,0.0,-0.1875,-0.2848,-0.435,-0.621,-0.0738,0.2184,0.0,0.0,0.0,0.0,0.0,0.0,0.0,0.0,0.0,0.0,0.0,0.0,0.0,0.0,0.0,0.0,0.0,0.0,0.0,0.0,0.0,0.0,0.0,0.0,0.0,0.0,0.0,0.0,0.0,0.0,0.0,0.0,0.0,0.0,0.0,0.0,0.0,0.0,0.0,0.0,0.0,0.0,0.0,0.0,0.0,0.0,0.0,0.0,0.0,0.0,0.0,0.0,0.0,0.0,0.0,0.0,0.0,0.0,0.0,0.0,0.0,0.0,0.0,0.0,0.0,0.0,0.0,0.0,0.0,0.0,0.0,0.0,0.0,0.0,0.0,0.0,0.0,0.0,0.0,0.0,0.0,0.0,0.0,0.0,0.0,0.0,0.0,0.0,0.0,0.0,0.0,0.0,0.0,0.0,0.0,0.0,0.0,0.0,0.0,0.0,0.0,0.0,0.0,0.0,0.0,0.0,0.0,0.0,0.0,-0.3707,-0.4712,-0.5947,-0.7353,-0.128,0.1785,0.1365,0.0,0.0,0.0,0.0,0.0,0.0,0.0,0.0,0.0,0.0,0.0,0.0,0.0,0.0,0.0,0.0,0.0,0.0,0.0,0.0,0.0,0.0,0.0,0.0,0.0,0.0,0.0,0.0,0.0,0.0,0.0,0.0,0.0,0.0,0.0,0.0,0.0,0.0,0.0,0.0,0.0,0.0,0.0,0.0,0.0,0.0,0.0,0.0,0.0,0.0,0.0,0.0,0.0,0.0,0.0,0.0,0.0,0.0,0.0,0.0,0.0,0.0,0.0,0.0,0.0,0.0,0.0,0.0,0.0,0.0,0.0,0.0,0.0,0.0,0.0,0.0,0.0,0.0,0.0,0.0,0.0,0.0,0.0,0.0,0.0,0.0,0.0,0.0,0.0,0.0,0.0,0.0,0.0,0.0,0.0,0.0,0.0,0.0,0.0,0.0,0.0,0.0,0.0,0.0,0.0,0.0,0.0,0.0,-0.7821,-0.9955,-0.9245,-0.5691,-0.3167,0.0211,0.0,0.0,0.0,0.0,0.0,0.0,0.0,0.0,0.0,0.0,0.0,0.0,0.0,0.0,0.0,0.0,0.0,0.0,0.0,0.0,0.0,0.0,0.0,0.0,0.0,0.0,0.0,0.0,0.0,0.0,0.0,0.0,0.0,0.0,0.0,0.0,0.0,0.0,0.0,0.0,0.0,0.0,0.0,0.0,0.0,0.0,0.0,0.0,0.0,0.0,0.0,0.0,0.0,0.0,0.0,0.0,0.0,0.0,0.0,0.0,0.0,0.0,0.0,0.0,0.0,0.0,0.0,0.0,0.0,0.0,0.0,0.0,0.0,0.0,0.0,0.0,0.0,0.0,0.0,0.0,0.0,0.0,0.0,0.0,0.0,0.0,0.0,0.0,0.0,0.0,0.0,0.0,0.0,0.0,0.0,0.0,0.0,0.0,0.0,0.0,0.0,0.0,0.0,0.0,0.0,0.0,0.0,0.0,0.0,-0.9916,-1.0904,-1.0674,-0.9324,-0.4532,-0.0978,0.0,0.0,0.0,0.0,0.0,0.0,0.0,0.0,0.0,0.0,0.0,0.0,0.0,0.0,0.0,0.0,0.0,0.0,0.0,0.0,0.0,0.0,0.0,0.0,0.0,0.0,0.0,0.0,0.0,0.0,0.0,0.0,0.0,0.0,0.0,0.0,0.0,0.0,0.0,0.0,0.0,0.0,0.0,0.0,0.0,0.0,0.0,0.0,0.0,0.0,0.0,0.0,0.0,0.0,0.0,0.0,0.0,0.0,0.0,0.0,0.0,0.0,0.0,0.0,0.0,0.0,0.0,0.0,0.0,0.0,0.0,0.0,0.0,0.0,0.0,0.0,0.0,0.0,0.0,0.0,0.0,0.0,0.0,0.0,0.0,0.0,0.0,0.0,0.0,0.0,0.0,0.0,0.0,0.0,0.0,0.0,0.0,0.0,0.0,0.0,0.0,0.0,0.0,0.0,0.0,0.0,0.0,0.0,-0.7303,-1.063,-1.1322,-1.1464,-1.0986,-0.6414,-0.2809,0.0,0.0,0.0,0.0,0.0,0.0,0.0,0.0,0.0,0.0,0.0,0.0,0.0,0.0,0.0,0.0,0.0,0.0,0.0,0.0,0.0,0.0,0.0,0.0,0.0,0.0,0.0,0.0,0.0,0.0,0.0,0.0,0.0,0.0,0.0,0.0,0.0,0.0,0.0,0.0,0.0,0.0,0.0,0.0,0.0,0.0,0.0,0.0,0.0,0.0,0.0,0.0,0.0,0.0,0.0,0.0,0.0,0.0,0.0,0.0,0.0,0.0,0.0,0.0,0.0,0.0,0.0,0.0,0.0,0.0,0.0,0.0,0.0,0.0,0.0,0.0,0.0,0.0,0.0,0.0,0.0,0.0,0.0,0.0,0.0,0.0,0.0,0.0,0.0,0.0,0.0,0.0,0.0,0.0,0.0,0.0,0.0,0.0,0.0,0.0,0.0,0.0,0.0,0.0,0.0,0.0,0.0,0.0,-0.7871,-1.0511,-1.1476,-1.1592,-1.0926,-0.82,-0.4716,0.0,0.0,0.0,0.0,0.0,0.0,0.0,0.0,0.0,0.0,0.0,0.0,0.0,0.0,0.0,0.0,0.0,0.0,0.0,0.0,0.0,0.0,0.0,0.0,0.0,0.0,0.0,0.0,0.0,0.0,0.0,0.0,0.0,0.0,0.0,0.0,0.0,0.0,0.0,0.0,0.0,0.0,0.0,0.0,0.0,0.0,0.0,0.0,0.0,0.0,0.0,0.0,0.0,0.0,0.0,0.0,0.0,0.0,0.0,0.0,0.0,0.0,0.0,0.0,0.0,0.0,0.0,0.0,0.0,0.0,0.0,0.0,0.0,0.0,0.0,0.0,0.0,0.0,0.0,0.0,0.0,0.0,0.0,0.0,0.0,0.0,0.0,0.0,0.0,0.0,0.0,0.0,0.0,0.0,0.0,0.0,0.0,0.0,0.0,0.0,0.0,0.0,0.0,0.0,0.0,0.0,0.0,0.0,-0.8909,-1.143,-1.1595,-1.1373,-1.0799,-0.7774,-0.4765,0.0,0.0,0.0,0.0,0.0,0.0,0.0,0.0,0.0,0.0,0.0,0.0,0.0,0.0,0.0,0.0,0.0,0.0,0.0,0.0,0.0,0.0,0.0,0.0,0.0,0.0,0.0,0.0,0.0,0.0,0.0,0.0,0.0,0.0,0.0,0.0,0.0,0.0,0.0,0.0,0.0,0.0,0.0,0.0,0.0,0.0,0.0,0.0,-1.2761,0.0,0.0,0.0,0.0,0.0,0.0,0.0,0.0,0.0,0.0,0.0,0.0,0.0,0.0,0.0,0.0,0.0,0.0,0.0,0.0,0.0,0.0,0.0,0.0,0.0,0.0,0.0,0.0,0.0,0.0,0.0,0.0,0.0,0.0,0.0,0.0,0.0,0.0,0.0,0.0,0.0,0.0,0.0,0.0,0.0,0.0,0.0,0.0,0.0,0.0,0.0,0.0,0.0,0.0,0.0,0.0,0.0,0.0,0.0,-0.891,-1.0871,-1.0938,-1.0691,-1.0141,-0.7541,-0.5017,0.0,0.0,0.0,0.0,0.0,0.0,0.0,0.0,0.0,0.0,0.0,0.0,0.0,0.0,0.0,0.0,0.0,0.0,0.0,0.0,0.0,0.0,0.0,0.0,0.0,0.0,0.0,0.0,0.0,0.0,0.0,0.0,0.0,0.0,0.0,0.0,0.0,0.0,0.0,0.0,0.0,0.0,0.0,0.0,0.0,0.0,0.0,0.0,0.0,0.0,0.0,0.0,0.0,0.0,0.0,0.0,0.0,0.0,0.0,0.0,0.0,0.0,0.0,0.0,0.0,0.0,0.0,0.0,0.0,0.0,0.0,0.0,0.0,0.0,0.0,0.0,0.0,0.0,0.0,0.0,0.0,0.0,0.0,0.0,0.0,0.0,0.0,0.0,0.0,0.0,0.0,0.0,0.0,0.0,0.0,0.0,0.0,0.0,0.0,0.0,0.0,0.0,0.0,0.0,0.0,0.0,0.0,-0.6492,-0.852,-0.9987,-1.0104,-0.9911,-0.9374,-0.721,-0.5091,-0.3052,0.0,0.0,0.0,0.0,0.0,0.0,0.0,0.0,0.0,0.0,0.0,0.0,0.0,0.0,0.0,0.0,0.0,0.0,0.0,0.0,0.0,0.0,0.0,0.0,0.0,0.0,0.0,0.0,0.0,0.0,0.0,0.0,0.0,0.0,0.0,0.0,0.0,0.0,-1.45,-1.594,0.0,0.0,0.0,0.0,0.0,0.0,0.0,0.0,-1.7359,0.0,0.0,0.0,0.0,0.0,0.0,0.0,0.0,0.0,0.0,0.0,0.0,0.0,0.0,0.0,0.0,0.0,0.0,0.0,0.0,0.0,0.0,0.0,0.0,0.0,0.0,0.0,0.0,0.0,0.0,0.0,0.0,0.0,0.0,0.0,0.0,0.0,0.0,0.0,0.0,0.0,0.0,0.0,0.0,0.0,0.0,0.0,0.0,0.0,0.0,0.0,0.0,0.0,0.0,0.0,0.0,-0.6165,-0.7,-0.8269,-1.0076,-0.9826,-0.925,-0.8379,-0.6443,-0.4449,-0.2467,0.0,0.0,0.0,0.0,0.0,0.0,0.0,0.0,0.0,0.0,0.0,0.0,0.0,0.0,0.0,0.0,0.0,0.0,0.0,0.0,0.0,0.0,0.0,0.0,0.0,0.0,0.0,0.0,0.0,0.0,0.0,0.0,0.0,0.0,0.0,0.0,0.0,0.0,0.0,-1.8794,-1.9715,0.0,0.0,0.0,0.0,0.0,0.0,0.0,0.0,-1.9113,0.0,0.0,0.0,0.0,0.0,0.0,0.0,0.0,0.0,0.0,0.0,0.0,0.0,0.0,0.0,0.0,0.0,0.0,0.0,0.0,0.0,0.0,0.0,0.0,0.0,0.0,0.0,0.0,0.0,0.0,0.0,0.0,0.0,0.0,0.0,0.0,0.0,0.0,0.0,0.0,0.0,0.0,0.0,0.0,0.0,0.0,0.0,0.0,0.0,0.0,0.0,0.0,0.0,0.0,0.0,-0.5591,-0.7254,-0.8513,-0.9491,-0.8951,-0.8136,-0.7084,-0.5134,-0.3321,0.0,0.0,0.0,0.0,0.0,0.0,0.0,0.0,0.0,0.0,0.0,0.0,0.0,0.0,0.0,0.0,0.0,0.0,0.0,0.0,0.0,0.0,0.0,0.0,0.0,0.0,0.0,0.0,0.0,0.0,0.0,0.0,0.0,0.0,0.0,0.0,0.0,0.0,0.0,0.0,-2.0036,-2.1155,-2.1156,0.0,0.0,0.0,0.0,0.0,0.0,-2.0638,-2.0731,0.0,0.0,0.0,0.0,0.0,0.0,0.0,0.0,0.0,0.0,0.0,0.0,0.0,0.0,0.0,0.0,0.0,0.0,0.0,0.0,0.0,0.0,0.0,0.0,0.0,0.0,0.0,0.0,0.0,0.0,0.0,0.0,0.0,0.0,0.0,0.0,0.0,0.0,0.0,0.0,0.0,0.0,0.0,0.0,0.0,0.0,0.0,0.0,0.0,0.0,0.0,0.0,0.0,0.0,0.0,-0.5079,-0.7309,-0.8686,-0.901,-0.8166,-0.7139,-0.5977,-0.4126,-0.2452,0.0,0.0,0.0,0.0,0.0,0.0,0.0,0.0,0.0,0.0,0.0,0.0,0.0,0.0,0.0,0.0,0.0,0.0,0.0,0.0,0.0,0.0,0.0,0.0,0.0,0.0,0.0,0.0,0.0,0.0,0.0,0.0,0.0,0.0,0.0,0.0,0.0,0.0,0.0,0.0,0.0,-2.2093,-2.2981,-2.1891,0.0,0.0,0.0,0.0,-2.2535,-2.2457,0.0,0.0,0.0,0.0,0.0,0.0,0.0,0.0,0.0,0.0,0.0,0.0,0.0,0.0,0.0,0.0,0.0,0.0,0.0,0.0,0.0,0.0,0.0,0.0,0.0,0.0,0.0,0.0,0.0,0.0,0.0,0.0,0.0,0.0,0.0,0.0,0.0,0.0,0.0,0.0,0.0,0.0,0.0,0.0,0.0,0.0,0.0,0.0,0.0,0.0,0.0,0.0,0.0,0.0,0.0,0.0,-0.6258,-0.7257,-0.8285,-0.9341,-0.8287,-0.6947,-0.5344,-0.385,-0.2365,0.0,0.0,0.0,0.0,0.0,0.0,0.0,0.0,0.0,0.0,0.0,0.0,0.0,0.0,0.0,0.0,0.0,0.0,0.0,0.0,0.0,0.0,0.0,0.0,0.0,0.0,0.0,0.0,0.0,0.0,0.0,0.0,0.0,0.0,0.0,0.0,0.0,0.0,0.0,0.0,0.0,-2.3217,-2.1705,-2.2579,-2.3114,0.0,0.0,0.0,-2.4413,-2.4223,0.0,0.0,0.0,0.0,0.0,0.0,0.0,0.0,0.0,0.0,0.0,0.0,0.0,0.0,0.0,0.0,0.0,0.0,0.0,0.0,0.0,0.0,0.0,0.0,0.0,0.0,0.0,0.0,0.0,0.0,0.0,0.0,0.0,0.0,0.0,0.0,0.0,0.0,0.0,0.0,0.0,0.0,0.0,0.0,0.0,0.0,0.0,0.0,0.0,0.0,0.0,0.0,0.0,0.0,0.0,-0.3523,-0.6534,-0.8099,-0.9054,-0.9307,-0.7921,-0.6313,-0.4527,-0.2479,-0.0935,0.0,0.0,0.0,0.0,0.0,0.0,0.0,0.0,0.0,0.0,0.0,0.0,0.0,0.0,0.0,0.0,0.0,0.0,0.0,0.0,0.0,0.0,0.0,0.0,0.0,0.0,0.0,0.0,0.0,0.0,0.0,0.0,0.0,0.0,0.0,0.0,0.0,0.0,0.0,0.0,0.0,0.0,-2.266,-2.3888,0.0,0.0,0.0,-2.5047,-2.5514,0.0,0.0,0.0,0.0,0.0,0.0,0.0,0.0,0.0,0.0,0.0,0.0,0.0,0.0,0.0,0.0,0.0,0.0,0.0,0.0,0.0,0.0,0.0,0.0,0.0,0.0,0.0,0.0,0.0,0.0,0.0,0.0,0.0,0.0,0.0,0.0,0.0,0.0,0.0,0.0,0.0,0.0,0.0,0.0,0.0,0.0,0.0,0.0,0.0,0.0,0.0,0.0,0.0,0.0,0.0,0.0,0.0,-0.7065,-0.8795,-0.9568,-0.9232,-0.7451,-0.555,-0.3465,-0.1365,0.0,0.0,0.0,0.0,0.0,0.0,0.0,0.0,0.0,0.0,0.0,0.0,0.0,0.0,0.0,0.0,0.0,0.0,0.0,0.0,0.0,0.0,0.0,0.0,0.0,0.0,0.0,-0.9787,0.0,0.0,0.0,0.0,0.0,0.0,0.0,0.0,0.0,0.0,0.0,0.0,0.0,0.0,-2.3519,-2.3895,-2.5218,-2.6115,0.0,0.0,-2.653,-2.6645,-2.693,-2.6416,0.0,0.0,0.0,0.0,0.0,0.0,0.0,0.0,0.0,0.0,0.0,0.0,0.0,0.0,0.0,0.0,0.0,0.0,0.0,0.0,0.0,0.0,0.0,0.0,0.0,0.0,0.0,0.0,0.0,0.0,0.0,0.0,0.0,0.0,0.0,0.0,0.0,0.0,0.0,0.0,0.0,0.0,0.0,0.0,0.0,0.0,0.0,0.0,0.0,0.0,0.0,0.0,0.0,0.0,0.0,-0.8282,-0.889,-0.9187,-0.9146,-0.6982,-0.4586,-0.2237,-0.1136,0.0157,0.0,0.0,0.0,0.0,0.0,0.0,0.0,0.0,0.0,0.0,0.0,0.0,0.0,0.0,0.0,0.0,0.0,0.0,0.0,0.0,0.0,0.0,0.0,0.0,0.0,0.0,0.0,0.0,0.0,0.0,0.0,0.0,0.0,0.0,0.0,0.0,0.0,0.0,0.0,0.0,0.0,-2.4489,-2.4932,-2.6297,-2.739,0.0,0.0,-2.7439,-2.804,-2.7634,-2.6504,-2.4199,0.0,0.0,0.0,0.0,0.0,0.0,0.0,0.0,0.0,0.0,0.0,0.0,0.0,0.0,0.0,0.0,0.0,0.0,0.0,0.0,0.0,0.0,0.0,0.0,0.0,0.0,0.0,0.0,0.0,0.0,0.0,0.0,0.0,0.0,0.0,0.0,0.0,0.0,0.0,0.0,0.0,0.0,0.0,0.0,0.0,0.0,0.0,0.0,0.0,0.0,0.0,0.0,0.0,-0.5555,-0.8437,-0.9278,-0.9482,-0.9127,-0.6725,-0.4218,-0.1738,0.0112,0.1408,0.0,0.0,0.0,0.0,0.0,0.0,0.0,0.0,0.0,0.0,0.0,0.0,0.0,0.0,0.0,0.0,0.0,0.0,0.0,0.0,0.0,0.0,0.0,0.0,0.0,0.0,0.0,0.0,-1.2311,-1.2701,-1.3164,0.0,0.0,0.0,0.0,0.0,0.0,0.0,0.0,0.0,0.0,-2.5205,-2.5867,-2.6913,0.0,0.0,-2.7455,-2.7467,-2.7609,-2.6928,-2.591,-2.449,-2.3717,0.0,0.0,0.0,0.0,0.0,0.0,0.0,0.0,0.0,0.0,0.0,0.0,0.0,0.0,0.0,0.0,0.0,0.0,0.0,0.0,0.0,0.0,0.0,0.0,0.0,0.0,0.0,0.0,0.0,0.0,0.0,0.0,0.0,0.0,0.0,0.0,0.0,0.0,0.0,0.0,0.0,0.0,0.0,0.0,0.0,0.0,0.0,0.0,0.0,0.0,0.0,0.0,-0.5932,-0.8733,-0.9496,-0.9629,-0.9147,-0.6517,-0.3863,-0.1252,0.0662,0.1973,0.0,0.0,0.0,0.0,0.0,0.0,0.0,0.0,0.0,0.0,0.0,0.0,0.0,0.0,0.0,0.0,0.0,0.0,0.0,0.0,0.0,0.0,0.0,0.0,0.0,0.0,0.0,0.0,-1.2923,-1.3212,-1.3085,0.0,0.0,0.0,0.0,0.0,0.0,0.0,0.0,0.0,0.0,-2.5925,-2.6564,-2.7194,-2.7578,-2.7555,-2.7431,-2.7392,-2.7376,-2.6955,-2.6248,-2.5318,0.0,0.0,0.0,0.0,0.0,0.0,0.0,0.0,0.0,0.0,0.0,0.0,0.0,0.0,0.0,0.0,0.0,0.0,0.0,0.0,0.0,0.0,0.0,0.0,0.0,0.0,0.0,0.0,0.0,0.0,0.0,0.0,0.0,0.0,0.0,0.0,0.0,0.0,0.0,0.0,0.0,0.0,0.0,0.0,0.0,0.0,0.0,0.0,0.0,0.0,0.0,0.0,0.0,0.0,-0.9251,-0.9427,-0.9361,-0.9051,-0.6362,-0.3469,-0.056,0.0325,0.1453,0.2938,0.0,0.0,0.0,0.0,0.0,0.0,0.0,0.0,0.0,0.0,0.0,0.0,0.0,0.0,0.0,0.0,0.0,0.0,0.0,0.0,0.0,0.0,0.0,0.0,0.0,0.0,-1.3218,-1.39,-1.3925,0.0,0.0,0.0,0.0,0.0,0.0,0.0,0.0,0.0,0.0,-2.5689,-2.6583,-2.6931,-2.7027,-2.724,-2.7781,-2.7464,-2.7269,-2.7742,-2.798,-2.7791,0.0,0.0,0.0,0.0,0.0,0.0,0.0,0.0,0.0,0.0,0.0,0.0,0.0,0.0,0.0,0.0,0.0,0.0,0.0,0.0,0.0,0.0,0.0,0.0,0.0,0.0,0.0,0.0,-0.1826,0.0,0.0,0.0,0.0,0.0,0.0,0.0,0.0,0.0,0.0,0.0,-1.1122,-1.1181,0.0,0.0,0.0,0.0,0.0,0.0,0.0,0.0,0.0,0.0,0.0,0.0,-0.6928,-0.8965,-0.918,-0.906,-0.8707,-0.5967,-0.3336,-0.1063,0.065,0.1797,0.2315,0.0,0.0,0.0,0.0,0.0,0.0,0.0,0.0,0.0,0.0,0.0,0.0,0.0,0.0,0.0,0.0,0.0,0.0,0.0,0.0,0.0,0.0,0.0,0.0,0.0,-1.1918,0.0,0.0,0.0,0.0,0.0,0.0,0.0,0.0,0.0,0.0,0.0,-2.3953,-2.5564,-2.6674,-2.7182,-2.6837,-2.6879,-2.7147,0.0,0.0,0.0,0.0,0.0,0.0,0.0,0.0,0.0,0.0,0.0,0.0,0.0,0.0,-2.6862,-2.4633,-2.3173,-2.2347,-2.2482,0.0,0.0,0.0,0.0,0.0,0.0,0.0,0.0,0.0,0.0,0.0,0.0,0.0,0.0,0.0,0.0,-0.4686,0.0,0.0,0.0,0.0,0.0,0.0,0.0,0.0,-1.1095,-1.2578,-1.363,-1.3374,-1.3344,0.0,-1.2225,-1.036,0.0,0.0,0.0,0.0,0.0,0.0,0.0,0.0,-0.7527,-0.9468,-0.9425,-0.9154,-0.871,-0.6058,-0.3697,-0.1679,0.0488,0.1597,0.1577,0.0416,-0.0584,0.0,0.0,0.0,0.0,0.0,0.0,0.0,0.0,0.0,0.0,0.0,0.0,0.0,0.0,0.0,0.0,0.0,0.0,0.0,0.0,0.0,0.0,0.0,-1.2154,0.0,0.0,0.0,0.0,0.0,0.0,0.0,0.0,0.0,-2.5334,-2.5461,-2.5696,-2.6635,-2.7401,-2.7516,-2.6684,0.0,0.0,0.0,0.0,0.0,0.0,0.0,-2.7803,-2.8676,-2.846,-2.8423,-2.9143,-2.9869,-2.998,-2.8647,0.0,0.0,-2.6099,-2.4832,-2.4061,-2.3972,-2.3196,-2.2546,-2.2598,-2.159,-2.0583,0.0,0.0,0.0,0.0,0.0,0.0,0.0,0.0,-0.8802,-0.8367,0.0,-0.7314,0.0,0.0,0.0,0.0,0.0,0.0,0.0,0.0,-1.4104,-1.5203,-1.5337,-1.4635,-1.4615,-1.5037,-1.4299,-1.3305,-1.1919,-0.8652,0.0,0.0,0.0,0.0,0.0,0.0,-0.873,-1.0477,-0.9988,-0.9559,-0.9016,-0.6707,-0.4445,-0.2184,-0.0217,0.0785,0.0709,-0.0446,-0.1243,-0.1577,-0.2274,0.0,0.0,0.0,0.0,0.0,0.0,0.0,0.0,0.0,0.0,0.0,0.0,0.0,0.0,0.0,0.0,0.0,0.0,0.0,0.0,-1.1961,0.0,0.0,0.0,0.0,0.0,0.0,0.0,0.0,0.0,0.0,-2.7617,-2.7858,-2.7662,-2.7505,0.0,0.0,0.0,0.0,-2.6703,-2.6801,-2.6954,-2.7159,-2.7512,-2.8117,-2.8628,-2.8916,0.0,0.0,-2.9241,-2.9763,-2.9829,-2.8774,-2.8672,-2.8535,-2.762,-2.6654,-2.6024,-2.5975,-2.4577,-2.3596,-2.3696,-2.2389,-2.1025,-1.4956,0.0,0.0,0.0,0.0,-1.1946,-1.2441,-1.3668,-1.2759,-1.1744,-1.0828,-1.0359,0.0,0.0,0.0,0.0,0.0,0.0,-1.2848,-1.3803,-1.4619,-1.5248,-1.5683,-1.5017,-1.4979,-1.5341,-1.4799,-1.3887,-1.2578,-1.1436,-0.9674,-0.7373,0.0,0.0,0.0,0.0,-0.8681,-1.0099,-0.9504,-0.9045,-0.8813,-0.6596,-0.4138,-0.1459,-0.1139,-0.0685,-0.0103,-0.1112,-0.2122,-0.2868,-0.3186,0.0,0.0,0.0,0.0,0.0,0.0,0.0,0.0,0.0,0.0,0.0,0.0,0.0,0.0,0.0,0.0,0.0,0.0,0.0,-1.1646,-1.1784,-1.2591,0.0,0.0,0.0,0.0,0.0,0.0,0.0,0.0,0.0,-2.6511,-2.6809,-2.7051,0.0,0.0,-2.7376,-2.6666,-2.6703,-2.7003,-2.7306,0.0,0.0,0.0,-2.8394,-2.8786,-2.9479,-2.9828,-2.979,-2.9307,-2.941,-2.9282,-2.8153,-2.8178,-2.7967,-2.6994,-2.6623,-2.6428,-2.6219,-2.4988,-2.3929,-2.3947,-2.2683,-2.1222,-1.7418,-1.5881,-1.4736,-1.4715,-1.5429,-1.4545,-1.4912,-1.607,-1.5109,-1.4175,-1.3292,-1.2718,-1.1698,-1.0396,-1.049,0.0,0.0,0.0,-1.4215,-1.5189,-1.5179,-1.5346,-1.5629,-1.5128,-1.4949,-1.5113,-1.4789,-1.4075,-1.3081,-1.2755,-1.1445,-0.9252,0.0,0.0,-0.8258,-0.8467,-0.9071,-0.9954,-0.9178,-0.86,-0.828,-0.6094,-0.3976,-0.202,-0.1898,-0.1631,-0.1026,-0.19,-0.2746,-0.3436,-0.3917,-0.4265,0.0,0.0,0.0,0.0,0.0,0.0,0.0,0.0,0.0,0.0,0.0,-0.6686,-0.6007,0.0,0.0,0.0,-0.9126,-1.1693,-1.278,-1.2993,0.0,0.0,0.0,0.0,0.0,0.0,0.0,-2.3275,-2.4,-2.4797,-2.5662,-2.5875,-2.6344,-2.7494,-2.7595,-2.7416,-2.6842,0.0,-2.7095,-2.7162,-2.7485,-2.7713,-2.7917,-2.8169,-2.854,-2.9207,-2.9271,-2.903,-2.8516,-2.8519,-2.831,-2.7649,-2.7477,-2.7301,-2.6606,-2.6298,-2.6165,-2.616,-2.5325,-2.4658,-2.453,-2.327,-2.1942,-1.9154,-1.9194,-1.7805,-1.7391,-1.7672,-1.7107,-1.6995,-1.7174,-1.6311,-1.5822,-1.5523,-1.4508,-1.3797,-1.3363,-1.3188,0.0,0.0,-1.4993,-1.5609,-1.6266,-1.5792,-1.5482,-1.5403,-1.5066,-1.4818,-1.4536,-1.4407,-1.4008,-1.3421,-1.2928,-1.2102,-1.0985,-1.0249,-0.9817,-0.968,-0.956,-0.9683,-0.9975,-0.8966,-0.8118,-0.7464,-0.5459,-0.3946,-0.3148,-0.2656,-0.2299,-0.2065,-0.2711,-0.3222,-0.3545,-0.4468,-0.4952,-0.4887,0.0,0.0,0.0,0.0,0.0,0.0,0.0,0.0,0.0,0.0,0.0,0.0,0.0,0.0,0.0,-1.1733,0.0,-1.4,-1.5132,0.0,0.0,0.0,-1.9747,-2.0971,-2.2405,-2.3284,-2.3156,0.0,0.0,0.0,0.0,-2.5579,-2.7183,-2.751,-2.7499,-2.7126,-2.7052,-2.6964,-2.6668,-2.6856,-2.7008,-2.7088,-2.7557,-2.7957,-2.8115,-2.7955,-2.7624,-2.7213,-2.7298,-2.7208,-2.688,-2.6696,-2.6614,-2.6562,-2.6037,-2.5608,-2.5846,-2.5644,-2.5319,-2.4961,-2.3869,-2.2825,-1.9154,-1.9272,-1.8909,-1.8779,-1.8822,-1.8445,-1.8366,-1.8344,-1.7884,-1.7262,-1.6567,-1.6165,-1.5628,-1.5053,-1.5002,-1.5519,-1.6358,-1.6047,-1.6119,-1.655,-1.6005,-1.5488,-1.5006,-1.4936,-1.4742,-1.4402,-1.4336,-1.3809,-1.2919,-1.25,-1.1811,-1.0856,-1.0398,-0.9967,-0.9582,-0.9545,-0.9651,-0.9832,-0.8888,-0.7609,-0.5998,-0.513,-0.431,-0.3543,-0.372,-0.3692,-0.3307,-0.3605,-0.4134,-0.472,-0.4786,-0.5037,-0.5661,-0.495,0.0,0.0,0.0,0.0,0.0,0.0,0.0,0.0,0.0,-1.0147,-0.8318,0.0,-0.9911,0.0,-1.2771,-1.6166,-1.5921,-1.5838,0.0,0.0,-1.9949,-2.0823,-2.2656,-2.3238,-2.3753,-2.4515,-2.4327,-2.3943,-2.3468,-2.4363,-2.5239,-2.5896,-2.6512,-2.6811,-2.6757,-2.6761,-2.6696,-2.6576,-2.6469,-2.6338,-2.6442,-2.6683,-2.6924,-2.6692,-2.6789,-2.6704,-2.6077,-2.6437,-2.6678,-2.6367,-2.6495,-2.6501,-2.6258,-2.5887,-2.5587,-2.5638,-2.5398,-2.5026,-2.4746,-2.3869,-2.2824,-1.906,-1.9391,-1.9637,-1.9654,-1.9484,-1.9266,-1.924,-1.9229,-1.8911,-1.8251,-1.7267,-1.6716,-1.6031,-1.5355,-1.5581,-1.6166,-1.6945,-1.626,-1.6162,-1.6626,-1.5781,-1.5242,-1.487,-1.487,-1.4718,-1.4317,-1.4187,-1.3596,-1.2737,-1.2238,-1.1635,-1.0789,-1.0304,-0.9876,-0.9414,-0.9622,-0.9623,-0.9396,-0.8299,-0.6954,-0.5481,-0.5317,-0.5006,-0.4382,-0.493,-0.506,-0.471,-0.5306,-0.5656,-0.5638,-0.6008,-0.643,-0.679,-0.6655,-0.6807,0.0,0.0,0.0,0.0,0.0,0.0,0.0,0.0,0.0,0.0,0.0,-1.1198,0.0,-1.4642,0.0,-1.7405,-1.7466,-1.8468,-2.0774,-2.1134,-2.1859,-2.336,-2.3357,-2.3574,-2.451,-2.3809,-2.3071,-2.2516,-2.3201,-2.4008,-2.4465,-2.5027,-2.5643,-2.6287,-2.6428,-2.6324,-2.6152,-2.627,-2.6399,-2.6586,-2.6484,-2.6325,-2.615,-2.599,-2.5709,-2.5042,-2.5226,-2.5402,-2.5087,-2.5272,-2.5464,-2.5226,-2.5184,-2.5155,-2.5124,-2.5228,-2.5146,-2.4848,-2.3908,-2.2894,-1.8817,-1.9429,-1.9955,-2.0103,-1.9946,-1.9756,-1.9736,-1.9746,-1.9528,-1.8828,-1.7809,-1.6619,-1.5802,-1.5229,-1.5745,-1.6386,-1.6995,-1.6006,-1.5968,-1.6616,-1.5389,-1.4866,-1.487,-1.4842,-1.469,-1.4317,-1.3904,-1.3384,-1.2668,-1.2118,-1.1442,-1.0759,-1.0094,-0.96,-0.9284,-0.9539,-0.9377,-0.8793,-0.7513,-0.6407,-0.5483,-0.5732,-0.5749,-0.5416,-0.6024,-0.631,-0.6095,-0.7048,-0.7192,-0.6433,-0.7579,-0.8229,-0.8041,-0.8718,-0.9264,0.0,-1.0599,0.0,0.0,0.0,0.0,0.0,0.0,0.0,0.0,-1.2157,-1.2439,-1.3735,-1.6617,-1.841,-1.8499,-1.9235,-2.0118,-2.1212,-2.1882,-2.2453,-2.3038,-2.289,-2.3011,-2.3611,-2.2724,-2.1926,-2.1639,-2.1857,-2.2398,-2.3073,-2.3596,-2.4288,-2.539,-2.5816,-2.5874,-2.5601,-2.611,-2.647,-2.6672,-2.6387,-2.6047,-2.5909,-2.5461,-2.4789,-2.4143,-2.4143,-2.4058,-2.3816,-2.4026,-2.4143,-2.4113,-2.4308,-2.4475,-2.449,-2.472,-2.4924,-2.4815,-2.4058,-2.3135,-1.8142,-1.9141,-1.9317,-1.9698,-2.0203,-1.9983,-1.9813,-1.9606,-1.956,-1.9057,-1.8213,-1.6916,-1.6386,-1.6397,-1.6511,-1.6816,-1.7152,-1.6073,-1.6036,-1.6626,-1.5191,-1.4665,-1.4856,-1.4701,-1.4558,-1.4249,-1.3775,-1.3258,-1.2664,-1.2057,-1.1387,-1.0666,-0.9996,-0.9403,-0.901,0.0,0.0,0.0,-0.7016,-0.6283,-0.5855,-0.5849,-0.5833,-0.5779,-0.6525,0.0,-0.6863,-0.7339,-0.759,-0.7605,-0.8394,0.0,0.0,0.0,0.0,0.0,0.0,0.0,0.0,0.0,0.0,0.0,-1.3912,-1.2779,-1.255,-1.2761,-1.3491,-1.4972,-1.7451,-1.9008,-1.9051,-1.9374,-1.9889,-2.0598,-2.1059,-2.1352,-2.1455,-2.1663,-2.1971,-2.2134,-2.1433,-2.0691,-2.038,-2.0818,-2.1353,-2.1798,-2.2626,-2.3239,-2.3595,-2.4547,-2.5285,-2.5562,-2.5736,-2.5839,-2.5894,-2.5777,-2.5461,-2.5073,-2.4785,-2.4317,-2.3787,-2.3795,-2.4003,-2.3866,-2.4017,-2.3995,-2.3995,-2.3882,-2.3724,-2.3717,-2.3377,-2.3268,-2.3984,-2.4017,-2.3436,-1.7308,0.0,-1.8592,-1.9123,0.0,-1.9565,-1.9393,-1.923,-1.9522,-1.9052,-1.8072,-1.7257,-1.6712,-1.6457,-1.624,-1.6381,-1.6725,-1.5606,-1.5419,-1.6079,-1.4922,-1.4604,-1.4861,-1.4663,-1.452,-1.4303,-1.3501,-1.2953,-1.2588,-1.1714,-1.0977,-1.0431,-0.9666,-0.9043,-0.8629,-0.8346,-0.8116,-0.7933,-0.7261,-0.6712,-0.641,-0.6707,-0.6885,-0.6975,0.0,0.0,0.0,0.0,0.0,0.0,0.0,0.0,0.0,0.0,0.0,-1.3531,-1.4341,-1.5131,-1.5835,-1.5972,-1.6209,-1.6523,-1.4856,-1.3603,-1.307,-1.3297,-1.4097,-1.5607,-1.7547,-1.8819,-1.9007,-1.9281,-1.9554,-2.0008,-2.0354,-2.0526,-2.0441,-2.0102,-2.0079,-2.0594,-2.0112,-1.9505,-1.9096,-1.9754,-2.0323,-2.0661,-2.1307,-2.1998,-2.2761,-2.3891,-2.4909,-2.545,-2.5449,-2.5449,-2.5528,-2.5271,-2.4929,-2.4403,-2.4006,-2.3478,-2.2825,-2.2825,-2.289,-2.2759,-2.2831,-2.2955,-2.2969,-2.2942,-2.2994,-2.2942,-2.2779,-2.26,-2.2921,-2.2775,-2.2451,-1.6465,-1.6887,-1.7979,-1.8562,-1.8877,-1.9006,-1.8964,-1.8696,0.0,0.0,0.0,-1.7308,-1.6744,-1.6183,-1.5749,-1.5824,-1.6009,-1.498,-1.4869,-1.54,-1.4595,-1.4455,-1.474,-1.4543,-1.4337,-1.4117,-1.3229,-1.2596,-1.2384,-1.1309,-1.0632,-1.0206,-0.9395,-0.8704,-0.8241,-0.7819,-0.7644,-0.7773,-0.7495,-0.7266,-0.7023,-0.7627,-0.8007,-0.8137,-0.8981,-0.9529,-0.9671,-1.0174,-1.0375,-1.0239,-1.0993,-1.1625,-1.2251,-1.3522,-1.4654,-1.5588,-1.6897,-1.765,-1.7825,-1.8213,-1.7918,-1.68,-1.5381,-1.4272,-1.3801,-1.3718,-1.4255,-1.5687,-1.7129,-1.8118,-1.8453,-1.8723,-1.8961,-1.9154,-1.9489,-1.9647,-1.9352,-1.8367,-1.8111,-1.8941,-1.8703,-1.8283,-1.7951,-1.8432,-1.8994,-1.9387,-1.9875,-2.0759,-2.2184,-2.3586,-2.4638,-2.5165,-2.5108,-2.507,-2.5283,-2.4855,-2.4312,-2.3838,-2.3283,-2.2595,-2.1998,-2.1866,-2.1733,-2.1652,-2.1733,-2.1885,-2.1958,-2.2144,-2.2289,-2.2296,-2.2413,-2.2317,-2.1728,-2.1336,-2.1015,-1.5941,-1.6896,-1.7528,-1.81,-1.8658,-1.8883,-1.8686,-1.8277,-1.8172,-1.8072,-1.7861,-1.681,-1.632,-1.6183,-1.5749,-1.5607,-1.5646,-1.4838,-1.4732,0.0,-1.4002,-1.38,-1.4217,-1.4011,-1.3809,-1.3599,-1.2851,-1.241,-1.2009,-1.1429,-1.0807,-1.0114,-0.9472,-0.8556,-0.7532,-0.7377,-0.732,-0.7292,-0.7337,-0.7385,-0.7324,-0.7994,-0.8409,-0.8566,-0.9555,-1.0097,-0.995,-1.041,-1.0514,-1.0225,-1.1446,-1.2252,-1.2493,-1.3957,-1.5188,-1.6122,-1.7083,-1.7946,-1.8632,-1.8534,-1.7901,-1.6815,-1.6348,-1.5631,-1.4315,-1.3887,-1.4075,-1.5069,-1.6166,-1.6888,-1.7167,-1.7449,-1.7564,-1.7553,-1.7972,-1.8073,-1.7505,-1.6736,-1.6569,-1.7347,-1.7093,-1.6804,-1.6723,-1.6864,-1.7223,-1.7543,-1.8638,-1.9879,-2.1647,-2.3192,-2.4128,-2.457,-2.4602,-2.4709,-2.486,-2.4463,-2.3695,-2.3066,-2.2624,-2.2121,-2.1438,-2.1507,-2.1637,-2.1695,-2.165,-2.1663,-2.1744,-2.1876,-2.1821,-2.1746,-2.1459,-2.1012,-2.0804,-2.035,-1.9835,-1.5037,-1.5669,-1.6678,-1.7379,-1.8016,-1.8635,-1.8575,-1.8026,-1.7868,-1.7551,-1.7233,-1.6664,-1.6245,-1.581,-1.5352,-1.5022,-1.4789,-1.4066,-1.4031,-1.4481,-1.3849,-1.3815,-1.4285,-1.3667,-1.3415,-1.343,-1.2448,-1.1921,-1.1807,-1.1343,-1.0714,-0.9939,-0.9032,-0.7932,-0.6765,-0.6763,-0.6757,-0.657,-0.7207,-0.7506,-0.7444,-0.8112,-0.8681,-0.8995,-0.9559,-0.9968,-1.0269,-1.0224,-1.0473,-1.0976,-1.1563,-1.2262,-1.3041,-1.4371,-1.5376,-1.5999,-1.704,-1.7978,-1.8795,-1.8677,-1.8209,-1.7242,-1.6514,-1.5669,-1.4677,-1.403,-1.4021,-1.4716,-1.5341,-1.5731,-1.5898,-1.6342,-1.6402,-1.5758,-1.6758,-1.6942,-1.5951,-1.5255,-1.5248,-1.5964,-1.6034,-1.6034,-1.6099,-1.6369,-1.6564,-1.6839,-1.8049,-1.9435,-2.0488,-2.1647,-2.2788,-2.3746,-2.4111,-2.4149,-2.4149,-2.3536,-2.2853,-2.2304,-2.1835,-2.1352,-2.0943,-2.1006,-2.0867,-2.0867,-2.0729,-2.0584,-2.0653,-2.0584,-2.0584,-2.059,-2.0376,-2.0034,-1.9756,-1.9192,-1.8738,-1.4104,-1.4586,-1.5842,-1.6802,-1.7564,-1.8336,-1.8331,-1.7809,-1.7661,-1.7154,-1.6466,-1.6381,-1.6004,-1.5384,-1.4819,-1.4309,-1.3947,-1.3374,-1.334,-1.3678,-1.3431,-1.349,-1.3766,-1.303,-1.2812,-1.2852,-1.1907,-1.1479,-1.1442,-1.1126,-1.0425,-0.9439,-0.8297,-0.7149,-0.6065,-0.6105,-0.6034,-0.5862,-0.6823,-0.7319,-0.7364,-0.8022,-0.8696,-0.9265,-0.941,-0.9769,-1.0354,-1.0153,-1.0357,-1.1169,-1.1454,-1.2073,-1.3127,-1.4463,-1.535,-1.5797,-1.697,-1.7996,-1.8712,-1.8774,-1.8436,-1.7523,-1.6416,-1.5526,-1.4831,-1.4122,-1.3935,-1.4321,-1.4639,-1.4813,-1.4854,-1.5157,-1.5094,-1.425,-1.5362,-1.5498,-1.4244,-1.3761,-1.394,-1.4721,-1.5047,-1.5248,-1.5578,-1.5844,-1.6109,-1.659,-1.7729,-1.865,-1.9232,-2.0113,-2.1202,-2.2205,-2.2943,-2.3018,-2.2795,-2.2021,-2.1426,-2.1083,-2.0488,-2.0097,-1.9924,-1.9825,-1.9825,-1.9825,-1.9686,-1.9611,-1.9611,-1.968,-1.9611,-1.9611,-1.9471,-1.9198,-1.8703,-1.8217,-1.7874,-1.33,-1.4373,-1.5622,-1.6836,-1.7854,-1.7871,-1.7654,-1.7438,-1.7232,-1.6587,-1.5758,-1.5328,-1.5088,-1.4793,-1.406,-1.3682,-1.3453,-1.3185,-1.2873,-1.2518,-1.2332,-1.2075,-1.1927,-1.1735,-1.1575,-1.1514,-1.1314,-1.1087,-1.0843,-1.0771,-0.9972,-0.8504,-0.741,-0.6559,-0.5775,-0.5528,-0.5345,-0.5222,-0.5815,-0.6447,-0.7133,-0.7582,-0.823,-0.9202,-0.9543,-0.9966,-1.0269,-1.0375,-1.0354,-1.0232,-1.1004,-1.1753,-1.2365,-1.3808,-1.5017,-1.5693,-1.7064,-1.815,-1.88,-1.884,-1.8317,-1.7235,-1.6308,-1.5484,-1.4845,-1.4258,-1.3844,-1.3875,-1.4157,-1.4217,-1.3868,-1.3897,-1.3616,-1.2821,-1.3414,-1.3439,-1.2318,-1.2522,-1.2964,-1.3013,-1.3665,-1.4207,-1.4464,-1.4665,-1.5187,-1.6244,-1.6923,-1.7593,-1.8453,-1.9113,-1.9519,-1.9969,-2.0429,-2.0917,-2.0962,-2.0063,-1.9461,-1.901,-1.865,-1.8468,-1.8459,-1.8611,-1.8692,-1.9058,-1.8988,-1.9058,-1.9262,-1.9541,-1.9332,-1.8843,-1.8563,-1.8288,-1.7661,-1.7379,-1.7414,-1.2708,-1.3771,-1.5259,-1.6525,-1.7378,-1.7531,-1.732,-1.7077,-1.7087,-1.6659,-1.5891,-1.4921,-1.4478,-1.4388,-1.3898,-1.3411,-1.2922,-1.2555,-1.2316,-1.2145,-1.1978,-1.1897,-1.1797,-1.1298,-1.1111,-1.1133,-1.0749,-1.0527,-1.0546,-1.0314,-0.9515,-0.8278,-0.736,-0.6353,-0.5167,-0.4886,-0.4639,-0.447,-0.4867,-0.5447,-0.6112,-0.6844,-0.7548,-0.8266,-0.88,-0.9231,-0.9674,-0.9942,-1.0134,-1.0282,-1.0658,-1.1357,-1.2303,-1.332,-1.4459,-1.5628,-1.7593,-1.8693,-1.8691,-1.8961,-1.8388,-1.6735,-1.6216,-1.5547,-1.438,-1.4112,-1.396,-1.3725,-1.3679,-1.3439,-1.296,-1.284,-1.2393,-1.1472,-1.1312,-1.1218,-1.0818,-1.0927,-1.12,-1.1754,-1.2497,-1.3091,-1.3481,-1.401,-1.48,-1.5789,-1.6332,-1.6973,-1.7557,-1.8032,-1.8219,-1.8239,-1.8089,-1.8467,-1.9344,-1.8977,-1.8222,-1.7836,-1.7565,-1.7436,-1.7642,-1.7653,-1.7861,-1.8282,-1.8147,-1.7931,-1.7786,-1.8072,-1.8147,-1.7791,-1.7575,-1.7298,-1.7021,-1.6815,-1.6744,-1.242,-1.358,-1.5043,-1.6173,-1.6866,-1.7006,-1.6911,-1.6698,-1.6774,-1.642,-1.5732,-1.4618,-1.3947,-1.3725,-1.3409,-1.2937,-1.2338,-1.1916,-1.1754,-1.1717,-1.1553,-1.1448,-1.1398,-1.0804,-1.0486,-1.0495,-1.0101,-0.9983,-1.0227,-0.9831,-0.9061,-0.8098,-0.7113,-0.5928,-0.4608,-0.4246,-0.4049,-0.3892,-0.419,-0.4658,-0.5248,-0.5987,-0.6802,-0.7498,-0.7977,-0.8411,-0.8897,-0.9335,-0.971,-1.0098,-1.0356,-1.1039,-1.2275,-1.2895,-1.4077,-1.6001,-1.8112,-1.9119,-1.8612,-1.8765,-1.8017,-1.6305,-1.5641,-1.4856,-1.3956,-1.38,-1.3796,-1.3748,-1.3324,-1.284,-1.2298,-1.1993,-1.1329,-1.0183,-0.9761,-0.9584,-0.9568,-0.9433,-0.9654,-1.0339,-1.1318,-1.2239,-1.2816,-1.37,-1.4577,-1.5161,-1.5818,-1.6405,-1.6733,-1.7033,-1.7228,-1.7077,-1.6169,-1.6292,-1.7647,-1.727,-1.6856,-1.6628,-1.6337,-1.624,-1.6713,-1.6643,-1.678,-1.6901,-1.6861,-1.6951,-1.6951,-1.6951,-1.681,-1.6381,-1.616,-1.6056,-1.5849,-1.5802,-1.5981,-1.2381,-1.3677,-1.5037,-1.582,-1.6213,-1.6264,-1.6305,-1.6351,-1.6115,-1.5542,-1.4837,-1.4147,-1.3423,-1.2656,-1.2269,-1.1992,-1.1846,-1.1616,-1.1263,-1.0915,-1.0764,-1.0413,-0.9886,-0.9746,-0.9552,-0.9439,-0.9327,-0.9458,-0.9724,-0.9345,-0.8688,-0.7753,-0.6352,-0.5097,-0.4231,-0.377,-0.3501,-0.3623,-0.3896,-0.4233,-0.4631,-0.499,-0.5843,-0.6879,-0.731,-0.7599,-0.7991,-0.8543,-0.8974,-0.9165,-0.999,-1.0922,-1.1913,-1.2564,-1.4219,-1.6991,-1.8524,-1.9157,-1.8802,-1.8155,-1.7102,-1.5652,-1.4291,-1.3255,-1.3141,-1.3145,-1.3282,-1.367,-1.3084,-1.2539,-1.2178,-1.145,-1.0547,-0.9518,-0.9156,-0.8808,-0.8267,-0.843,-0.8404,-0.8964,-1.0283,-1.1611,-1.2618,-1.3591,-1.4139,-1.4633,-1.5273,-1.5788,-1.6058,-1.6337,-1.6227,-1.5784,-1.5005,-1.4464,-1.5673,-1.5434,-1.4841,-1.481,-1.4863,-1.4607,-1.4784,-1.4994,-1.5294,-1.5586,-1.5746,-1.5915,-1.6164,-1.6108,-1.582,-1.5385,-1.4929,-1.4748,-1.4846,-1.4784,-1.5064,-1.2383,-1.4185,-1.4778,-1.5259,-1.5644,-1.5524,-1.5354,-1.5207,-1.4937,-1.4465,-1.388,-1.307,-1.249,-1.2062,-1.1156,-1.0951,-1.1214,-1.0934,-1.0594,-1.0325,-1.026,-1.0091,-0.9819,-0.9676,-0.9373,-0.903,-0.8909,-0.8907,-0.894,-0.8759,-0.8227,-0.7299,-0.6386,-0.5459,-0.467,-0.4211,-0.3988,-0.3884,-0.4136,-0.4327,-0.4246,-0.4453,-0.4836,-0.5504,-0.6268,-0.6885,-0.7255,-0.7683,-0.8141,-0.8592,-0.9302,-1.0374,-1.1733,-1.3337,-1.504,-1.6897,-1.8087,-1.8658,-1.8503,-1.7916,-1.675,-1.4986,-1.4034,-1.3159,-1.2637,-1.2804,-1.3136,-1.3135,-1.2724,-1.2359,-1.2118,-1.1212,-1.0122,-0.9217,-0.8793,-0.8389,-0.8102,-0.8119,-0.8288,-0.8666,-0.9764,-1.1091,-1.2041,-1.2888,-1.3473,-1.3974,-1.4358,-1.4741,-1.5061,-1.4877,-1.4553,-1.4207,-1.3242,-1.2479,-1.2859,-1.3219,-1.3186,-1.3522,-1.3615,-1.3851,-1.404,-1.4319,-1.4686,-1.477,-1.4845,-1.4969,-1.5207,-1.5013,-1.4804,-1.4746,-1.4219,-1.3887,-1.385,-1.3955,-1.4578,-1.2508,-1.3835,-1.4067,-1.4421,-1.4868,-1.4597,-1.4474,-1.4453,-1.4061,-1.36,-1.3082,-1.2297,-1.1728,-1.1296,-1.038,-1.0096,-1.0402,-1.0082,-0.9834,-0.9741,-0.9751,-0.9736,-0.9633,-0.9616,-0.9291,-0.8787,-0.8549,-0.841,-0.8331,-0.826,-0.7804,-0.7032,-0.6268,-0.5545,-0.4828,-0.4523,-0.4237,-0.4055,-0.419,-0.4212,-0.3957,-0.3996,-0.4089,-0.4292,-0.4847,-0.5472,-0.6042,-0.6409,-0.699,-0.7746,-0.8485,-0.9836,-1.1811,-1.3653,-1.5165,-1.6354,-1.7479,-1.8112,-1.8033,-1.7467,-1.6298,-1.4547,-1.3742,-1.2908,-1.2161,-1.2554,-1.2831,-1.2848,-1.2423,-1.2057,-1.17,-1.0793,-0.9761,-0.9095,-0.8549,-0.818,-0.7949,-0.8111,-0.8344,-0.8691,-0.9639,-1.0729,-1.1498,-1.2245,-1.2854,-1.3336,-1.3586,-1.3959,-1.4084,-1.3707,-1.3048,-1.2716,-1.1601,-1.0855,-1.0742,-1.0748,-1.1666,-1.2134,-1.2592,-1.2962,-1.3206,-1.3528,-1.3832,-1.3976,-1.41,-1.417,-1.4152,-1.3965,-1.401,-1.4097,-1.3782,-1.3376,-1.3318,-1.3316,-1.3976,-1.279,-1.3083,-1.3003,-1.3408,-1.3789,-1.348,-1.3757,-1.3998,-1.3333,-1.2804,-1.2426,-1.1746,-1.1114,-1.0617,-0.9967,-0.964,-0.9373,-0.9249,-0.9178,-0.9212,-0.9348,-0.9413,-0.939,-0.9556,-0.9219,-0.8533,-0.8117,-0.7943,-0.7934,-0.7648,-0.7257,-0.6782,-0.5909,-0.5279,-0.4748,-0.4571,-0.4272,-0.4073,-0.4066,-0.3895,-0.3726,-0.361,-0.3518,-0.3391,-0.311,-0.3314,-0.4212,-0.4697,-0.5435,-0.6514,-0.7556,-0.9365,-1.1658,-1.3188,-1.4282,-1.5483,-1.6726,-1.7373,-1.7325,-1.6669,-1.5701,-1.4354,-1.3206,-1.2419,-1.2094,-1.2149,-1.2483,-1.2672,-1.2242,-1.1635,-1.0978,-1.0065,-0.9335,-0.9214,-0.848,-0.7933,-0.7988,-0.8212,-0.8497,-0.8861,-0.9698,-1.0412,-1.0975,-1.176,-1.2406,-1.2706,-1.3009,-1.3312,-1.3075,-1.2743,-1.2298,-1.1418,-1.0297,-0.945,-0.8871,-0.8483,-0.9713,-1.0772,-1.1363,-1.1813,-1.1973,-1.2279,-1.2752,-1.2903,-1.3348,-1.3489,-1.38,-1.3677,-1.3658,-1.3654,-1.3228,-1.2944,-1.282,-1.2881,-1.3281,-1.2616,-1.2839,-1.2831,-1.2805,-1.2753,-1.261,-1.2408,-1.2013,-1.1573,-1.1145,-1.0795,-1.0386,-1.0165,-0.9871,-0.9377,-0.906,-0.8915,-0.872,-0.8799,-0.9216,-0.948,-0.964,-0.961,-0.9616,-0.9183,-0.8317,-0.7289,-0.6932,-0.6988,-0.6599,-0.6299,-0.6111,-0.583,-0.5488,-0.5182,-0.5103,-0.4838,-0.4339,-0.4136,-0.3767,-0.3276,-0.2713,-0.2438,-0.2447,-0.1537,-0.121,-0.1954,-0.2995,-0.4073,-0.5148,-0.6385,-0.8226,-1.064,-1.2568,-1.3714,-1.4316,-1.5632,-1.6334,-1.6146,-1.5828,-1.5012,-1.3787,-1.2921,-1.2397,-1.1987,-1.2012,-1.2174,-1.2191,-1.1704,-1.097,-0.9886,-0.946,-0.9092,-0.872,-0.8236,-0.7933,-0.7907,-0.8111,-0.8396,-0.8727,-0.9349,-1.0009,-1.0642,-1.1371,-1.1861,-1.2157,-1.2214,-1.2088,-1.2101,-1.1417,-1.0501,-0.9698,-0.8779,-0.8262,-0.7791,-0.7639,-0.8262,-0.9364,-1.006,-1.0712,-1.0944,-1.1306,-1.1703,-1.2194,-1.2555,-1.2943,-1.3251,-1.3417,-1.3448,-1.3275,-1.2986,-1.272,-1.2402,-1.2504,-1.2899,-1.1691,-1.1749,-1.1746,-1.1674,-1.1531,-1.139,-1.1168,-1.0889,-1.0534,-1.0254,-0.9915,-0.9786,-0.9594,-0.9413,-0.9036,-0.8726,-0.8605,-0.8634,-0.8887,-0.9169,-0.9457,-0.9636,-0.9559,-0.9257,-0.8722,-0.7933,-0.6771,-0.6191,-0.6156,-0.5652,-0.5429,-0.5599,-0.5429,-0.5373,-0.5382,-0.5382,-0.51,-0.4536,-0.4148,-0.3645,-0.2971,-0.2187,-0.1795,-0.1572,-0.0677,-0.04,-0.0759,-0.1609,-0.2609,-0.3935,-0.5714,-0.7864,-0.9849,-1.1507,-1.2725,-1.3449,-1.4205,-1.4886,-1.4839,-1.4675,-1.4019,-1.2833,-1.2192,-1.1673,-1.1228,-1.1264,-1.1363,-1.1687,-1.1218,-1.0307,-0.9207,-0.9034,-0.8787,-0.8113,-0.7991,-0.7891,-0.7889,-0.8051,-0.825,-0.8517,-0.9085,-0.964,-1.0105,-1.0904,-1.1333,-1.1575,-1.145,-1.1088,-1.0967,-1.0251,-0.939,-0.8599,-0.7899,-0.7424,-0.6915,-0.6884,-0.7051,-0.7874,-0.8724,-0.948,-0.9974,-1.0661,-1.1206,-1.1836,-1.2267,-1.2711,-1.3074,-1.33,-1.334,-1.306,-1.287,-1.2719,-1.2508,-1.2168,-1.2336,-1.0239,-0.9879,-0.9879,-1.0164,-1.038,-1.0023,-1.0156,-1.0517,-1.0186,-0.9835,-0.9694,-0.9576,-0.9325,-0.9024,-0.8776,-0.8536,-0.8319,-0.8698,-0.8902,-0.8937,-0.9114,-0.9214,-0.9195,-0.8654,-0.8098,-0.7439,-0.6405,-0.5742,-0.5375,-0.4814,-0.476,-0.5094,-0.4704,-0.4761,-0.5156,-0.5326,-0.4931,-0.437,-0.3979,-0.3365,-0.2525,-0.1912,-0.1406,-0.09,-0.0457,-0.0231,-0.0349,-0.0656,-0.1338,-0.2765,-0.5611,-0.7808,-0.9189,-1.0218,-1.1433,-1.2251,-1.2844,-1.3218,-1.3389,-1.3301,-1.2696,-1.1655,-1.1008,-1.0351,-1.0084,-1.0084,-1.0523,-1.1343,-1.0733,-0.9838,-0.9115,-0.8894,-0.8401,-0.7617,-0.7495,-0.7549,-0.7603,-0.7954,-0.8116,-0.8276,-0.8896,-0.9435,-0.9439,-1.0493,-1.091,-1.0963,-1.1012,-1.074,-0.9956,-0.9284,-0.8644,-0.7969,-0.7284,-0.7038,-0.6719,-0.6614,-0.6778,-0.7158,-0.7921,-0.852,-0.9124,-0.9819,-1.0417,-1.1028,-1.1813,-1.2316,-1.268,-1.285,-1.3181,-1.3234,-1.3122,-1.295,-1.2633,-1.2203,-1.2056,-1.0023,-0.9879,-0.9593,-0.9377,-0.916,-0.9016,-0.8828,-0.8656,-0.8834,-0.8845,-0.8666,-0.8806,-0.8726,-0.8374,-0.8202,-0.7935,-0.7749,-0.7875,-0.8138,-0.8426,-0.8556,-0.8732,-0.8824,-0.8414,-0.7695,-0.6818,-0.5794,-0.5125,-0.4707,-0.4091,-0.3921,-0.4033,-0.3921,-0.4145,-0.4594,-0.4314,-0.4035,-0.3754,-0.3029,-0.2301,-0.1463,-0.0853,-0.04,-0.0229,0.0232,0.0412,0.0179,-0.0485,-0.1595,-0.3142,-0.5227,-0.7232,-0.8788,-0.9708,-1.0148,-1.0112,-1.114,-1.1752,-1.1663,-1.1805,-1.1469,-1.0654,-1.012,-0.9819,-0.9323,-0.9483,-0.9939,-1.0486,-1.0219,-0.9662,-0.9017,-0.8769,-0.8119,-0.7153,-0.6778,-0.6794,-0.7441,-0.7816,-0.8016,-0.821,-0.8715,-0.9155,-0.9717,-1.0304,-1.0789,-1.0532,-1.0523,-1.0271,-0.9203,-0.8818,-0.8342,-0.7561,-0.7012,-0.6834,-0.6695,-0.6515,-0.6517,-0.6765,-0.7264,-0.771,-0.8269,-0.8791,-0.9273,-0.9724,-1.0715,-1.1358,-1.1829,-1.2183,-1.2612,-1.3018,-1.3066,-1.2791,-1.2563,-1.2225,-1.2075,-0.8943,-0.8652,-0.8652,-0.8435,-0.822,-0.822,-0.8124,-0.7992,-0.8248,-0.8339,-0.8233,-0.8329,-0.8301,-0.8117,-0.7857,-0.7602,-0.7357,-0.7612,-0.7794,-0.7859,-0.8141,-0.8363,-0.8401,-0.7911,-0.7048,-0.6228,-0.5084,-0.4375,-0.3855,-0.3206,-0.3027,-0.3194,-0.3083,-0.3363,-0.3866,-0.3586,-0.332,-0.3054,-0.2323,-0.1477,-0.0917,-0.0173,0.0058,0.0117,0.0472,0.06,0.0183,-0.0675,-0.191,-0.3394,-0.4964,-0.6644,-0.8319,-0.9038,-0.8873,-0.811,-0.9387,-1.0123,-0.9986,-1.013,-0.9821,-0.9052,-0.8791,-0.8504,-0.8052,-0.8157,-0.8616,-0.9532,-0.9185,-0.8991,-0.905,-0.8642,-0.795,-0.7173,-0.6301,-0.6209,-0.6974,-0.7579,-0.7873,-0.8129,-0.8588,-0.9098,-0.9697,-1.0243,-1.0243,-1.0094,-1.0056,-0.9337,-0.8408,-0.8305,-0.8033,-0.7264,-0.6911,-0.6852,-0.6786,-0.6617,-0.6654,-0.6835,-0.6978,-0.7341,-0.7838,-0.8256,-0.8677,-0.9225,-0.9886,-1.0527,-1.0975,-1.1472,-1.1854,-1.2243,-1.2476,-1.2531,-1.2092,-1.1955,-1.181,-0.757,-0.6988,-0.7349,-0.7494,-0.7494,-0.7564,-0.7652,-0.7929,-0.8123,-0.8226,-0.8067,-0.8095,-0.803,-0.7942,-0.7586,-0.7337,-0.7196,-0.749,-0.7557,-0.7519,-0.7617,-0.787,-0.7905,-0.7072,-0.6256,-0.5501,-0.4319,-0.3549,-0.297,-0.2141,-0.2019,-0.2185,-0.2074,-0.2355,-0.2802,-0.2858,-0.2714,-0.2344,-0.1546,-0.0808,-0.0292,0.0412,0.0649,0.0651,0.054,0.0425,-0.0061,-0.0925,-0.2034,-0.3204,-0.4621,-0.6037,-0.7503,-0.7928,-0.7577,-0.6953,-0.767,-0.8366,-0.8341,-0.8292,-0.793,-0.716,-0.7123,-0.6845,-0.6311,-0.6415,-0.7112,-0.8152,-0.777,-0.8073,-0.877,-0.8375,-0.7865,-0.7311,-0.6471,-0.6145,-0.6357,-0.7125,-0.775,-0.7872,-0.8424,-0.9034,-0.9518,-0.994,-1.0004,-0.9559,-0.9496,-0.8953,-0.8187,-0.7838,-0.7458,-0.6798,-0.6742,-0.6917,-0.6849,-0.6715,-0.6829,-0.6973,-0.7007,-0.7285,-0.7883,-0.8272,-0.857,-0.898,-0.9309,-0.9724,-1.0235,-1.0632,-1.1087,-1.1364,-1.1651,-1.1559,-1.1328,-1.1349,-1.1251,-0.6988,-0.6549,-0.6626,-0.6629,-0.67,-0.6988,-0.7155,-0.7213,-0.75,-0.7647,-0.753,-0.7717,-0.7599,-0.7297,-0.7154,-0.6973,-0.6739,-0.6773,-0.6723,-0.6883,-0.6905,-0.6899,-0.6888,-0.6443,-0.5762,-0.4821,-0.4071,-0.3074,-0.1985,-0.1576,-0.1234,-0.0897,-0.1009,-0.1234,-0.1906,-0.157,-0.1356,-0.1146,-0.0575,0.029,0.1001,0.1429,0.1676,0.1678,0.1216,0.0553,-0.0062,-0.0925,-0.1726,-0.2589,-0.3943,-0.5293,-0.5959,-0.6514,-0.6372,-0.5935,-0.6125,-0.6565,-0.6455,-0.6525,-0.646,-0.5826,-0.5452,-0.5076,-0.4586,-0.4963,-0.552,-0.619,-0.6575,-0.7118,-0.8017,-0.7937,-0.7733,-0.7569,-0.7394,-0.7043,-0.6679,-0.6471,-0.678,-0.7253,-0.7805,-0.8297,-0.872,-0.9454,-0.9447,-0.9121,-0.8872,-0.8642,-0.809,-0.7511,-0.7117,-0.6687,-0.6919,-0.7148,-0.7249,-0.7182,-0.7296,-0.7328,-0.7309,-0.7302,-0.79,-0.8077,-0.8297,-0.8394,-0.8489,-0.8941,-0.9588,-0.9896,-1.03,-1.0575,-1.0717,-1.0585,-1.0518,-1.0585,-1.0621,-0.5969,-0.568,-0.5972,-0.6192,-0.6412,-0.6627,-0.6819,-0.6923,-0.7136,-0.7155,-0.7059,-0.7172,-0.7037,-0.6785,-0.6766,-0.6652,-0.6498,-0.6359,-0.6359,-0.6489,-0.6426,-0.6345,-0.6173,-0.5832,-0.5108,-0.4109,-0.3601,-0.2554,-0.1482,-0.0901,-0.0561,-0.0056,0.0,-0.0336,-0.0785,-0.0393,-0.0283,-0.0172,0.069,0.1507,0.1825,0.2315,0.2398,0.2227,0.152,0.0735,0.0432,-0.0679,-0.1357,-0.2096,-0.3326,-0.4619,-0.5161,-0.5583,-0.5445,-0.5057,-0.4949,-0.4927,-0.4723,-0.463,-0.4548,-0.4206,-0.3918,-0.3685,-0.3409,-0.3598,-0.4148,-0.4773,-0.5248,-0.5674,-0.6776,-0.7743,-0.7815,-0.7818,-0.7761,-0.7627,-0.7386,-0.6894,-0.6403,-0.6805,-0.715,-0.7588,-0.8083,-0.8714,-0.8842,-0.8526,-0.8453,-0.8236,-0.7757,-0.7287,-0.7177,-0.7024,-0.7255,-0.7477,-0.7635,-0.7738,-0.7785,-0.7838,-0.7815,-0.7762,-0.7971,-0.7969,-0.7892,-0.8001,-0.8173,-0.8394,-0.8904,-0.9207,-0.939,-0.9362,-0.9446,-0.9585,-0.9561,-0.9444,-0.9482,-0.488,-0.4665,-0.5318,-0.5829,-0.6195,-0.6341,-0.6627,-0.6843,-0.6918,-0.6855,-0.6705,-0.6617,-0.6452,-0.6447,-0.6425,-0.6388,-0.6433,-0.639,-0.6409,-0.639,-0.6236,-0.6172,-0.5936,-0.5351,-0.4584,-0.3791,-0.3142,-0.2097,-0.0972,-0.0452,0.0,0.0448,0.0617,0.0448,0.0392,0.0673,0.0848,0.0688,0.1724,0.2432,0.2349,0.289,0.2971,0.2465,0.1941,0.1222,0.0801,-0.0123,-0.0987,-0.1541,-0.2655,-0.3832,-0.474,-0.5099,-0.4957,-0.4377,-0.4167,-0.3632,-0.3025,-0.2906,-0.281,-0.2387,-0.2481,-0.2426,-0.2267,-0.2326,-0.2834,-0.3368,-0.39,-0.4489,-0.5668,-0.682,-0.7657,-0.7865,-0.7802,-0.7935,-0.7877,-0.7521,-0.6749,-0.6435,-0.6764,-0.7096,-0.7418,-0.7867,-0.7928,-0.7958,-0.7951,-0.7802,-0.739,-0.7135,-0.7097,-0.7075,-0.7198,-0.7815,-0.8081,-0.8369,-0.8461,-0.8369,-0.8339,-0.816,-0.8116,-0.7974,-0.7917,-0.7886,-0.8041,-0.8261,-0.8401,-0.8629,-0.8625,-0.832,-0.8315,-0.8588,-0.8503,-0.8238,-0.8478,-0.4225,-0.4226,-0.4664,-0.5101,-0.5467,-0.6121,-0.6406,-0.6484,-0.6471,-0.6435,-0.6279,-0.5989,-0.5972,-0.6033,-0.6084,-0.6185,-0.6445,-0.6423,-0.6415,-0.6382,-0.6235,-0.6149,-0.5978,-0.53,-0.4343,-0.3309,-0.2668,-0.1628,-0.0227,0.0281,0.0505,0.1065,0.1402,0.1346,0.1177,0.1459,0.1808,0.1772,0.2522,0.3004,0.3277,0.3416,0.344,0.295,0.2554,0.2024,0.1171,0.0555,-0.0308,-0.1419,-0.1997,-0.2948,-0.3936,-0.4349,-0.4278,-0.403,-0.338,-0.2669,-0.1693,-0.1751,-0.1515,-0.1194,-0.1392,-0.138,-0.1178,-0.1343,-0.1617,-0.1952,-0.3003,-0.425,-0.5908,-0.6443,-0.6889,-0.742,-0.8069,-0.8242,-0.7308,-0.6823,-0.6642,-0.6506,-0.6594,-0.6616,-0.6879,-0.7197,-0.738,-0.7535,-0.766,-0.7581,-0.7378,-0.7167,-0.7005,-0.6993,-0.7051,-0.7826,-0.8543,-0.8954,-0.9123,-0.9051,-0.8886,-0.8557,-0.8397,-0.8107,-0.7994,-0.7997,-0.7973,-0.8133,-0.8195,-0.8247,-0.8038,-0.7777,-0.7751,-0.7724,-0.7605,-0.7545,-0.7703,-0.3572,-0.379,-0.4227,-0.4718,-0.5199,-0.5628,-0.5749,-0.5716,-0.5713,-0.5621,-0.5432,-0.5302,-0.532,-0.5544,-0.5816,-0.6116,-0.6386,-0.652,-0.6494,-0.6362,-0.6247,-0.6151,-0.6049,-0.5291,-0.4284,-0.3319,-0.2506,-0.123,0.0455,0.045,0.0842,0.1458,0.1851,0.1851,0.1851,0.2356,0.2535,0.2779,0.335,0.3831,0.3953,0.398,0.3797,0.3609,0.3157,0.2569,0.1911,0.1049,0.0308,-0.0557,-0.1188,-0.2086,-0.297,-0.3501,-0.3674,-0.3542,-0.2883,-0.1836,-0.0764,-0.0689,-0.0519,-0.0155,-0.0408,-0.0607,-0.0506,-0.056,-0.0514,-0.1054,-0.2096,-0.3584,-0.4583,-0.5442,-0.6253,-0.6836,-0.7643,-0.7585,-0.6935,-0.6487,-0.6394,-0.6414,-0.6253,-0.6218,-0.6335,-0.6587,-0.6893,-0.7094,-0.7336,-0.7357,-0.7306,-0.7261,-0.7152,-0.7402,-0.7574,-0.823,-0.8949,-0.9231,-0.9554,-0.9525,-0.9331,-0.8949,-0.858,-0.825,-0.8143,-0.807,-0.808,-0.7878,-0.7893,-0.7888,-0.7539,-0.7314,-0.7203,-0.7082,-0.6878,-0.6862,-0.7007,-0.2906,-0.3414,-0.3847,-0.4323,-0.4922,-0.5143,-0.5111,-0.4984,-0.4978,-0.483,-0.4527,-0.4625,-0.4732,-0.5044,-0.5546,-0.6115,-0.6384,-0.6372,-0.638,-0.6315,-0.62,-0.6112,-0.5796,-0.5156,-0.4289,-0.3402,-0.2348,-0.0948,0.0345,0.0625,0.1071,0.1684,0.2132,0.2299,0.2411,0.3083,0.325,0.3585,0.4147,0.4632,0.4476,0.4375,0.4327,0.4274,0.3444,0.2868,0.2341,0.1666,0.0802,0.0062,-0.0626,-0.1268,-0.2237,-0.2667,-0.2929,-0.3084,-0.2432,-0.1404,-0.0548,-0.016,-0.0104,0.0311,0.0154,-0.0203,-0.0152,0.0152,0.0515,-0.0484,-0.1358,-0.2588,-0.3437,-0.448,-0.5326,-0.5932,-0.6402,-0.6712,-0.6362,-0.6058,-0.5993,-0.5916,-0.574,-0.5829,-0.6012,-0.616,-0.6467,-0.6705,-0.6892,-0.7256,-0.7271,-0.7478,-0.7541,-0.7992,-0.8289,-0.8815,-0.9286,-0.95,-0.97,-0.9768,-0.948,-0.9141,-0.8765,-0.8344,-0.8197,-0.7898,-0.7648,-0.7444,-0.7524,-0.7523,-0.7293,-0.7011,-0.6746,-0.6495,-0.6389,-0.6273,-0.6345,-0.2294,-0.3009,-0.344,-0.377,-0.4157,-0.4833,-0.4892,-0.4551,-0.4543,-0.4519,-0.4333,-0.4189,-0.4362,-0.4865,-0.552,-0.5912,-0.603,-0.6257,-0.6347,-0.6298,-0.6178,-0.6031,-0.5853,-0.4905,-0.4256,-0.3427,-0.2185,-0.0889,0.0232,0.0631,0.1249,0.2026,0.2468,0.2862,0.3195,0.3699,0.4091,0.4313,0.4707,0.4918,0.494,0.4729,0.4572,0.4213,0.3719,0.3135,0.2589,0.1974,0.1296,0.0247,0.0,-0.0631,-0.1517,-0.1958,-0.2314,-0.2443,-0.2303,-0.1821,-0.0782,-0.0489,-0.0212,0.0052,-0.0363,-0.0565,-0.0102,0.0562,0.0783,-0.0278,-0.0521,-0.1243,-0.2573,-0.3371,-0.4011,-0.465,-0.5397,-0.5502,-0.5323,-0.5513,-0.5454,-0.5473,-0.5341,-0.5598,-0.588,-0.5961,-0.6037,-0.6278,-0.6492,-0.6868,-0.723,-0.7489,-0.7976,-0.8361,-0.8613,-0.9084,-0.9446,-0.9663,-0.978,-0.9901,-0.9612,-0.9252,-0.8837,-0.8354,-0.7781,-0.7471,-0.7226,-0.7198,-0.7329,-0.7258,-0.7042,-0.6644,-0.6245,-0.6042,-0.6007,-0.5892,-0.5655,-0.1967,-0.2898,-0.304,-0.3298,-0.361,-0.4186,-0.4093,-0.3638,-0.3903,-0.3959,-0.3802,-0.3869,-0.4193,-0.4844,-0.5377,-0.5713,-0.5904,-0.6205,-0.6362,-0.6319,-0.6223,-0.6077,-0.5812,-0.501,-0.4234,-0.3447,-0.2262,-0.1143,-0.0176,0.0634,0.1369,0.2137,0.258,0.2974,0.3587,0.4089,0.4426,0.4716,0.5083,0.524,0.5247,0.5112,0.4903,0.4579,0.3977,0.3387,0.2837,0.222,0.1727,0.0866,0.0564,0.0,-0.0631,-0.1199,-0.1633,-0.2184,-0.2355,-0.193,-0.1196,-0.1056,-0.0654,-0.0321,-0.0584,-0.058,0.0053,0.0525,0.0854,0.0396,0.0118,-0.0724,-0.1873,-0.2553,-0.3286,-0.397,-0.4529,-0.4614,-0.4665,-0.4791,-0.4836,-0.4917,-0.4985,-0.5201,-0.5501,-0.573,-0.5813,-0.6077,-0.6311,-0.6614,-0.7143,-0.7594,-0.8136,-0.8775,-0.8957,-0.9181,-0.9491,-0.9763,-0.9795,-0.9858,-0.9479,-0.9122,-0.8765,-0.8261,-0.7598,-0.7146,-0.6996,-0.7017,-0.7145,-0.6803,-0.6381,-0.601,-0.5632,-0.5492,-0.5288,-0.4989,-0.4829,-0.172,-0.2637,-0.2786,-0.2907,-0.3147,-0.3497,-0.3274,-0.2831,-0.3167,-0.3298,-0.3296,-0.3567,-0.4172,-0.464,-0.5044,-0.5446,-0.5778,-0.6164,-0.6316,-0.6265,-0.6259,-0.61,-0.5691,-0.5022,-0.4231,-0.382,-0.2094,-0.1093,-0.0357,0.0408,0.1319,0.219,0.2525,0.3085,0.3643,0.4091,0.4482,0.4877,0.5261,0.5431,0.5444,0.5314,0.5036,0.4609,0.4102,0.3515,0.2899,0.2344,0.1851,0.1423,0.1059,0.0564,0.0063,-0.0501,-0.1126,-0.1681,-0.2073,-0.2274,-0.1927,-0.177,-0.1346,-0.0991,-0.0703,-0.0643,-0.0109,0.0109,0.0276,0.0523,0.0,-0.0669,-0.1336,-0.2072,-0.2605,-0.3328,-0.3877,-0.4012,-0.4149,-0.4274,-0.435,-0.437,-0.4474,-0.4648,-0.4965,-0.5346,-0.5641,-0.5865,-0.6109,-0.6395,-0.701,-0.7682,-0.8217,-0.8767,-0.893,-0.9121,-0.9353,-0.9631,-0.9756,-0.9685,-0.9365,-0.903,-0.8666,-0.7975,-0.7237,-0.6927,-0.6701,-0.646,-0.6421,-0.6084,-0.5786,-0.5621,-0.5404,-0.4858,-0.4533,-0.4245,-0.4024,-0.1552,-0.2231,-0.2671,-0.2801,-0.2769,-0.287,-0.2793,-0.2627,-0.2424,-0.2558,-0.2895,-0.3497,-0.3963,-0.4372,-0.4774,-0.5109,-0.5444,-0.5706,-0.6012,-0.6141,-0.61,-0.598,-0.5541,-0.4744,-0.3897,-0.3515,-0.2034,-0.0978,-0.0361,0.0414,0.1329,0.2142,0.2532,0.32,0.3716,0.4128,0.4463,0.4857,0.5217,0.5453,0.5472,0.5322,0.5027,0.4462,0.3879,0.3208,0.259,0.2222,0.1914,0.1544,0.1359,0.1116,0.0559,0.0062,-0.0556,-0.1298,-0.1789,-0.2188,-0.2511,-0.2391,-0.2053,-0.1675,-0.1208,-0.0764,-0.0392,0.0448,0.0573,0.0119,-0.0428,-0.0978,-0.1396,-0.1749,-0.2166,-0.2681,-0.3153,-0.3375,-0.3514,-0.3833,-0.3909,-0.3883,-0.404,-0.4217,-0.4388,-0.4814,-0.5341,-0.5569,-0.6228,-0.6519,-0.7175,-0.7814,-0.8226,-0.8625,-0.8791,-0.8954,-0.9205,-0.9332,-0.9441,-0.9309,-0.9037,-0.8773,-0.8495,-0.7778,-0.6879,-0.6565,-0.6334,-0.5964,-0.5687,-0.5534,-0.5428,-0.5426,-0.5064,-0.4236,-0.3688,-0.3302,-0.3201,-0.1548,-0.2223,-0.2371,-0.2436,-0.2425,-0.2437,-0.2435,-0.2358,-0.229,-0.249,-0.3026,-0.3536,-0.3938,-0.4297,-0.464,-0.4839,-0.5106,-0.5619,-0.5841,-0.5991,-0.6049,-0.5898,-0.5324,-0.4571,-0.3799,-0.309,-0.1788,-0.0858,-0.0422,0.0479,0.1242,0.1913,0.2446,0.3083,0.3669,0.4147,0.4552,0.473,0.5079,0.5302,0.5393,0.5528,0.5285,0.4668,0.4059,0.3451,0.2838,0.2285,0.1977,0.1788,0.1592,0.135,0.1047,0.0552,-0.0123,-0.0863,-0.1418,-0.2028,-0.274,-0.2671,-0.2366,-0.1807,-0.1232,-0.0789,-0.046,0.0173,0.0236,-0.0242,-0.0922,-0.141,-0.1392,-0.1567,-0.1798,-0.2178,-0.245,-0.2679,-0.301,-0.3324,-0.36,-0.3747,-0.3785,-0.3914,-0.4099,-0.4243,-0.4815,-0.5397,-0.6051,-0.6696,-0.7305,-0.779,-0.8219,-0.8427,-0.858,-0.8742,-0.8944,-0.9069,-0.9154,-0.888,-0.8663,-0.8289,-0.7932,-0.7314,-0.6555,-0.6288,-0.6016,-0.5739,-0.5432,-0.5154,-0.4936,-0.4817,-0.4176,-0.3347,-0.2809,-0.2391,-0.2198,-0.1481,-0.202,-0.2155,-0.2222,-0.2155,-0.1953,-0.1953,-0.2018,-0.1876,-0.2408,-0.3208,-0.3508,-0.3852,-0.4293,-0.4507,-0.4707,-0.4841,-0.5233,-0.5527,-0.5608,-0.5613,-0.5413,-0.4946,-0.4196,-0.3355,-0.2656,-0.1665,-0.0797,-0.0304,0.0484,0.1142,0.1778,0.2322,0.2904,0.3561,0.4178,0.4531,0.4648,0.4945,0.5198,0.5276,0.5564,0.5441,0.4857,0.4418,0.3758,0.3145,0.2592,0.2223,0.1971,0.1779,0.1592,0.1348,0.0981,0.0306,-0.0369,-0.0987,-0.1542,-0.2265,-0.2517,-0.245,-0.2008,-0.1256,-0.0695,-0.0295,-0.0059,0.0,-0.0245,-0.111,-0.1593,-0.1325,-0.1434,-0.1591,-0.2022,-0.2012,-0.2236,-0.262,-0.2935,-0.3325,-0.361,-0.3597,-0.3665,-0.4252,-0.4465,-0.5013,-0.5658,-0.6442,-0.697,-0.7319,-0.7752,-0.8056,-0.8222,-0.8298,-0.8503,-0.869,-0.8663,-0.8562,-0.8203,-0.793,-0.7484,-0.7025,-0.6553,-0.6243,-0.595,-0.5688,-0.5508,-0.525,-0.4981,-0.4559,-0.4147,-0.3263,-0.2215,-0.1696,-0.1236,-0.1006,-0.1346,-0.1683,-0.202,-0.2222,-0.2087,-0.1414,-0.1346,-0.1613,-0.1328,-0.1917,-0.3048,-0.3236,-0.3654,-0.4162,-0.4307,-0.4508,-0.4641,-0.4572,-0.4874,-0.5272,-0.4879,-0.4672,-0.4352,-0.374,-0.2971,-0.2346,-0.1481,-0.0678,0.0,0.0609,0.1156,0.164,0.2144,0.2704,0.3298,0.3887,0.418,0.4296,0.4952,0.5169,0.5387,0.5654,0.5511,0.5081,0.4794,0.419,0.3453,0.3085,0.2716,0.2219,0.215,0.1904,0.154,0.1415,0.0799,-0.0185,-0.0432,-0.1173,-0.2278,-0.2396,-0.2181,-0.1871,-0.0988,-0.0469,-0.0298,-0.0179,-0.006,-0.0246,-0.0741,-0.1156,-0.1257,-0.1414,-0.1623,-0.1712,-0.176,-0.1925,-0.2307,-0.2468,-0.2803,-0.3203,-0.3263,-0.3449,-0.4227,-0.4838,-0.5314,-0.5989,-0.678,-0.7235,-0.7479,-0.7702,-0.8018,-0.7987,-0.8048,-0.8115,-0.821,-0.8127,-0.8005,-0.7584,-0.7214,-0.6859,-0.6383,-0.5886,-0.5621,-0.5502,-0.5301,-0.5057,-0.4966,-0.4817,-0.3986,-0.2977,-0.1969,-0.1063,-0.0557,-0.0111,0.0165,-0.1279,-0.1616,-0.202,-0.2222,-0.2087,-0.1414,-0.1279,-0.1544,-0.1527,-0.1921,-0.2732,-0.3115,-0.3456,-0.389,-0.4239,-0.4374,-0.4441,-0.444,-0.4675,-0.4608,-0.4219,-0.3902,-0.3658,-0.3239,-0.2531,-0.1914,-0.1173,-0.0556,0.0308,0.0797,0.1289,0.1778,0.2241,0.2696,0.3301,0.3853,0.4116,0.4553,0.5024,0.5333,0.5596,0.5846,0.5823,0.5293,0.5049,0.4619,0.3944,0.3699,0.3268,0.2711,0.2639,0.2328,0.1906,0.172,0.1163,0.0431,0.0185,-0.0679,-0.1352,-0.1451,-0.1072,-0.0829,-0.0474,0.0119,0.0482,0.0121,0.0,-0.0123,-0.0308,-0.0606,-0.0951,-0.1299,-0.1453,-0.1531,-0.1576,-0.1744,-0.2019,-0.2019,-0.2245,-0.2648,-0.2881,-0.3463,-0.419,-0.5015,-0.5557,-0.5899,-0.6625,-0.7128,-0.7375,-0.7678,-0.7958,-0.7834,-0.7799,-0.7799,-0.7771,-0.7665,-0.7435,-0.7113,-0.6781,-0.64,-0.5888,-0.5274,-0.511,-0.4989,-0.4799,-0.4609,-0.4393,-0.3906,-0.2678,-0.1637,-0.0876,-0.011,0.044,0.0978,0.1445,-0.1212,-0.1481,-0.202,-0.2222,-0.2087,-0.1414,-0.1142,-0.1269,-0.139,-0.1789,-0.2464,-0.2846,-0.3322,-0.3755,-0.4037,-0.4239,-0.4239,-0.3968,-0.4142,-0.4083,-0.3569,-0.3327,-0.303,-0.2689,-0.2111,-0.1487,-0.1055,-0.0497,0.0618,0.0865,0.142,0.2092,0.2504,0.298,0.3467,0.3899,0.4251,0.4822,0.5311,0.5647,0.5893,0.6079,0.6096,0.5774,0.5419,0.5051,0.4621,0.4313,0.3943,0.3501,0.3124,0.287,0.2391,0.2024,0.1528,0.1047,0.0247,-0.0432,-0.0676,-0.0674,-0.0303,0.006,0.0482,0.0786,0.0972,0.0613,0.0431,0.0308,0.0184,-0.0241,-0.0651,-0.1001,-0.1157,-0.1185,-0.157,-0.1739,-0.1795,-0.1851,-0.1973,-0.2378,-0.2688,-0.3398,-0.4194,-0.5077,-0.5794,-0.6069,-0.6407,-0.6837,-0.7266,-0.7508,-0.7811,-0.7744,-0.7614,-0.7562,-0.7349,-0.7117,-0.693,-0.6589,-0.6199,-0.5762,-0.5207,-0.4589,-0.4482,-0.4431,-0.4347,-0.4145,-0.3599,-0.2916,-0.1936,-0.1071,-0.0214,0.0538,0.1352,0.187,0.2309,-0.1077,-0.1212,-0.1885,-0.2155,-0.202,-0.1414,-0.0869,-0.0594,-0.0858,-0.1386,-0.2113,-0.2448,-0.2995,-0.3628,-0.3768,-0.3969,-0.4104,-0.3565,-0.3674,-0.3564,-0.2934,-0.2763,-0.2611,-0.2277,-0.1756,-0.1249,-0.0811,-0.025,0.0866,0.1296,0.179,0.2403,0.2821,0.3301,0.3719,0.413,0.4588,0.5254,0.5704,0.6031,0.6395,0.6417,0.6368,0.6147,0.5912,0.5483,0.5176,0.4928,0.4558,0.4125,0.3696,0.3328,0.3022,0.2713,0.1974,0.1111,0.0185,0.0062,0.0,0.0123,0.0431,0.0795,0.1094,0.1281,0.1408,0.1351,0.1286,0.0853,0.0605,0.0119,-0.0353,-0.0523,-0.0745,-0.1075,-0.1516,-0.1683,-0.1683,-0.1801,-0.1926,-0.2168,-0.2364,-0.3,-0.3976,-0.4939,-0.5561,-0.5776,-0.6037,-0.6528,-0.6957,-0.7204,-0.7444,-0.7681,-0.7553,-0.7362,-0.7094,-0.674,-0.6321,-0.6038,-0.5455,-0.498,-0.4424,-0.4088,-0.4049,-0.4007,-0.3905,-0.3634,-0.303,-0.2328,-0.1486,-0.0581,0.0157,0.116,0.1966,0.2359,0.2793,-0.0673,-0.0741,-0.1481,-0.1751,-0.1683,-0.1279,-0.1007,-0.0937,-0.0736,-0.107,-0.174,-0.2142,-0.2615,-0.3029,-0.3566,-0.3835,-0.3699,-0.3496,-0.3357,-0.306,-0.2631,-0.2354,-0.2143,-0.193,-0.1399,-0.1072,-0.0629,-0.0126,0.0929,0.1543,0.2221,0.2835,0.3183,0.3594,0.4067,0.4469,0.5128,0.5734,0.6068,0.6442,0.6747,0.6749,0.6595,0.6388,0.616,0.5794,0.5669,0.5605,0.5235,0.4744,0.4559,0.4129,0.3022,0.3023,0.2654,0.1852,0.1358,0.1172,0.0926,0.1172,0.1419,0.1542,0.1962,0.2211,0.2394,0.2319,0.2182,0.1626,0.1012,0.0528,0.0116,-0.0115,-0.0284,-0.0621,-0.1066,-0.1234,-0.129,-0.1404,-0.1528,-0.1893,-0.2086,-0.2776,-0.381,-0.4501,-0.5059,-0.5278,-0.5659,-0.6137,-0.6566,-0.6867,-0.7177,-0.7347,-0.7115,-0.6786,-0.663,-0.6345,-0.5835,-0.5375,-0.4913,-0.4572,-0.4235,-0.4014,-0.3744,-0.3574,-0.34,-0.3006,-0.2418,-0.1702,-0.0939,-0.0363,0.0412,0.1504,0.2496,0.2882,0.3368,-0.0673,-0.0606,-0.1144,-0.1481,-0.1548,-0.1346,-0.1212,-0.1077,-0.0673,-0.0808,-0.1212,-0.1682,-0.2155,-0.2559,-0.3097,-0.3499,-0.3767,-0.343,-0.3225,-0.3082,-0.2589,-0.2308,-0.2033,-0.1697,-0.135,-0.102,-0.057,0.0,0.1055,0.2098,0.2837,0.3206,0.3477,0.3956,0.4442,0.4813,0.5477,0.6079,0.6566,0.6916,0.7097,0.7097,0.6846,0.6573,0.6346,0.6223,0.6162,0.6162,0.6037,0.5605,0.5544,0.4805,0.3699,0.3393,0.2962,0.2222,0.1974,0.1788,0.1727,0.2097,0.2098,0.2218,0.2761,0.2994,0.2983,0.2905,0.2643,0.2205,0.1581,0.1038,0.0632,0.0286,0.0113,-0.0056,-0.0393,-0.0673,-0.0785,-0.0897,-0.119,-0.1495,-0.2045,-0.2675,-0.343,-0.4109,-0.4593,-0.4821,-0.5054,-0.5472,-0.5972,-0.6362,-0.6738,-0.7047,-0.6614,-0.614,-0.6051,-0.5905,-0.5461,-0.5082,-0.4816,-0.4478,-0.415,-0.3802,-0.3569,-0.3228,-0.2897,-0.2375,-0.1878,-0.1222,-0.0513,0.0102,0.0763,0.1788,0.2663,0.316,0.3796,-0.0808,-0.0471,-0.0875,-0.1212,-0.1548,-0.1481,-0.1279,-0.101,-0.0606,-0.0471,-0.0673,-0.1212,-0.1751,-0.2155,-0.2558,-0.3164,-0.3431,-0.3362,-0.3227,-0.3161,-0.2732,-0.2385,-0.2052,-0.1713,-0.13,-0.0963,-0.0509,0.019,0.1243,0.2344,0.3208,0.3579,0.3879,0.4363,0.4851,0.5154,0.5825,0.656,0.6928,0.7174,0.7545,0.75,0.7266,0.6959,0.6778,0.6655,0.6591,0.6653,0.6903,0.6655,0.6285,0.5605,0.4561,0.3515,0.29,0.2653,0.2406,0.2467,0.2524,0.2828,0.2824,0.2996,0.334,0.349,0.3408,0.3276,0.3014,0.2582,0.202,0.1602,0.1195,0.085,0.0675,0.0561,0.0336,0.0056,-0.0168,-0.0337,-0.0679,-0.1091,-0.1693,-0.2313,-0.2615,-0.3222,-0.3822,-0.4145,-0.4552,-0.4913,-0.533,-0.5784,-0.6217,-0.6653,-0.6226,-0.5808,-0.5735,-0.5534,-0.5097,-0.4725,-0.4584,-0.4255,-0.381,-0.3518,-0.3335,-0.2897,-0.2374,-0.1841,-0.1315,-0.0708,-0.0101,0.0608,0.1314,0.2168,0.282,0.3366,0.3977,-0.0471,-0.0135,-0.0471,-0.0875,-0.1144,-0.0875,-0.0741,-0.0606,-0.0269,-0.0269,-0.0539,-0.0741,-0.1144,-0.1751,-0.2155,-0.2692,-0.3162,-0.3295,-0.3228,-0.3095,-0.2811,-0.2538,-0.2073,-0.1598,-0.1249,-0.0907,-0.0385,0.0508,0.1676,0.2775,0.3639,0.4132,0.4438,0.487,0.5237,0.554,0.628,0.69,0.716,0.7403,0.7707,0.7393,0.7023,0.7028,0.6969,0.6789,0.6723,0.6903,0.6903,0.678,0.6778,0.6039,0.4931,0.3824,0.3208,0.296,0.3022,0.3085,0.3262,0.3492,0.3537,0.351,0.3713,0.3657,0.3622,0.3553,0.3305,0.2879,0.2516,0.2101,0.1807,0.1518,0.1234,0.1121,0.1065,0.0785,0.0504,0.0169,-0.017,-0.0745,-0.1281,-0.1639,-0.1936,-0.2408,-0.2942,-0.3531,-0.4121,-0.4529,-0.4851,-0.527,-0.5739,-0.6035,-0.5878,-0.5543,-0.5473,-0.5285,-0.4914,-0.46,-0.446,-0.4021,-0.3475,-0.335,-0.3222,-0.2479,-0.1874,-0.1412,-0.0903,-0.0398,0.0249,0.1048,0.1644,0.2329,0.2926,0.3467,0.404,-0.0539,-0.0269,-0.0404,-0.0606,-0.0808,-0.0808,-0.0606,-0.0337,-0.0202,-0.0135,-0.0135,-0.0404,-0.0808,-0.1414,-0.1751,-0.2357,-0.2893,-0.3162,-0.3027,-0.2961,-0.2894,-0.2623,-0.2084,-0.1404,-0.1248,-0.0906,0.0064,0.1064,0.2038,0.296,0.3764,0.4376,0.4808,0.5239,0.5481,0.6035,0.6591,0.6903,0.7306,0.7578,0.7766,0.74,0.7127,0.7194,0.7244,0.71,0.7254,0.7365,0.7452,0.7266,0.7079,0.6405,0.5423,0.4439,0.3824,0.3516,0.3455,0.3579,0.3876,0.41,0.4252,0.4225,0.4372,0.4447,0.4153,0.4078,0.373,0.3305,0.2945,0.2586,0.2475,0.2243,0.1907,0.1795,0.1627,0.1458,0.1234,0.0955,0.0394,-0.0283,-0.0743,-0.103,-0.1317,-0.1661,-0.2236,-0.2753,-0.3338,-0.3982,-0.4311,-0.4779,-0.5177,-0.5514,-0.5488,-0.5291,-0.5164,-0.5036,-0.4792,-0.4536,-0.435,-0.3881,-0.3443,-0.3331,-0.3059,-0.2295,-0.1613,-0.1054,-0.0598,-0.0049,0.0684,0.1513,0.1997,0.2476,0.3017,0.3556,0.3983,-0.0875,-0.0539,-0.0471,-0.0404,-0.0471,-0.0808,-0.0606,-0.0135,-0.0202,-0.0067,0.0269,-0.0135,-0.0606,-0.101,-0.1414,-0.202,-0.2558,-0.2894,-0.2895,-0.276,-0.2894,-0.2415,-0.1868,-0.1326,-0.1044,-0.0449,0.0441,0.1184,0.2035,0.3022,0.3947,0.4499,0.4991,0.5421,0.5667,0.6096,0.665,0.705,0.7405,0.7611,0.7569,0.7454,0.7372,0.7453,0.7623,0.7812,0.7894,0.8021,0.8133,0.7814,0.7322,0.6832,0.6158,0.53,0.4379,0.401,0.3887,0.4071,0.4373,0.4722,0.483,0.4993,0.5249,0.5115,0.4741,0.4447,0.4096,0.3785,0.3426,0.325,0.3138,0.2915,0.2635,0.23,0.2187,0.1963,0.1739,0.157,0.0898,0.0225,-0.0112,-0.0393,-0.0786,-0.1122,-0.157,-0.2017,-0.2579,-0.3141,-0.3767,-0.4299,-0.4821,-0.5158,-0.5372,-0.5178,-0.4994,-0.4873,-0.481,-0.4684,-0.4431,-0.3929,-0.3466,-0.3217,-0.2771,-0.2085,-0.141,-0.0902,-0.0297,0.0294,0.1115,0.1916,0.2239,0.2617,0.3254,0.3725,0.3903,-0.1144,-0.0471,-0.0202,0.0,0.0,0.0,-0.0135,0.0,0.0202,0.0269,0.0202,0.0269,0.0,-0.0673,-0.101,-0.1614,-0.2281,-0.2618,-0.2556,-0.2357,-0.2478,-0.1999,-0.1456,-0.0984,-0.0518,0.0064,0.0754,0.1498,0.2285,0.3267,0.413,0.481,0.5176,0.5667,0.6219,0.6648,0.6962,0.7301,0.7622,0.7833,0.7597,0.7488,0.7441,0.7485,0.7554,0.7765,0.7962,0.8245,0.8139,0.7875,0.7566,0.7383,0.6947,0.6145,0.5219,0.459,0.4471,0.4595,0.495,0.51,0.5198,0.5378,0.5428,0.5172,0.4934,0.4896,0.4565,0.4334,0.4092,0.3923,0.3811,0.3531,0.3251,0.2805,0.258,0.2075,0.1739,0.1683,0.1402,0.0841,0.0504,0.0056,-0.0391,-0.0781,-0.117,-0.1616,-0.201,-0.2624,-0.3405,-0.3913,-0.4362,-0.4804,-0.5192,-0.5154,-0.4987,-0.4972,-0.4905,-0.4779,-0.4561,-0.4159,-0.3641,-0.3019,-0.2482,-0.192,-0.1357,-0.085,-0.0197,0.0484,0.1291,0.1984,0.2338,0.2798,0.3424,0.3881,0.4005]}]]